<?xml version="1.0" encoding="UTF-8" standalone="no" ?>
<gpx xmlns="http://www.topografix.com/GPX/1/1" xmlns:xsi="http://www.w3.org/2001/XMLSchema-instance" xsi:schemaLocation="http://www.topografix.com/GPX/1/1 http://www.topografix.com/GPX/1/1/gpx.xsd" version="1.1" creator="VisuGPX - https://www.visugpx.com">
  <metadata>
    <name>Bleau - Barbizon 36km 2-10-11</name>
    <desc><![CDATA[Découverte de la partie nord de Fontainebleau, alternance de singles plus ou moins techniques et parties roulantes (ou pas, ligne droite avec du sable ...). Plusieurs poussages sont nécessaires]]></desc>
  </metadata>
  <trk>
    <name><![CDATA[PruneTrack]]></name>
    <trkseg>
      <trkpt lat="48.44116" lon="2.62268">
        <ele>95</ele>
        <time>2011-10-02T09:07:29Z</time>
      </trkpt>
      <trkpt lat="48.44113" lon="2.6229">
        <ele>95</ele>
        <time>2011-10-02T09:07:35Z</time>
      </trkpt>
      <trkpt lat="48.4411" lon="2.62317">
        <ele>95</ele>
        <time>2011-10-02T09:07:41Z</time>
      </trkpt>
      <trkpt lat="48.44107" lon="2.62337">
        <ele>94</ele>
        <time>2011-10-02T09:07:45Z</time>
      </trkpt>
      <trkpt lat="48.44102" lon="2.62369">
        <ele>93</ele>
        <time>2011-10-02T09:07:50Z</time>
      </trkpt>
      <trkpt lat="48.44099" lon="2.62398">
        <ele>93</ele>
        <time>2011-10-02T09:07:55Z</time>
      </trkpt>
      <trkpt lat="48.44089" lon="2.62428">
        <ele>92</ele>
        <time>2011-10-02T09:08:01Z</time>
      </trkpt>
      <trkpt lat="48.4408" lon="2.6243">
        <ele>93</ele>
        <time>2011-10-02T09:08:04Z</time>
      </trkpt>
      <trkpt lat="48.44065" lon="2.62417">
        <ele>93</ele>
        <time>2011-10-02T09:08:09Z</time>
      </trkpt>
      <trkpt lat="48.44061" lon="2.62417">
        <ele>93</ele>
        <time>2011-10-02T09:08:10Z</time>
      </trkpt>
      <trkpt lat="48.4405" lon="2.6242">
        <ele>94</ele>
        <time>2011-10-02T09:08:13Z</time>
      </trkpt>
      <trkpt lat="48.44032" lon="2.62438">
        <ele>95</ele>
        <time>2011-10-02T09:08:18Z</time>
      </trkpt>
      <trkpt lat="48.44022" lon="2.62441">
        <ele>95</ele>
        <time>2011-10-02T09:08:21Z</time>
      </trkpt>
      <trkpt lat="48.44001" lon="2.62438">
        <ele>96</ele>
        <time>2011-10-02T09:08:26Z</time>
      </trkpt>
      <trkpt lat="48.43976" lon="2.62434">
        <ele>96</ele>
        <time>2011-10-02T09:08:32Z</time>
      </trkpt>
      <trkpt lat="48.43964" lon="2.62432">
        <ele>96</ele>
        <time>2011-10-02T09:08:35Z</time>
      </trkpt>
      <trkpt lat="48.43939" lon="2.62426">
        <ele>96</ele>
        <time>2011-10-02T09:08:41Z</time>
      </trkpt>
      <trkpt lat="48.43915" lon="2.62423">
        <ele>95</ele>
        <time>2011-10-02T09:08:46Z</time>
      </trkpt>
      <trkpt lat="48.43884" lon="2.62421">
        <ele>95</ele>
        <time>2011-10-02T09:08:52Z</time>
      </trkpt>
      <trkpt lat="48.43856" lon="2.62417">
        <ele>95</ele>
        <time>2011-10-02T09:08:58Z</time>
      </trkpt>
      <trkpt lat="48.43846" lon="2.62416">
        <ele>95</ele>
        <time>2011-10-02T09:09:00Z</time>
      </trkpt>
      <trkpt lat="48.43822" lon="2.62409">
        <ele>95</ele>
        <time>2011-10-02T09:09:05Z</time>
      </trkpt>
      <trkpt lat="48.43818" lon="2.62409">
        <ele>95</ele>
        <time>2011-10-02T09:09:06Z</time>
      </trkpt>
      <trkpt lat="48.43791" lon="2.62406">
        <ele>96</ele>
        <time>2011-10-02T09:09:12Z</time>
      </trkpt>
      <trkpt lat="48.43754" lon="2.62405">
        <ele>96</ele>
        <time>2011-10-02T09:09:20Z</time>
      </trkpt>
      <trkpt lat="48.43729" lon="2.62407">
        <ele>97</ele>
        <time>2011-10-02T09:09:25Z</time>
      </trkpt>
      <trkpt lat="48.43709" lon="2.62411">
        <ele>97</ele>
        <time>2011-10-02T09:09:30Z</time>
      </trkpt>
      <trkpt lat="48.43694" lon="2.62412">
        <ele>97</ele>
        <time>2011-10-02T09:09:35Z</time>
      </trkpt>
      <trkpt lat="48.43675" lon="2.62414">
        <ele>98</ele>
        <time>2011-10-02T09:09:40Z</time>
      </trkpt>
      <trkpt lat="48.43657" lon="2.62415">
        <ele>98</ele>
        <time>2011-10-02T09:09:44Z</time>
      </trkpt>
      <trkpt lat="48.43643" lon="2.62404">
        <ele>98</ele>
        <time>2011-10-02T09:09:48Z</time>
      </trkpt>
      <trkpt lat="48.43643" lon="2.624">
        <ele>98</ele>
        <time>2011-10-02T09:09:49Z</time>
      </trkpt>
      <trkpt lat="48.43645" lon="2.62377">
        <ele>98</ele>
        <time>2011-10-02T09:09:54Z</time>
      </trkpt>
      <trkpt lat="48.43647" lon="2.62358">
        <ele>98</ele>
        <time>2011-10-02T09:09:58Z</time>
      </trkpt>
      <trkpt lat="48.43648" lon="2.62346">
        <ele>98</ele>
        <time>2011-10-02T09:10:00Z</time>
      </trkpt>
      <trkpt lat="48.43654" lon="2.62314">
        <ele>98</ele>
        <time>2011-10-02T09:10:05Z</time>
      </trkpt>
      <trkpt lat="48.43659" lon="2.6229">
        <ele>97</ele>
        <time>2011-10-02T09:10:10Z</time>
      </trkpt>
      <trkpt lat="48.43662" lon="2.62283">
        <ele>97</ele>
        <time>2011-10-02T09:10:15Z</time>
      </trkpt>
      <trkpt lat="48.43663" lon="2.62272">
        <ele>97</ele>
        <time>2011-10-02T09:10:22Z</time>
      </trkpt>
      <trkpt lat="48.43665" lon="2.62258">
        <ele>96</ele>
        <time>2011-10-02T09:10:27Z</time>
      </trkpt>
      <trkpt lat="48.43667" lon="2.62241">
        <ele>96</ele>
        <time>2011-10-02T09:10:32Z</time>
      </trkpt>
      <trkpt lat="48.4367" lon="2.62229">
        <ele>95</ele>
        <time>2011-10-02T09:10:35Z</time>
      </trkpt>
      <trkpt lat="48.43671" lon="2.62211">
        <ele>95</ele>
        <time>2011-10-02T09:10:40Z</time>
      </trkpt>
      <trkpt lat="48.43675" lon="2.62184">
        <ele>95</ele>
        <time>2011-10-02T09:10:46Z</time>
      </trkpt>
      <trkpt lat="48.43678" lon="2.62166">
        <ele>94</ele>
        <time>2011-10-02T09:10:51Z</time>
      </trkpt>
      <trkpt lat="48.43683" lon="2.62146">
        <ele>94</ele>
        <time>2011-10-02T09:10:57Z</time>
      </trkpt>
      <trkpt lat="48.43689" lon="2.62123">
        <ele>94</ele>
        <time>2011-10-02T09:11:02Z</time>
      </trkpt>
      <trkpt lat="48.43696" lon="2.62095">
        <ele>94</ele>
        <time>2011-10-02T09:11:08Z</time>
      </trkpt>
      <trkpt lat="48.43702" lon="2.62061">
        <ele>94</ele>
        <time>2011-10-02T09:11:16Z</time>
      </trkpt>
      <trkpt lat="48.43707" lon="2.62039">
        <ele>94</ele>
        <time>2011-10-02T09:11:21Z</time>
      </trkpt>
      <trkpt lat="48.43712" lon="2.62016">
        <ele>94</ele>
        <time>2011-10-02T09:11:26Z</time>
      </trkpt>
      <trkpt lat="48.43717" lon="2.61997">
        <ele>94</ele>
        <time>2011-10-02T09:11:32Z</time>
      </trkpt>
      <trkpt lat="48.43722" lon="2.61973">
        <ele>94</ele>
        <time>2011-10-02T09:11:38Z</time>
      </trkpt>
      <trkpt lat="48.43726" lon="2.61953">
        <ele>94</ele>
        <time>2011-10-02T09:11:43Z</time>
      </trkpt>
      <trkpt lat="48.43731" lon="2.61936">
        <ele>94</ele>
        <time>2011-10-02T09:11:48Z</time>
      </trkpt>
      <trkpt lat="48.43738" lon="2.61914">
        <ele>94</ele>
        <time>2011-10-02T09:11:54Z</time>
      </trkpt>
      <trkpt lat="48.43744" lon="2.6189">
        <ele>94</ele>
        <time>2011-10-02T09:12:00Z</time>
      </trkpt>
      <trkpt lat="48.43749" lon="2.61867">
        <ele>93</ele>
        <time>2011-10-02T09:12:07Z</time>
      </trkpt>
      <trkpt lat="48.43754" lon="2.6184">
        <ele>94</ele>
        <time>2011-10-02T09:12:12Z</time>
      </trkpt>
      <trkpt lat="48.43758" lon="2.61819">
        <ele>94</ele>
        <time>2011-10-02T09:12:16Z</time>
      </trkpt>
      <trkpt lat="48.43755" lon="2.61801">
        <ele>94</ele>
        <time>2011-10-02T09:12:20Z</time>
      </trkpt>
      <trkpt lat="48.43741" lon="2.61783">
        <ele>93</ele>
        <time>2011-10-02T09:12:25Z</time>
      </trkpt>
      <trkpt lat="48.43725" lon="2.61769">
        <ele>92</ele>
        <time>2011-10-02T09:12:30Z</time>
      </trkpt>
      <trkpt lat="48.43713" lon="2.61757">
        <ele>92</ele>
        <time>2011-10-02T09:12:34Z</time>
      </trkpt>
      <trkpt lat="48.43706" lon="2.61749">
        <ele>93</ele>
        <time>2011-10-02T09:12:36Z</time>
      </trkpt>
      <trkpt lat="48.43684" lon="2.61726">
        <ele>93</ele>
        <time>2011-10-02T09:12:42Z</time>
      </trkpt>
      <trkpt lat="48.43671" lon="2.61715">
        <ele>94</ele>
        <time>2011-10-02T09:12:46Z</time>
      </trkpt>
      <trkpt lat="48.43653" lon="2.617">
        <ele>95</ele>
        <time>2011-10-02T09:12:52Z</time>
      </trkpt>
      <trkpt lat="48.43641" lon="2.61688">
        <ele>95</ele>
        <time>2011-10-02T09:12:56Z</time>
      </trkpt>
      <trkpt lat="48.43627" lon="2.61673">
        <ele>95</ele>
        <time>2011-10-02T09:13:00Z</time>
      </trkpt>
      <trkpt lat="48.43614" lon="2.61658">
        <ele>97</ele>
        <time>2011-10-02T09:13:05Z</time>
      </trkpt>
      <trkpt lat="48.4361" lon="2.61651">
        <ele>97</ele>
        <time>2011-10-02T09:13:08Z</time>
      </trkpt>
      <trkpt lat="48.43599" lon="2.6164">
        <ele>97</ele>
        <time>2011-10-02T09:13:13Z</time>
      </trkpt>
      <trkpt lat="48.43591" lon="2.61633">
        <ele>97</ele>
        <time>2011-10-02T09:13:17Z</time>
      </trkpt>
      <trkpt lat="48.43579" lon="2.61622">
        <ele>101</ele>
        <time>2011-10-02T09:13:24Z</time>
      </trkpt>
      <trkpt lat="48.43568" lon="2.61616">
        <ele>101</ele>
        <time>2011-10-02T09:13:29Z</time>
      </trkpt>
      <trkpt lat="48.43566" lon="2.61614">
        <ele>101</ele>
        <time>2011-10-02T09:13:31Z</time>
      </trkpt>
      <trkpt lat="48.43561" lon="2.6161">
        <ele>101</ele>
        <time>2011-10-02T09:13:35Z</time>
      </trkpt>
      <trkpt lat="48.4355" lon="2.61596">
        <ele>102</ele>
        <time>2011-10-02T09:13:41Z</time>
      </trkpt>
      <trkpt lat="48.43543" lon="2.61572">
        <ele>104</ele>
        <time>2011-10-02T09:13:47Z</time>
      </trkpt>
      <trkpt lat="48.43541" lon="2.61565">
        <ele>105</ele>
        <time>2011-10-02T09:13:49Z</time>
      </trkpt>
      <trkpt lat="48.43537" lon="2.61556">
        <ele>105</ele>
        <time>2011-10-02T09:13:53Z</time>
      </trkpt>
      <trkpt lat="48.43524" lon="2.61548">
        <ele>106</ele>
        <time>2011-10-02T09:14:00Z</time>
      </trkpt>
      <trkpt lat="48.43518" lon="2.6154">
        <ele>107</ele>
        <time>2011-10-02T09:14:05Z</time>
      </trkpt>
      <trkpt lat="48.43516" lon="2.61539">
        <ele>107</ele>
        <time>2011-10-02T09:14:07Z</time>
      </trkpt>
      <trkpt lat="48.43506" lon="2.61532">
        <ele>108</ele>
        <time>2011-10-02T09:14:15Z</time>
      </trkpt>
      <trkpt lat="48.43499" lon="2.61532">
        <ele>117</ele>
        <time>2011-10-02T09:14:20Z</time>
      </trkpt>
      <trkpt lat="48.43497" lon="2.61532">
        <ele>117</ele>
        <time>2011-10-02T09:14:25Z</time>
      </trkpt>
      <trkpt lat="48.43494" lon="2.61529">
        <ele>117</ele>
        <time>2011-10-02T09:14:32Z</time>
      </trkpt>
      <trkpt lat="48.43491" lon="2.61524">
        <ele>117</ele>
        <time>2011-10-02T09:14:39Z</time>
      </trkpt>
      <trkpt lat="48.43485" lon="2.6152">
        <ele>118</ele>
        <time>2011-10-02T09:14:47Z</time>
      </trkpt>
      <trkpt lat="48.43481" lon="2.61517">
        <ele>118</ele>
        <time>2011-10-02T09:14:54Z</time>
      </trkpt>
      <trkpt lat="48.43477" lon="2.61516">
        <ele>118</ele>
        <time>2011-10-02T09:15:01Z</time>
      </trkpt>
      <trkpt lat="48.43474" lon="2.61514">
        <ele>118</ele>
        <time>2011-10-02T09:15:10Z</time>
      </trkpt>
      <trkpt lat="48.43472" lon="2.6151">
        <ele>119</ele>
        <time>2011-10-02T09:15:17Z</time>
      </trkpt>
      <trkpt lat="48.43471" lon="2.61504">
        <ele>119</ele>
        <time>2011-10-02T09:15:24Z</time>
      </trkpt>
      <trkpt lat="48.43471" lon="2.61501">
        <ele>119</ele>
        <time>2011-10-02T09:15:32Z</time>
      </trkpt>
      <trkpt lat="48.4347" lon="2.61499">
        <ele>121</ele>
        <time>2011-10-02T09:15:45Z</time>
      </trkpt>
      <trkpt lat="48.43469" lon="2.61496">
        <ele>121</ele>
        <time>2011-10-02T09:15:53Z</time>
      </trkpt>
      <trkpt lat="48.43468" lon="2.6149">
        <ele>121</ele>
        <time>2011-10-02T09:16:01Z</time>
      </trkpt>
      <trkpt lat="48.43466" lon="2.61486">
        <ele>121</ele>
        <time>2011-10-02T09:16:07Z</time>
      </trkpt>
      <trkpt lat="48.43464" lon="2.61487">
        <ele>121</ele>
        <time>2011-10-02T09:16:14Z</time>
      </trkpt>
      <trkpt lat="48.4346" lon="2.61488">
        <ele>122</ele>
        <time>2011-10-02T09:16:21Z</time>
      </trkpt>
      <trkpt lat="48.43455" lon="2.61488">
        <ele>122</ele>
        <time>2011-10-02T09:16:28Z</time>
      </trkpt>
      <trkpt lat="48.43452" lon="2.61486">
        <ele>122</ele>
        <time>2011-10-02T09:16:34Z</time>
      </trkpt>
      <trkpt lat="48.43449" lon="2.61489">
        <ele>123</ele>
        <time>2011-10-02T09:16:40Z</time>
      </trkpt>
      <trkpt lat="48.43447" lon="2.6149">
        <ele>123</ele>
        <time>2011-10-02T09:16:47Z</time>
      </trkpt>
      <trkpt lat="48.43444" lon="2.61488">
        <ele>123</ele>
        <time>2011-10-02T09:16:53Z</time>
      </trkpt>
      <trkpt lat="48.43441" lon="2.61486">
        <ele>123</ele>
        <time>2011-10-02T09:17:00Z</time>
      </trkpt>
      <trkpt lat="48.43437" lon="2.6149">
        <ele>124</ele>
        <time>2011-10-02T09:17:06Z</time>
      </trkpt>
      <trkpt lat="48.43435" lon="2.61491">
        <ele>124</ele>
        <time>2011-10-02T09:17:22Z</time>
      </trkpt>
      <trkpt lat="48.43438" lon="2.61491">
        <ele>124</ele>
        <time>2011-10-02T09:18:31Z</time>
      </trkpt>
      <trkpt lat="48.43438" lon="2.61491">
        <ele>124</ele>
        <time>2011-10-02T09:18:48Z</time>
      </trkpt>
      <trkpt lat="48.43441" lon="2.61492">
        <ele>123</ele>
        <time>2011-10-02T09:19:17Z</time>
      </trkpt>
      <trkpt lat="48.4344" lon="2.61493">
        <ele>124</ele>
        <time>2011-10-02T09:19:24Z</time>
      </trkpt>
      <trkpt lat="48.43437" lon="2.61505">
        <ele>123</ele>
        <time>2011-10-02T09:19:30Z</time>
      </trkpt>
      <trkpt lat="48.43435" lon="2.61512">
        <ele>123</ele>
        <time>2011-10-02T09:19:33Z</time>
      </trkpt>
      <trkpt lat="48.4343" lon="2.61523">
        <ele>123</ele>
        <time>2011-10-02T09:19:39Z</time>
      </trkpt>
      <trkpt lat="48.43427" lon="2.61531">
        <ele>122</ele>
        <time>2011-10-02T09:19:42Z</time>
      </trkpt>
      <trkpt lat="48.43423" lon="2.61544">
        <ele>122</ele>
        <time>2011-10-02T09:19:47Z</time>
      </trkpt>
      <trkpt lat="48.43417" lon="2.61556">
        <ele>123</ele>
        <time>2011-10-02T09:19:51Z</time>
      </trkpt>
      <trkpt lat="48.43412" lon="2.61563">
        <ele>127</ele>
        <time>2011-10-02T09:19:55Z</time>
      </trkpt>
      <trkpt lat="48.43412" lon="2.61574">
        <ele>127</ele>
        <time>2011-10-02T09:19:59Z</time>
      </trkpt>
      <trkpt lat="48.43412" lon="2.6158">
        <ele>127</ele>
        <time>2011-10-02T09:20:03Z</time>
      </trkpt>
      <trkpt lat="48.43409" lon="2.61587">
        <ele>127</ele>
        <time>2011-10-02T09:20:09Z</time>
      </trkpt>
      <trkpt lat="48.43408" lon="2.61592">
        <ele>127</ele>
        <time>2011-10-02T09:20:14Z</time>
      </trkpt>
      <trkpt lat="48.43403" lon="2.61599">
        <ele>127</ele>
        <time>2011-10-02T09:20:19Z</time>
      </trkpt>
      <trkpt lat="48.43397" lon="2.61603">
        <ele>127</ele>
        <time>2011-10-02T09:20:23Z</time>
      </trkpt>
      <trkpt lat="48.43399" lon="2.61605">
        <ele>127</ele>
        <time>2011-10-02T09:20:27Z</time>
      </trkpt>
      <trkpt lat="48.43403" lon="2.61609">
        <ele>127</ele>
        <time>2011-10-02T09:20:31Z</time>
      </trkpt>
      <trkpt lat="48.434" lon="2.61618">
        <ele>126</ele>
        <time>2011-10-02T09:20:36Z</time>
      </trkpt>
      <trkpt lat="48.4339" lon="2.61622">
        <ele>126</ele>
        <time>2011-10-02T09:20:42Z</time>
      </trkpt>
      <trkpt lat="48.43388" lon="2.61628">
        <ele>126</ele>
        <time>2011-10-02T09:20:44Z</time>
      </trkpt>
      <trkpt lat="48.43386" lon="2.61642">
        <ele>126</ele>
        <time>2011-10-02T09:20:50Z</time>
      </trkpt>
      <trkpt lat="48.43387" lon="2.61641">
        <ele>126</ele>
        <time>2011-10-02T09:20:59Z</time>
      </trkpt>
      <trkpt lat="48.43389" lon="2.6164">
        <ele>126</ele>
        <time>2011-10-02T09:21:08Z</time>
      </trkpt>
      <trkpt lat="48.43393" lon="2.61641">
        <ele>126</ele>
        <time>2011-10-02T09:21:14Z</time>
      </trkpt>
      <trkpt lat="48.43397" lon="2.61644">
        <ele>126</ele>
        <time>2011-10-02T09:21:21Z</time>
      </trkpt>
      <trkpt lat="48.43398" lon="2.61654">
        <ele>126</ele>
        <time>2011-10-02T09:21:25Z</time>
      </trkpt>
      <trkpt lat="48.43403" lon="2.61669">
        <ele>127</ele>
        <time>2011-10-02T09:21:29Z</time>
      </trkpt>
      <trkpt lat="48.43397" lon="2.61685">
        <ele>127</ele>
        <time>2011-10-02T09:21:34Z</time>
      </trkpt>
      <trkpt lat="48.43391" lon="2.61698">
        <ele>127</ele>
        <time>2011-10-02T09:21:38Z</time>
      </trkpt>
      <trkpt lat="48.43384" lon="2.61708">
        <ele>126</ele>
        <time>2011-10-02T09:21:43Z</time>
      </trkpt>
      <trkpt lat="48.43383" lon="2.61713">
        <ele>127</ele>
        <time>2011-10-02T09:21:47Z</time>
      </trkpt>
      <trkpt lat="48.43383" lon="2.61721">
        <ele>127</ele>
        <time>2011-10-02T09:21:53Z</time>
      </trkpt>
      <trkpt lat="48.43383" lon="2.61725">
        <ele>127</ele>
        <time>2011-10-02T09:21:59Z</time>
      </trkpt>
      <trkpt lat="48.43383" lon="2.61727">
        <ele>127</ele>
        <time>2011-10-02T09:22:01Z</time>
      </trkpt>
      <trkpt lat="48.43378" lon="2.61735">
        <ele>127</ele>
        <time>2011-10-02T09:22:06Z</time>
      </trkpt>
      <trkpt lat="48.43378" lon="2.61739">
        <ele>127</ele>
        <time>2011-10-02T09:22:09Z</time>
      </trkpt>
      <trkpt lat="48.43377" lon="2.61743">
        <ele>127</ele>
        <time>2011-10-02T09:22:15Z</time>
      </trkpt>
      <trkpt lat="48.43376" lon="2.61756">
        <ele>127</ele>
        <time>2011-10-02T09:22:20Z</time>
      </trkpt>
      <trkpt lat="48.43373" lon="2.61762">
        <ele>127</ele>
        <time>2011-10-02T09:22:23Z</time>
      </trkpt>
      <trkpt lat="48.43368" lon="2.61779">
        <ele>127</ele>
        <time>2011-10-02T09:22:28Z</time>
      </trkpt>
      <trkpt lat="48.43366" lon="2.61804">
        <ele>128</ele>
        <time>2011-10-02T09:22:34Z</time>
      </trkpt>
      <trkpt lat="48.43365" lon="2.61808">
        <ele>128</ele>
        <time>2011-10-02T09:22:35Z</time>
      </trkpt>
      <trkpt lat="48.43361" lon="2.61823">
        <ele>128</ele>
        <time>2011-10-02T09:22:40Z</time>
      </trkpt>
      <trkpt lat="48.43359" lon="2.61831">
        <ele>129</ele>
        <time>2011-10-02T09:22:42Z</time>
      </trkpt>
      <trkpt lat="48.43365" lon="2.61845">
        <ele>128</ele>
        <time>2011-10-02T09:22:47Z</time>
      </trkpt>
      <trkpt lat="48.43366" lon="2.61859">
        <ele>128</ele>
        <time>2011-10-02T09:22:53Z</time>
      </trkpt>
      <trkpt lat="48.43363" lon="2.6187">
        <ele>128</ele>
        <time>2011-10-02T09:22:56Z</time>
      </trkpt>
      <trkpt lat="48.4336" lon="2.61893">
        <ele>129</ele>
        <time>2011-10-02T09:23:01Z</time>
      </trkpt>
      <trkpt lat="48.43356" lon="2.61919">
        <ele>130</ele>
        <time>2011-10-02T09:23:06Z</time>
      </trkpt>
      <trkpt lat="48.43356" lon="2.61931">
        <ele>130</ele>
        <time>2011-10-02T09:23:09Z</time>
      </trkpt>
      <trkpt lat="48.43354" lon="2.6194">
        <ele>130</ele>
        <time>2011-10-02T09:23:14Z</time>
      </trkpt>
      <trkpt lat="48.43356" lon="2.61954">
        <ele>129</ele>
        <time>2011-10-02T09:23:19Z</time>
      </trkpt>
      <trkpt lat="48.43356" lon="2.61954">
        <ele>129</ele>
        <time>2011-10-02T09:23:20Z</time>
      </trkpt>
      <trkpt lat="48.43358" lon="2.6196">
        <ele>129</ele>
        <time>2011-10-02T09:23:24Z</time>
      </trkpt>
      <trkpt lat="48.43356" lon="2.61966">
        <ele>129</ele>
        <time>2011-10-02T09:23:29Z</time>
      </trkpt>
      <trkpt lat="48.43355" lon="2.61983">
        <ele>130</ele>
        <time>2011-10-02T09:23:34Z</time>
      </trkpt>
      <trkpt lat="48.43352" lon="2.62">
        <ele>131</ele>
        <time>2011-10-02T09:23:37Z</time>
      </trkpt>
      <trkpt lat="48.43345" lon="2.62021">
        <ele>129</ele>
        <time>2011-10-02T09:23:42Z</time>
      </trkpt>
      <trkpt lat="48.43342" lon="2.62033">
        <ele>128</ele>
        <time>2011-10-02T09:23:46Z</time>
      </trkpt>
      <trkpt lat="48.43341" lon="2.62037">
        <ele>128</ele>
        <time>2011-10-02T09:23:47Z</time>
      </trkpt>
      <trkpt lat="48.43342" lon="2.62053">
        <ele>128</ele>
        <time>2011-10-02T09:23:52Z</time>
      </trkpt>
      <trkpt lat="48.43341" lon="2.62055">
        <ele>128</ele>
        <time>2011-10-02T09:23:58Z</time>
      </trkpt>
      <trkpt lat="48.43341" lon="2.62055">
        <ele>128</ele>
        <time>2011-10-02T09:24:05Z</time>
      </trkpt>
      <trkpt lat="48.43341" lon="2.62055">
        <ele>128</ele>
        <time>2011-10-02T09:24:11Z</time>
      </trkpt>
      <trkpt lat="48.43342" lon="2.62051">
        <ele>128</ele>
        <time>2011-10-02T09:24:17Z</time>
      </trkpt>
      <trkpt lat="48.43341" lon="2.62051">
        <ele>128</ele>
        <time>2011-10-02T09:24:22Z</time>
      </trkpt>
      <trkpt lat="48.43341" lon="2.6205">
        <ele>128</ele>
        <time>2011-10-02T09:24:28Z</time>
      </trkpt>
      <trkpt lat="48.43337" lon="2.62054">
        <ele>128</ele>
        <time>2011-10-02T09:24:32Z</time>
      </trkpt>
      <trkpt lat="48.43333" lon="2.6207">
        <ele>133</ele>
        <time>2011-10-02T09:24:37Z</time>
      </trkpt>
      <trkpt lat="48.43332" lon="2.62086">
        <ele>132</ele>
        <time>2011-10-02T09:24:42Z</time>
      </trkpt>
      <trkpt lat="48.43329" lon="2.62092">
        <ele>133</ele>
        <time>2011-10-02T09:24:46Z</time>
      </trkpt>
      <trkpt lat="48.43328" lon="2.62091">
        <ele>133</ele>
        <time>2011-10-02T09:24:53Z</time>
      </trkpt>
      <trkpt lat="48.43327" lon="2.62088">
        <ele>133</ele>
        <time>2011-10-02T09:24:56Z</time>
      </trkpt>
      <trkpt lat="48.4333" lon="2.62074">
        <ele>133</ele>
        <time>2011-10-02T09:25:02Z</time>
      </trkpt>
      <trkpt lat="48.43328" lon="2.62069">
        <ele>134</ele>
        <time>2011-10-02T09:25:04Z</time>
      </trkpt>
      <trkpt lat="48.43312" lon="2.62051">
        <ele>135</ele>
        <time>2011-10-02T09:25:12Z</time>
      </trkpt>
      <trkpt lat="48.43301" lon="2.6204">
        <ele>135</ele>
        <time>2011-10-02T09:25:16Z</time>
      </trkpt>
      <trkpt lat="48.43288" lon="2.62042">
        <ele>136</ele>
        <time>2011-10-02T09:25:20Z</time>
      </trkpt>
      <trkpt lat="48.43284" lon="2.62047">
        <ele>136</ele>
        <time>2011-10-02T09:25:22Z</time>
      </trkpt>
      <trkpt lat="48.43282" lon="2.62063">
        <ele>136</ele>
        <time>2011-10-02T09:25:26Z</time>
      </trkpt>
      <trkpt lat="48.43277" lon="2.62093">
        <ele>135</ele>
        <time>2011-10-02T09:25:33Z</time>
      </trkpt>
      <trkpt lat="48.43272" lon="2.62119">
        <ele>135</ele>
        <time>2011-10-02T09:25:38Z</time>
      </trkpt>
      <trkpt lat="48.43266" lon="2.62159">
        <ele>136</ele>
        <time>2011-10-02T09:25:44Z</time>
      </trkpt>
      <trkpt lat="48.43262" lon="2.62184">
        <ele>134</ele>
        <time>2011-10-02T09:25:48Z</time>
      </trkpt>
      <trkpt lat="48.43257" lon="2.62222">
        <ele>132</ele>
        <time>2011-10-02T09:25:54Z</time>
      </trkpt>
      <trkpt lat="48.43248" lon="2.6227">
        <ele>134</ele>
        <time>2011-10-02T09:25:59Z</time>
      </trkpt>
      <trkpt lat="48.43237" lon="2.62339">
        <ele>132</ele>
        <time>2011-10-02T09:26:05Z</time>
      </trkpt>
      <trkpt lat="48.43231" lon="2.62364">
        <ele>133</ele>
        <time>2011-10-02T09:26:09Z</time>
      </trkpt>
      <trkpt lat="48.43225" lon="2.62371">
        <ele>134</ele>
        <time>2011-10-02T09:26:12Z</time>
      </trkpt>
      <trkpt lat="48.43215" lon="2.62377">
        <ele>134</ele>
        <time>2011-10-02T09:26:17Z</time>
      </trkpt>
      <trkpt lat="48.43207" lon="2.62382">
        <ele>135</ele>
        <time>2011-10-02T09:26:22Z</time>
      </trkpt>
      <trkpt lat="48.43199" lon="2.6239">
        <ele>135</ele>
        <time>2011-10-02T09:26:29Z</time>
      </trkpt>
      <trkpt lat="48.4319" lon="2.62399">
        <ele>136</ele>
        <time>2011-10-02T09:26:35Z</time>
      </trkpt>
      <trkpt lat="48.43178" lon="2.6241">
        <ele>137</ele>
        <time>2011-10-02T09:26:42Z</time>
      </trkpt>
      <trkpt lat="48.43169" lon="2.62421">
        <ele>138</ele>
        <time>2011-10-02T09:26:49Z</time>
      </trkpt>
      <trkpt lat="48.43158" lon="2.62436">
        <ele>141</ele>
        <time>2011-10-02T09:26:57Z</time>
      </trkpt>
      <trkpt lat="48.43148" lon="2.62448">
        <ele>141</ele>
        <time>2011-10-02T09:27:03Z</time>
      </trkpt>
      <trkpt lat="48.43133" lon="2.62471">
        <ele>142</ele>
        <time>2011-10-02T09:27:11Z</time>
      </trkpt>
      <trkpt lat="48.43122" lon="2.62488">
        <ele>142</ele>
        <time>2011-10-02T09:27:17Z</time>
      </trkpt>
      <trkpt lat="48.43106" lon="2.62509">
        <ele>141</ele>
        <time>2011-10-02T09:27:25Z</time>
      </trkpt>
      <trkpt lat="48.43096" lon="2.62524">
        <ele>141</ele>
        <time>2011-10-02T09:27:31Z</time>
      </trkpt>
      <trkpt lat="48.43088" lon="2.62535">
        <ele>141</ele>
        <time>2011-10-02T09:27:36Z</time>
      </trkpt>
      <trkpt lat="48.4308" lon="2.62547">
        <ele>143</ele>
        <time>2011-10-02T09:27:41Z</time>
      </trkpt>
      <trkpt lat="48.43071" lon="2.62561">
        <ele>142</ele>
        <time>2011-10-02T09:27:46Z</time>
      </trkpt>
      <trkpt lat="48.43062" lon="2.62575">
        <ele>142</ele>
        <time>2011-10-02T09:27:51Z</time>
      </trkpt>
      <trkpt lat="48.43049" lon="2.62593">
        <ele>142</ele>
        <time>2011-10-02T09:27:58Z</time>
      </trkpt>
      <trkpt lat="48.43034" lon="2.62614">
        <ele>142</ele>
        <time>2011-10-02T09:28:05Z</time>
      </trkpt>
      <trkpt lat="48.43024" lon="2.6263">
        <ele>142</ele>
        <time>2011-10-02T09:28:10Z</time>
      </trkpt>
      <trkpt lat="48.43006" lon="2.62655">
        <ele>143</ele>
        <time>2011-10-02T09:28:18Z</time>
      </trkpt>
      <trkpt lat="48.42991" lon="2.62676">
        <ele>145</ele>
        <time>2011-10-02T09:28:25Z</time>
      </trkpt>
      <trkpt lat="48.42977" lon="2.62697">
        <ele>145</ele>
        <time>2011-10-02T09:28:31Z</time>
      </trkpt>
      <trkpt lat="48.42963" lon="2.62717">
        <ele>145</ele>
        <time>2011-10-02T09:28:36Z</time>
      </trkpt>
      <trkpt lat="48.4295" lon="2.62739">
        <ele>146</ele>
        <time>2011-10-02T09:28:41Z</time>
      </trkpt>
      <trkpt lat="48.42923" lon="2.62777">
        <ele>146</ele>
        <time>2011-10-02T09:28:50Z</time>
      </trkpt>
      <trkpt lat="48.42901" lon="2.62808">
        <ele>144</ele>
        <time>2011-10-02T09:28:57Z</time>
      </trkpt>
      <trkpt lat="48.42886" lon="2.62828">
        <ele>144</ele>
        <time>2011-10-02T09:29:02Z</time>
      </trkpt>
      <trkpt lat="48.42865" lon="2.62856">
        <ele>143</ele>
        <time>2011-10-02T09:29:09Z</time>
      </trkpt>
      <trkpt lat="48.4285" lon="2.62877">
        <ele>143</ele>
        <time>2011-10-02T09:29:14Z</time>
      </trkpt>
      <trkpt lat="48.42832" lon="2.62904">
        <ele>141</ele>
        <time>2011-10-02T09:29:20Z</time>
      </trkpt>
      <trkpt lat="48.42821" lon="2.62921">
        <ele>142</ele>
        <time>2011-10-02T09:29:24Z</time>
      </trkpt>
      <trkpt lat="48.42807" lon="2.62943">
        <ele>141</ele>
        <time>2011-10-02T09:29:29Z</time>
      </trkpt>
      <trkpt lat="48.42794" lon="2.62956">
        <ele>141</ele>
        <time>2011-10-02T09:29:33Z</time>
      </trkpt>
      <trkpt lat="48.42775" lon="2.62966">
        <ele>141</ele>
        <time>2011-10-02T09:29:39Z</time>
      </trkpt>
      <trkpt lat="48.42753" lon="2.6297">
        <ele>141</ele>
        <time>2011-10-02T09:29:45Z</time>
      </trkpt>
      <trkpt lat="48.42731" lon="2.62976">
        <ele>140</ele>
        <time>2011-10-02T09:29:51Z</time>
      </trkpt>
      <trkpt lat="48.4271" lon="2.6298">
        <ele>139</ele>
        <time>2011-10-02T09:29:56Z</time>
      </trkpt>
      <trkpt lat="48.42688" lon="2.62984">
        <ele>139</ele>
        <time>2011-10-02T09:30:01Z</time>
      </trkpt>
      <trkpt lat="48.42659" lon="2.6299">
        <ele>138</ele>
        <time>2011-10-02T09:30:08Z</time>
      </trkpt>
      <trkpt lat="48.42634" lon="2.62994">
        <ele>137</ele>
        <time>2011-10-02T09:30:14Z</time>
      </trkpt>
      <trkpt lat="48.42607" lon="2.63">
        <ele>137</ele>
        <time>2011-10-02T09:30:20Z</time>
      </trkpt>
      <trkpt lat="48.42572" lon="2.63008">
        <ele>135</ele>
        <time>2011-10-02T09:30:28Z</time>
      </trkpt>
      <trkpt lat="48.42546" lon="2.63013">
        <ele>134</ele>
        <time>2011-10-02T09:30:34Z</time>
      </trkpt>
      <trkpt lat="48.42523" lon="2.63017">
        <ele>133</ele>
        <time>2011-10-02T09:30:39Z</time>
      </trkpt>
      <trkpt lat="48.42498" lon="2.63021">
        <ele>129</ele>
        <time>2011-10-02T09:30:43Z</time>
      </trkpt>
      <trkpt lat="48.42482" lon="2.63025">
        <ele>128</ele>
        <time>2011-10-02T09:30:45Z</time>
      </trkpt>
      <trkpt lat="48.42439" lon="2.63029">
        <ele>125</ele>
        <time>2011-10-02T09:30:51Z</time>
      </trkpt>
      <trkpt lat="48.42401" lon="2.63038">
        <ele>117</ele>
        <time>2011-10-02T09:30:55Z</time>
      </trkpt>
      <trkpt lat="48.4238" lon="2.63044">
        <ele>116</ele>
        <time>2011-10-02T09:30:57Z</time>
      </trkpt>
      <trkpt lat="48.42316" lon="2.63055">
        <ele>110</ele>
        <time>2011-10-02T09:31:03Z</time>
      </trkpt>
      <trkpt lat="48.42297" lon="2.6306">
        <ele>109</ele>
        <time>2011-10-02T09:31:05Z</time>
      </trkpt>
      <trkpt lat="48.42243" lon="2.63067">
        <ele>107</ele>
        <time>2011-10-02T09:31:11Z</time>
      </trkpt>
      <trkpt lat="48.42217" lon="2.63072">
        <ele>106</ele>
        <time>2011-10-02T09:31:15Z</time>
      </trkpt>
      <trkpt lat="48.42211" lon="2.63071">
        <ele>106</ele>
        <time>2011-10-02T09:31:18Z</time>
      </trkpt>
      <trkpt lat="48.42206" lon="2.63074">
        <ele>107</ele>
        <time>2011-10-02T09:31:22Z</time>
      </trkpt>
      <trkpt lat="48.42209" lon="2.63074">
        <ele>106</ele>
        <time>2011-10-02T09:31:28Z</time>
      </trkpt>
      <trkpt lat="48.42223" lon="2.63071">
        <ele>106</ele>
        <time>2011-10-02T09:31:34Z</time>
      </trkpt>
      <trkpt lat="48.42228" lon="2.63068">
        <ele>106</ele>
        <time>2011-10-02T09:31:37Z</time>
      </trkpt>
      <trkpt lat="48.42225" lon="2.63057">
        <ele>106</ele>
        <time>2011-10-02T09:31:42Z</time>
      </trkpt>
      <trkpt lat="48.42208" lon="2.63045">
        <ele>106</ele>
        <time>2011-10-02T09:31:49Z</time>
      </trkpt>
      <trkpt lat="48.42187" lon="2.63029">
        <ele>106</ele>
        <time>2011-10-02T09:31:56Z</time>
      </trkpt>
      <trkpt lat="48.42157" lon="2.63006">
        <ele>107</ele>
        <time>2011-10-02T09:32:05Z</time>
      </trkpt>
      <trkpt lat="48.42135" lon="2.62989">
        <ele>105</ele>
        <time>2011-10-02T09:32:12Z</time>
      </trkpt>
      <trkpt lat="48.42109" lon="2.62967">
        <ele>105</ele>
        <time>2011-10-02T09:32:21Z</time>
      </trkpt>
      <trkpt lat="48.42087" lon="2.6295">
        <ele>105</ele>
        <time>2011-10-02T09:32:29Z</time>
      </trkpt>
      <trkpt lat="48.42074" lon="2.6294">
        <ele>108</ele>
        <time>2011-10-02T09:32:34Z</time>
      </trkpt>
      <trkpt lat="48.42055" lon="2.62926">
        <ele>109</ele>
        <time>2011-10-02T09:32:41Z</time>
      </trkpt>
      <trkpt lat="48.42039" lon="2.62912">
        <ele>109</ele>
        <time>2011-10-02T09:32:48Z</time>
      </trkpt>
      <trkpt lat="48.42026" lon="2.62901">
        <ele>111</ele>
        <time>2011-10-02T09:32:54Z</time>
      </trkpt>
      <trkpt lat="48.42011" lon="2.6289">
        <ele>111</ele>
        <time>2011-10-02T09:33:01Z</time>
      </trkpt>
      <trkpt lat="48.41998" lon="2.62881">
        <ele>119</ele>
        <time>2011-10-02T09:33:07Z</time>
      </trkpt>
      <trkpt lat="48.41985" lon="2.62872">
        <ele>119</ele>
        <time>2011-10-02T09:33:14Z</time>
      </trkpt>
      <trkpt lat="48.41973" lon="2.6286">
        <ele>120</ele>
        <time>2011-10-02T09:33:22Z</time>
      </trkpt>
      <trkpt lat="48.41961" lon="2.62857">
        <ele>121</ele>
        <time>2011-10-02T09:33:28Z</time>
      </trkpt>
      <trkpt lat="48.41956" lon="2.62866">
        <ele>122</ele>
        <time>2011-10-02T09:33:33Z</time>
      </trkpt>
      <trkpt lat="48.41951" lon="2.62879">
        <ele>122</ele>
        <time>2011-10-02T09:33:39Z</time>
      </trkpt>
      <trkpt lat="48.41945" lon="2.62891">
        <ele>123</ele>
        <time>2011-10-02T09:33:45Z</time>
      </trkpt>
      <trkpt lat="48.41932" lon="2.62906">
        <ele>126</ele>
        <time>2011-10-02T09:33:55Z</time>
      </trkpt>
      <trkpt lat="48.41923" lon="2.62916">
        <ele>128</ele>
        <time>2011-10-02T09:34:03Z</time>
      </trkpt>
      <trkpt lat="48.41911" lon="2.62919">
        <ele>131</ele>
        <time>2011-10-02T09:34:11Z</time>
      </trkpt>
      <trkpt lat="48.419" lon="2.62911">
        <ele>132</ele>
        <time>2011-10-02T09:34:19Z</time>
      </trkpt>
      <trkpt lat="48.4189" lon="2.62898">
        <ele>132</ele>
        <time>2011-10-02T09:34:27Z</time>
      </trkpt>
      <trkpt lat="48.41882" lon="2.62887">
        <ele>133</ele>
        <time>2011-10-02T09:34:33Z</time>
      </trkpt>
      <trkpt lat="48.41869" lon="2.62877">
        <ele>134</ele>
        <time>2011-10-02T09:34:41Z</time>
      </trkpt>
      <trkpt lat="48.41854" lon="2.62871">
        <ele>134</ele>
        <time>2011-10-02T09:34:50Z</time>
      </trkpt>
      <trkpt lat="48.41839" lon="2.62865">
        <ele>135</ele>
        <time>2011-10-02T09:34:57Z</time>
      </trkpt>
      <trkpt lat="48.41823" lon="2.62858">
        <ele>137</ele>
        <time>2011-10-02T09:35:04Z</time>
      </trkpt>
      <trkpt lat="48.41811" lon="2.62851">
        <ele>137</ele>
        <time>2011-10-02T09:35:10Z</time>
      </trkpt>
      <trkpt lat="48.41794" lon="2.62844">
        <ele>137</ele>
        <time>2011-10-02T09:35:17Z</time>
      </trkpt>
      <trkpt lat="48.41776" lon="2.62835">
        <ele>138</ele>
        <time>2011-10-02T09:35:24Z</time>
      </trkpt>
      <trkpt lat="48.4176" lon="2.6283">
        <ele>138</ele>
        <time>2011-10-02T09:35:30Z</time>
      </trkpt>
      <trkpt lat="48.41741" lon="2.62822">
        <ele>137</ele>
        <time>2011-10-02T09:35:37Z</time>
      </trkpt>
      <trkpt lat="48.4172" lon="2.62814">
        <ele>135</ele>
        <time>2011-10-02T09:35:43Z</time>
      </trkpt>
      <trkpt lat="48.41705" lon="2.62808">
        <ele>135</ele>
        <time>2011-10-02T09:35:47Z</time>
      </trkpt>
      <trkpt lat="48.41697" lon="2.62805">
        <ele>134</ele>
        <time>2011-10-02T09:35:49Z</time>
      </trkpt>
      <trkpt lat="48.4166" lon="2.62792">
        <ele>128</ele>
        <time>2011-10-02T09:35:56Z</time>
      </trkpt>
      <trkpt lat="48.41654" lon="2.62789">
        <ele>128</ele>
        <time>2011-10-02T09:35:57Z</time>
      </trkpt>
      <trkpt lat="48.41632" lon="2.62771">
        <ele>127</ele>
        <time>2011-10-02T09:36:01Z</time>
      </trkpt>
      <trkpt lat="48.41624" lon="2.62759">
        <ele>126</ele>
        <time>2011-10-02T09:36:03Z</time>
      </trkpt>
      <trkpt lat="48.41615" lon="2.62747">
        <ele>123</ele>
        <time>2011-10-02T09:36:05Z</time>
      </trkpt>
      <trkpt lat="48.41595" lon="2.62717">
        <ele>122</ele>
        <time>2011-10-02T09:36:09Z</time>
      </trkpt>
      <trkpt lat="48.41586" lon="2.62696">
        <ele>121</ele>
        <time>2011-10-02T09:36:11Z</time>
      </trkpt>
      <trkpt lat="48.41576" lon="2.62656">
        <ele>115</ele>
        <time>2011-10-02T09:36:14Z</time>
      </trkpt>
      <trkpt lat="48.41582" lon="2.62617">
        <ele>113</ele>
        <time>2011-10-02T09:36:18Z</time>
      </trkpt>
      <trkpt lat="48.41593" lon="2.62598">
        <ele>113</ele>
        <time>2011-10-02T09:36:21Z</time>
      </trkpt>
      <trkpt lat="48.41593" lon="2.62561">
        <ele>109</ele>
        <time>2011-10-02T09:36:25Z</time>
      </trkpt>
      <trkpt lat="48.41579" lon="2.62518">
        <ele>107</ele>
        <time>2011-10-02T09:36:31Z</time>
      </trkpt>
      <trkpt lat="48.41577" lon="2.62513">
        <ele>107</ele>
        <time>2011-10-02T09:36:34Z</time>
      </trkpt>
      <trkpt lat="48.41573" lon="2.62512">
        <ele>107</ele>
        <time>2011-10-02T09:37:00Z</time>
      </trkpt>
      <trkpt lat="48.41568" lon="2.62494">
        <ele>107</ele>
        <time>2011-10-02T09:37:04Z</time>
      </trkpt>
      <trkpt lat="48.41563" lon="2.62482">
        <ele>107</ele>
        <time>2011-10-02T09:37:08Z</time>
      </trkpt>
      <trkpt lat="48.41553" lon="2.62473">
        <ele>108</ele>
        <time>2011-10-02T09:37:15Z</time>
      </trkpt>
      <trkpt lat="48.41542" lon="2.62472">
        <ele>108</ele>
        <time>2011-10-02T09:37:22Z</time>
      </trkpt>
      <trkpt lat="48.4153" lon="2.62468">
        <ele>109</ele>
        <time>2011-10-02T09:37:28Z</time>
      </trkpt>
      <trkpt lat="48.41518" lon="2.6247">
        <ele>109</ele>
        <time>2011-10-02T09:37:35Z</time>
      </trkpt>
      <trkpt lat="48.41499" lon="2.62478">
        <ele>115</ele>
        <time>2011-10-02T09:37:45Z</time>
      </trkpt>
      <trkpt lat="48.41487" lon="2.62484">
        <ele>115</ele>
        <time>2011-10-02T09:37:51Z</time>
      </trkpt>
      <trkpt lat="48.41471" lon="2.62493">
        <ele>116</ele>
        <time>2011-10-02T09:38:00Z</time>
      </trkpt>
      <trkpt lat="48.41457" lon="2.62503">
        <ele>117</ele>
        <time>2011-10-02T09:38:08Z</time>
      </trkpt>
      <trkpt lat="48.41442" lon="2.62513">
        <ele>118</ele>
        <time>2011-10-02T09:38:16Z</time>
      </trkpt>
      <trkpt lat="48.41426" lon="2.62524">
        <ele>119</ele>
        <time>2011-10-02T09:38:25Z</time>
      </trkpt>
      <trkpt lat="48.41416" lon="2.62532">
        <ele>125</ele>
        <time>2011-10-02T09:38:31Z</time>
      </trkpt>
      <trkpt lat="48.41403" lon="2.62543">
        <ele>125</ele>
        <time>2011-10-02T09:38:38Z</time>
      </trkpt>
      <trkpt lat="48.41389" lon="2.62555">
        <ele>125</ele>
        <time>2011-10-02T09:38:46Z</time>
      </trkpt>
      <trkpt lat="48.4138" lon="2.62563">
        <ele>126</ele>
        <time>2011-10-02T09:38:51Z</time>
      </trkpt>
      <trkpt lat="48.41367" lon="2.62575">
        <ele>127</ele>
        <time>2011-10-02T09:38:58Z</time>
      </trkpt>
      <trkpt lat="48.41358" lon="2.62585">
        <ele>127</ele>
        <time>2011-10-02T09:39:03Z</time>
      </trkpt>
      <trkpt lat="48.41348" lon="2.62595">
        <ele>128</ele>
        <time>2011-10-02T09:39:09Z</time>
      </trkpt>
      <trkpt lat="48.4134" lon="2.62607">
        <ele>127</ele>
        <time>2011-10-02T09:39:14Z</time>
      </trkpt>
      <trkpt lat="48.41331" lon="2.62618">
        <ele>131</ele>
        <time>2011-10-02T09:39:19Z</time>
      </trkpt>
      <trkpt lat="48.41323" lon="2.62629">
        <ele>131</ele>
        <time>2011-10-02T09:39:24Z</time>
      </trkpt>
      <trkpt lat="48.41311" lon="2.62644">
        <ele>131</ele>
        <time>2011-10-02T09:39:31Z</time>
      </trkpt>
      <trkpt lat="48.41302" lon="2.62658">
        <ele>131</ele>
        <time>2011-10-02T09:39:37Z</time>
      </trkpt>
      <trkpt lat="48.41288" lon="2.6268">
        <ele>132</ele>
        <time>2011-10-02T09:39:45Z</time>
      </trkpt>
      <trkpt lat="48.41277" lon="2.62694">
        <ele>133</ele>
        <time>2011-10-02T09:39:52Z</time>
      </trkpt>
      <trkpt lat="48.41264" lon="2.62714">
        <ele>133</ele>
        <time>2011-10-02T09:39:59Z</time>
      </trkpt>
      <trkpt lat="48.41254" lon="2.62729">
        <ele>133</ele>
        <time>2011-10-02T09:40:05Z</time>
      </trkpt>
      <trkpt lat="48.41239" lon="2.62748">
        <ele>134</ele>
        <time>2011-10-02T09:40:12Z</time>
      </trkpt>
      <trkpt lat="48.41226" lon="2.62767">
        <ele>134</ele>
        <time>2011-10-02T09:40:18Z</time>
      </trkpt>
      <trkpt lat="48.41212" lon="2.62788">
        <ele>134</ele>
        <time>2011-10-02T09:40:25Z</time>
      </trkpt>
      <trkpt lat="48.41196" lon="2.6281">
        <ele>134</ele>
        <time>2011-10-02T09:40:32Z</time>
      </trkpt>
      <trkpt lat="48.41179" lon="2.62834">
        <ele>135</ele>
        <time>2011-10-02T09:40:39Z</time>
      </trkpt>
      <trkpt lat="48.41168" lon="2.62849">
        <ele>135</ele>
        <time>2011-10-02T09:40:44Z</time>
      </trkpt>
      <trkpt lat="48.41155" lon="2.62869">
        <ele>135</ele>
        <time>2011-10-02T09:40:51Z</time>
      </trkpt>
      <trkpt lat="48.41144" lon="2.62887">
        <ele>135</ele>
        <time>2011-10-02T09:40:56Z</time>
      </trkpt>
      <trkpt lat="48.41129" lon="2.62908">
        <ele>135</ele>
        <time>2011-10-02T09:41:02Z</time>
      </trkpt>
      <trkpt lat="48.41108" lon="2.62936">
        <ele>136</ele>
        <time>2011-10-02T09:41:10Z</time>
      </trkpt>
      <trkpt lat="48.41093" lon="2.62959">
        <ele>137</ele>
        <time>2011-10-02T09:41:16Z</time>
      </trkpt>
      <trkpt lat="48.41079" lon="2.62979">
        <ele>137</ele>
        <time>2011-10-02T09:41:22Z</time>
      </trkpt>
      <trkpt lat="48.41066" lon="2.62997">
        <ele>137</ele>
        <time>2011-10-02T09:41:27Z</time>
      </trkpt>
      <trkpt lat="48.41049" lon="2.6302">
        <ele>138</ele>
        <time>2011-10-02T09:41:33Z</time>
      </trkpt>
      <trkpt lat="48.41035" lon="2.63041">
        <ele>138</ele>
        <time>2011-10-02T09:41:39Z</time>
      </trkpt>
      <trkpt lat="48.41021" lon="2.63062">
        <ele>138</ele>
        <time>2011-10-02T09:41:45Z</time>
      </trkpt>
      <trkpt lat="48.41008" lon="2.63081">
        <ele>138</ele>
        <time>2011-10-02T09:41:50Z</time>
      </trkpt>
      <trkpt lat="48.40996" lon="2.63099">
        <ele>137</ele>
        <time>2011-10-02T09:41:55Z</time>
      </trkpt>
      <trkpt lat="48.40982" lon="2.63114">
        <ele>137</ele>
        <time>2011-10-02T09:42:00Z</time>
      </trkpt>
      <trkpt lat="48.40969" lon="2.63136">
        <ele>137</ele>
        <time>2011-10-02T09:42:06Z</time>
      </trkpt>
      <trkpt lat="48.40967" lon="2.63149">
        <ele>137</ele>
        <time>2011-10-02T09:42:10Z</time>
      </trkpt>
      <trkpt lat="48.40975" lon="2.63178">
        <ele>138</ele>
        <time>2011-10-02T09:42:17Z</time>
      </trkpt>
      <trkpt lat="48.4098" lon="2.63201">
        <ele>138</ele>
        <time>2011-10-02T09:42:22Z</time>
      </trkpt>
      <trkpt lat="48.40972" lon="2.63233">
        <ele>137</ele>
        <time>2011-10-02T09:42:28Z</time>
      </trkpt>
      <trkpt lat="48.40961" lon="2.63277">
        <ele>137</ele>
        <time>2011-10-02T09:42:37Z</time>
      </trkpt>
      <trkpt lat="48.40951" lon="2.63308">
        <ele>137</ele>
        <time>2011-10-02T09:42:44Z</time>
      </trkpt>
      <trkpt lat="48.40947" lon="2.63328">
        <ele>137</ele>
        <time>2011-10-02T09:42:49Z</time>
      </trkpt>
      <trkpt lat="48.40946" lon="2.63357">
        <ele>138</ele>
        <time>2011-10-02T09:42:55Z</time>
      </trkpt>
      <trkpt lat="48.40941" lon="2.63392">
        <ele>139</ele>
        <time>2011-10-02T09:43:02Z</time>
      </trkpt>
      <trkpt lat="48.40934" lon="2.63432">
        <ele>139</ele>
        <time>2011-10-02T09:43:10Z</time>
      </trkpt>
      <trkpt lat="48.40925" lon="2.63478">
        <ele>139</ele>
        <time>2011-10-02T09:43:19Z</time>
      </trkpt>
      <trkpt lat="48.40921" lon="2.63509">
        <ele>139</ele>
        <time>2011-10-02T09:43:25Z</time>
      </trkpt>
      <trkpt lat="48.40921" lon="2.63513">
        <ele>139</ele>
        <time>2011-10-02T09:43:26Z</time>
      </trkpt>
      <trkpt lat="48.40913" lon="2.63518">
        <ele>139</ele>
        <time>2011-10-02T09:43:30Z</time>
      </trkpt>
      <trkpt lat="48.40902" lon="2.63514">
        <ele>139</ele>
        <time>2011-10-02T09:43:34Z</time>
      </trkpt>
      <trkpt lat="48.40898" lon="2.63525">
        <ele>139</ele>
        <time>2011-10-02T09:43:37Z</time>
      </trkpt>
      <trkpt lat="48.40889" lon="2.63567">
        <ele>139</ele>
        <time>2011-10-02T09:43:45Z</time>
      </trkpt>
      <trkpt lat="48.40884" lon="2.63582">
        <ele>139</ele>
        <time>2011-10-02T09:43:48Z</time>
      </trkpt>
      <trkpt lat="48.40871" lon="2.63584">
        <ele>139</ele>
        <time>2011-10-02T09:43:52Z</time>
      </trkpt>
      <trkpt lat="48.40858" lon="2.63593">
        <ele>139</ele>
        <time>2011-10-02T09:43:57Z</time>
      </trkpt>
      <trkpt lat="48.40847" lon="2.63614">
        <ele>138</ele>
        <time>2011-10-02T09:44:02Z</time>
      </trkpt>
      <trkpt lat="48.40841" lon="2.63646">
        <ele>137</ele>
        <time>2011-10-02T09:44:08Z</time>
      </trkpt>
      <trkpt lat="48.40835" lon="2.63679">
        <ele>136</ele>
        <time>2011-10-02T09:44:15Z</time>
      </trkpt>
      <trkpt lat="48.40829" lon="2.63706">
        <ele>135</ele>
        <time>2011-10-02T09:44:21Z</time>
      </trkpt>
      <trkpt lat="48.40822" lon="2.63729">
        <ele>136</ele>
        <time>2011-10-02T09:44:26Z</time>
      </trkpt>
      <trkpt lat="48.40819" lon="2.63741">
        <ele>136</ele>
        <time>2011-10-02T09:44:28Z</time>
      </trkpt>
      <trkpt lat="48.40813" lon="2.63762">
        <ele>136</ele>
        <time>2011-10-02T09:44:32Z</time>
      </trkpt>
      <trkpt lat="48.40807" lon="2.63762">
        <ele>136</ele>
        <time>2011-10-02T09:44:35Z</time>
      </trkpt>
      <trkpt lat="48.40795" lon="2.63759">
        <ele>136</ele>
        <time>2011-10-02T09:44:41Z</time>
      </trkpt>
      <trkpt lat="48.40793" lon="2.63759">
        <ele>136</ele>
        <time>2011-10-02T09:44:46Z</time>
      </trkpt>
      <trkpt lat="48.40793" lon="2.6376">
        <ele>136</ele>
        <time>2011-10-02T09:44:50Z</time>
      </trkpt>
      <trkpt lat="48.40792" lon="2.63762">
        <ele>136</ele>
        <time>2011-10-02T09:44:55Z</time>
      </trkpt>
      <trkpt lat="48.40796" lon="2.6376">
        <ele>136</ele>
        <time>2011-10-02T09:45:02Z</time>
      </trkpt>
      <trkpt lat="48.40806" lon="2.63759">
        <ele>136</ele>
        <time>2011-10-02T09:45:06Z</time>
      </trkpt>
      <trkpt lat="48.40811" lon="2.63769">
        <ele>136</ele>
        <time>2011-10-02T09:45:10Z</time>
      </trkpt>
      <trkpt lat="48.40811" lon="2.63796">
        <ele>136</ele>
        <time>2011-10-02T09:45:17Z</time>
      </trkpt>
      <trkpt lat="48.40809" lon="2.63802">
        <ele>137</ele>
        <time>2011-10-02T09:45:21Z</time>
      </trkpt>
      <trkpt lat="48.40807" lon="2.63806">
        <ele>137</ele>
        <time>2011-10-02T09:45:26Z</time>
      </trkpt>
      <trkpt lat="48.40801" lon="2.63818">
        <ele>137</ele>
        <time>2011-10-02T09:45:32Z</time>
      </trkpt>
      <trkpt lat="48.40783" lon="2.63826">
        <ele>136</ele>
        <time>2011-10-02T09:45:38Z</time>
      </trkpt>
      <trkpt lat="48.40754" lon="2.63822">
        <ele>136</ele>
        <time>2011-10-02T09:45:46Z</time>
      </trkpt>
      <trkpt lat="48.40723" lon="2.63823">
        <ele>135</ele>
        <time>2011-10-02T09:45:53Z</time>
      </trkpt>
      <trkpt lat="48.40683" lon="2.63836">
        <ele>134</ele>
        <time>2011-10-02T09:46:01Z</time>
      </trkpt>
      <trkpt lat="48.40647" lon="2.63858">
        <ele>134</ele>
        <time>2011-10-02T09:46:09Z</time>
      </trkpt>
      <trkpt lat="48.40642" lon="2.63862">
        <ele>134</ele>
        <time>2011-10-02T09:46:10Z</time>
      </trkpt>
      <trkpt lat="48.40623" lon="2.63873">
        <ele>134</ele>
        <time>2011-10-02T09:46:14Z</time>
      </trkpt>
      <trkpt lat="48.40603" lon="2.6389">
        <ele>134</ele>
        <time>2011-10-02T09:46:19Z</time>
      </trkpt>
      <trkpt lat="48.40594" lon="2.63905">
        <ele>134</ele>
        <time>2011-10-02T09:46:22Z</time>
      </trkpt>
      <trkpt lat="48.40595" lon="2.63932">
        <ele>134</ele>
        <time>2011-10-02T09:46:27Z</time>
      </trkpt>
      <trkpt lat="48.40603" lon="2.63969">
        <ele>134</ele>
        <time>2011-10-02T09:46:34Z</time>
      </trkpt>
      <trkpt lat="48.40611" lon="2.64004">
        <ele>135</ele>
        <time>2011-10-02T09:46:41Z</time>
      </trkpt>
      <trkpt lat="48.40616" lon="2.64023">
        <ele>135</ele>
        <time>2011-10-02T09:46:45Z</time>
      </trkpt>
      <trkpt lat="48.40624" lon="2.64045">
        <ele>135</ele>
        <time>2011-10-02T09:46:50Z</time>
      </trkpt>
      <trkpt lat="48.40625" lon="2.64061">
        <ele>135</ele>
        <time>2011-10-02T09:46:53Z</time>
      </trkpt>
      <trkpt lat="48.4063" lon="2.6408">
        <ele>135</ele>
        <time>2011-10-02T09:46:57Z</time>
      </trkpt>
      <trkpt lat="48.40635" lon="2.64106">
        <ele>136</ele>
        <time>2011-10-02T09:47:02Z</time>
      </trkpt>
      <trkpt lat="48.40637" lon="2.64133">
        <ele>136</ele>
        <time>2011-10-02T09:47:07Z</time>
      </trkpt>
      <trkpt lat="48.40641" lon="2.64148">
        <ele>136</ele>
        <time>2011-10-02T09:47:11Z</time>
      </trkpt>
      <trkpt lat="48.40648" lon="2.64166">
        <ele>136</ele>
        <time>2011-10-02T09:47:16Z</time>
      </trkpt>
      <trkpt lat="48.40651" lon="2.64186">
        <ele>136</ele>
        <time>2011-10-02T09:47:21Z</time>
      </trkpt>
      <trkpt lat="48.40652" lon="2.64212">
        <ele>136</ele>
        <time>2011-10-02T09:47:27Z</time>
      </trkpt>
      <trkpt lat="48.4065" lon="2.64242">
        <ele>136</ele>
        <time>2011-10-02T09:47:33Z</time>
      </trkpt>
      <trkpt lat="48.40649" lon="2.64251">
        <ele>135</ele>
        <time>2011-10-02T09:47:35Z</time>
      </trkpt>
      <trkpt lat="48.40641" lon="2.64263">
        <ele>135</ele>
        <time>2011-10-02T09:47:39Z</time>
      </trkpt>
      <trkpt lat="48.40638" lon="2.64265">
        <ele>135</ele>
        <time>2011-10-02T09:47:40Z</time>
      </trkpt>
      <trkpt lat="48.40629" lon="2.6429">
        <ele>135</ele>
        <time>2011-10-02T09:47:46Z</time>
      </trkpt>
      <trkpt lat="48.4063" lon="2.64302">
        <ele>135</ele>
        <time>2011-10-02T09:47:48Z</time>
      </trkpt>
      <trkpt lat="48.40629" lon="2.64321">
        <ele>134</ele>
        <time>2011-10-02T09:47:51Z</time>
      </trkpt>
      <trkpt lat="48.40629" lon="2.64348">
        <ele>133</ele>
        <time>2011-10-02T09:47:55Z</time>
      </trkpt>
      <trkpt lat="48.40627" lon="2.64367">
        <ele>132</ele>
        <time>2011-10-02T09:47:58Z</time>
      </trkpt>
      <trkpt lat="48.40625" lon="2.64399">
        <ele>132</ele>
        <time>2011-10-02T09:48:03Z</time>
      </trkpt>
      <trkpt lat="48.40617" lon="2.64425">
        <ele>130</ele>
        <time>2011-10-02T09:48:07Z</time>
      </trkpt>
      <trkpt lat="48.40613" lon="2.64428">
        <ele>130</ele>
        <time>2011-10-02T09:48:08Z</time>
      </trkpt>
      <trkpt lat="48.40595" lon="2.64458">
        <ele>129</ele>
        <time>2011-10-02T09:48:15Z</time>
      </trkpt>
      <trkpt lat="48.4059" lon="2.64472">
        <ele>129</ele>
        <time>2011-10-02T09:48:20Z</time>
      </trkpt>
      <trkpt lat="48.4059" lon="2.64483">
        <ele>128</ele>
        <time>2011-10-02T09:48:47Z</time>
      </trkpt>
      <trkpt lat="48.40594" lon="2.64506">
        <ele>127</ele>
        <time>2011-10-02T09:48:52Z</time>
      </trkpt>
      <trkpt lat="48.40601" lon="2.64541">
        <ele>127</ele>
        <time>2011-10-02T09:48:59Z</time>
      </trkpt>
      <trkpt lat="48.40606" lon="2.64564">
        <ele>127</ele>
        <time>2011-10-02T09:49:04Z</time>
      </trkpt>
      <trkpt lat="48.4061" lon="2.64583">
        <ele>127</ele>
        <time>2011-10-02T09:49:09Z</time>
      </trkpt>
      <trkpt lat="48.40616" lon="2.64609">
        <ele>126</ele>
        <time>2011-10-02T09:49:14Z</time>
      </trkpt>
      <trkpt lat="48.40612" lon="2.64641">
        <ele>125</ele>
        <time>2011-10-02T09:49:19Z</time>
      </trkpt>
      <trkpt lat="48.40608" lon="2.6466">
        <ele>125</ele>
        <time>2011-10-02T09:49:22Z</time>
      </trkpt>
      <trkpt lat="48.40597" lon="2.64707">
        <ele>123</ele>
        <time>2011-10-02T09:49:29Z</time>
      </trkpt>
      <trkpt lat="48.4059" lon="2.64735">
        <ele>121</ele>
        <time>2011-10-02T09:49:34Z</time>
      </trkpt>
      <trkpt lat="48.4058" lon="2.64776">
        <ele>119</ele>
        <time>2011-10-02T09:49:41Z</time>
      </trkpt>
      <trkpt lat="48.40577" lon="2.64798">
        <ele>119</ele>
        <time>2011-10-02T09:49:46Z</time>
      </trkpt>
      <trkpt lat="48.40577" lon="2.64798">
        <ele>119</ele>
        <time>2011-10-02T09:49:48Z</time>
      </trkpt>
      <trkpt lat="48.40581" lon="2.64795">
        <ele>119</ele>
        <time>2011-10-02T09:49:54Z</time>
      </trkpt>
      <trkpt lat="48.40589" lon="2.64796">
        <ele>119</ele>
        <time>2011-10-02T09:49:59Z</time>
      </trkpt>
      <trkpt lat="48.40594" lon="2.64798">
        <ele>119</ele>
        <time>2011-10-02T09:50:01Z</time>
      </trkpt>
      <trkpt lat="48.40605" lon="2.64805">
        <ele>119</ele>
        <time>2011-10-02T09:50:06Z</time>
      </trkpt>
      <trkpt lat="48.40616" lon="2.64808">
        <ele>120</ele>
        <time>2011-10-02T09:50:10Z</time>
      </trkpt>
      <trkpt lat="48.40634" lon="2.64813">
        <ele>120</ele>
        <time>2011-10-02T09:50:18Z</time>
      </trkpt>
      <trkpt lat="48.40643" lon="2.64823">
        <ele>120</ele>
        <time>2011-10-02T09:50:24Z</time>
      </trkpt>
      <trkpt lat="48.40646" lon="2.64825">
        <ele>120</ele>
        <time>2011-10-02T09:50:29Z</time>
      </trkpt>
      <trkpt lat="48.40653" lon="2.64833">
        <ele>121</ele>
        <time>2011-10-02T09:51:18Z</time>
      </trkpt>
      <trkpt lat="48.40654" lon="2.64849">
        <ele>119</ele>
        <time>2011-10-02T09:51:23Z</time>
      </trkpt>
      <trkpt lat="48.40655" lon="2.6486">
        <ele>119</ele>
        <time>2011-10-02T09:51:26Z</time>
      </trkpt>
      <trkpt lat="48.4066" lon="2.64892">
        <ele>118</ele>
        <time>2011-10-02T09:51:32Z</time>
      </trkpt>
      <trkpt lat="48.40662" lon="2.64931">
        <ele>117</ele>
        <time>2011-10-02T09:51:37Z</time>
      </trkpt>
      <trkpt lat="48.40648" lon="2.64949">
        <ele>116</ele>
        <time>2011-10-02T09:51:43Z</time>
      </trkpt>
      <trkpt lat="48.40635" lon="2.64951">
        <ele>115</ele>
        <time>2011-10-02T09:51:48Z</time>
      </trkpt>
      <trkpt lat="48.40628" lon="2.64949">
        <ele>115</ele>
        <time>2011-10-02T09:51:50Z</time>
      </trkpt>
      <trkpt lat="48.40611" lon="2.64946">
        <ele>115</ele>
        <time>2011-10-02T09:51:55Z</time>
      </trkpt>
      <trkpt lat="48.40598" lon="2.64948">
        <ele>115</ele>
        <time>2011-10-02T09:51:59Z</time>
      </trkpt>
      <trkpt lat="48.40583" lon="2.64945">
        <ele>113</ele>
        <time>2011-10-02T09:52:03Z</time>
      </trkpt>
      <trkpt lat="48.40557" lon="2.64949">
        <ele>113</ele>
        <time>2011-10-02T09:52:10Z</time>
      </trkpt>
      <trkpt lat="48.40537" lon="2.64956">
        <ele>112</ele>
        <time>2011-10-02T09:52:16Z</time>
      </trkpt>
      <trkpt lat="48.40522" lon="2.64966">
        <ele>112</ele>
        <time>2011-10-02T09:52:22Z</time>
      </trkpt>
      <trkpt lat="48.4051" lon="2.6498">
        <ele>111</ele>
        <time>2011-10-02T09:52:27Z</time>
      </trkpt>
      <trkpt lat="48.40496" lon="2.64996">
        <ele>110</ele>
        <time>2011-10-02T09:52:32Z</time>
      </trkpt>
      <trkpt lat="48.40481" lon="2.65013">
        <ele>109</ele>
        <time>2011-10-02T09:52:37Z</time>
      </trkpt>
      <trkpt lat="48.40472" lon="2.65027">
        <ele>108</ele>
        <time>2011-10-02T09:52:40Z</time>
      </trkpt>
      <trkpt lat="48.40454" lon="2.65057">
        <ele>107</ele>
        <time>2011-10-02T09:52:46Z</time>
      </trkpt>
      <trkpt lat="48.40441" lon="2.65082">
        <ele>106</ele>
        <time>2011-10-02T09:52:51Z</time>
      </trkpt>
      <trkpt lat="48.40438" lon="2.65088">
        <ele>105</ele>
        <time>2011-10-02T09:52:52Z</time>
      </trkpt>
      <trkpt lat="48.40431" lon="2.65113">
        <ele>105</ele>
        <time>2011-10-02T09:52:56Z</time>
      </trkpt>
      <trkpt lat="48.4043" lon="2.65126">
        <ele>105</ele>
        <time>2011-10-02T09:52:58Z</time>
      </trkpt>
      <trkpt lat="48.40423" lon="2.65171">
        <ele>102</ele>
        <time>2011-10-02T09:53:05Z</time>
      </trkpt>
      <trkpt lat="48.40416" lon="2.65217">
        <ele>101</ele>
        <time>2011-10-02T09:53:12Z</time>
      </trkpt>
      <trkpt lat="48.40413" lon="2.65246">
        <ele>100</ele>
        <time>2011-10-02T09:53:17Z</time>
      </trkpt>
      <trkpt lat="48.40408" lon="2.65273">
        <ele>100</ele>
        <time>2011-10-02T09:53:21Z</time>
      </trkpt>
      <trkpt lat="48.40403" lon="2.65304">
        <ele>100</ele>
        <time>2011-10-02T09:53:26Z</time>
      </trkpt>
      <trkpt lat="48.40401" lon="2.65326">
        <ele>100</ele>
        <time>2011-10-02T09:53:30Z</time>
      </trkpt>
      <trkpt lat="48.40399" lon="2.65348">
        <ele>99</ele>
        <time>2011-10-02T09:53:33Z</time>
      </trkpt>
      <trkpt lat="48.40395" lon="2.65393">
        <ele>99</ele>
        <time>2011-10-02T09:53:39Z</time>
      </trkpt>
      <trkpt lat="48.4039" lon="2.65422">
        <ele>98</ele>
        <time>2011-10-02T09:53:43Z</time>
      </trkpt>
      <trkpt lat="48.40387" lon="2.65456">
        <ele>98</ele>
        <time>2011-10-02T09:53:47Z</time>
      </trkpt>
      <trkpt lat="48.40379" lon="2.65499">
        <ele>99</ele>
        <time>2011-10-02T09:53:52Z</time>
      </trkpt>
      <trkpt lat="48.40377" lon="2.65516">
        <ele>98</ele>
        <time>2011-10-02T09:53:54Z</time>
      </trkpt>
      <trkpt lat="48.40373" lon="2.65538">
        <ele>98</ele>
        <time>2011-10-02T09:53:57Z</time>
      </trkpt>
      <trkpt lat="48.40377" lon="2.65574">
        <ele>98</ele>
        <time>2011-10-02T09:54:03Z</time>
      </trkpt>
      <trkpt lat="48.40389" lon="2.65603">
        <ele>98</ele>
        <time>2011-10-02T09:54:09Z</time>
      </trkpt>
      <trkpt lat="48.40401" lon="2.65636">
        <ele>97</ele>
        <time>2011-10-02T09:54:15Z</time>
      </trkpt>
      <trkpt lat="48.40417" lon="2.65666">
        <ele>99</ele>
        <time>2011-10-02T09:54:21Z</time>
      </trkpt>
      <trkpt lat="48.40429" lon="2.65686">
        <ele>101</ele>
        <time>2011-10-02T09:54:26Z</time>
      </trkpt>
      <trkpt lat="48.40436" lon="2.65698">
        <ele>101</ele>
        <time>2011-10-02T09:54:29Z</time>
      </trkpt>
      <trkpt lat="48.40456" lon="2.65728">
        <ele>102</ele>
        <time>2011-10-02T09:54:36Z</time>
      </trkpt>
      <trkpt lat="48.40471" lon="2.65743">
        <ele>103</ele>
        <time>2011-10-02T09:54:41Z</time>
      </trkpt>
      <trkpt lat="48.40492" lon="2.65756">
        <ele>103</ele>
        <time>2011-10-02T09:54:48Z</time>
      </trkpt>
      <trkpt lat="48.40502" lon="2.65768">
        <ele>104</ele>
        <time>2011-10-02T09:54:53Z</time>
      </trkpt>
      <trkpt lat="48.40523" lon="2.6579">
        <ele>103</ele>
        <time>2011-10-02T09:55:02Z</time>
      </trkpt>
      <trkpt lat="48.40536" lon="2.65807">
        <ele>103</ele>
        <time>2011-10-02T09:55:09Z</time>
      </trkpt>
      <trkpt lat="48.40557" lon="2.65836">
        <ele>103</ele>
        <time>2011-10-02T09:55:18Z</time>
      </trkpt>
      <trkpt lat="48.40561" lon="2.65854">
        <ele>103</ele>
        <time>2011-10-02T09:55:22Z</time>
      </trkpt>
      <trkpt lat="48.40561" lon="2.65872">
        <ele>103</ele>
        <time>2011-10-02T09:55:26Z</time>
      </trkpt>
      <trkpt lat="48.40563" lon="2.65896">
        <ele>103</ele>
        <time>2011-10-02T09:55:32Z</time>
      </trkpt>
      <trkpt lat="48.40564" lon="2.65915">
        <ele>103</ele>
        <time>2011-10-02T09:55:36Z</time>
      </trkpt>
      <trkpt lat="48.40564" lon="2.65945">
        <ele>103</ele>
        <time>2011-10-02T09:55:43Z</time>
      </trkpt>
      <trkpt lat="48.40562" lon="2.65963">
        <ele>103</ele>
        <time>2011-10-02T09:55:49Z</time>
      </trkpt>
      <trkpt lat="48.4056" lon="2.65986">
        <ele>103</ele>
        <time>2011-10-02T09:55:56Z</time>
      </trkpt>
      <trkpt lat="48.40566" lon="2.66006">
        <ele>104</ele>
        <time>2011-10-02T09:56:02Z</time>
      </trkpt>
      <trkpt lat="48.40571" lon="2.6603">
        <ele>104</ele>
        <time>2011-10-02T09:56:08Z</time>
      </trkpt>
      <trkpt lat="48.40577" lon="2.66044">
        <ele>104</ele>
        <time>2011-10-02T09:56:13Z</time>
      </trkpt>
      <trkpt lat="48.40588" lon="2.66049">
        <ele>106</ele>
        <time>2011-10-02T09:56:18Z</time>
      </trkpt>
      <trkpt lat="48.40597" lon="2.66051">
        <ele>107</ele>
        <time>2011-10-02T09:56:21Z</time>
      </trkpt>
      <trkpt lat="48.406" lon="2.66049">
        <ele>107</ele>
        <time>2011-10-02T09:56:23Z</time>
      </trkpt>
      <trkpt lat="48.40594" lon="2.66049">
        <ele>107</ele>
        <time>2011-10-02T09:56:27Z</time>
      </trkpt>
      <trkpt lat="48.40582" lon="2.66048">
        <ele>104</ele>
        <time>2011-10-02T09:56:31Z</time>
      </trkpt>
      <trkpt lat="48.40571" lon="2.66031">
        <ele>104</ele>
        <time>2011-10-02T09:56:35Z</time>
      </trkpt>
      <trkpt lat="48.40569" lon="2.66018">
        <ele>104</ele>
        <time>2011-10-02T09:56:37Z</time>
      </trkpt>
      <trkpt lat="48.40565" lon="2.65988">
        <ele>103</ele>
        <time>2011-10-02T09:56:43Z</time>
      </trkpt>
      <trkpt lat="48.40564" lon="2.65985">
        <ele>103</ele>
        <time>2011-10-02T09:56:44Z</time>
      </trkpt>
      <trkpt lat="48.4056" lon="2.65985">
        <ele>103</ele>
        <time>2011-10-02T09:56:48Z</time>
      </trkpt>
      <trkpt lat="48.4056" lon="2.65986">
        <ele>103</ele>
        <time>2011-10-02T09:56:49Z</time>
      </trkpt>
      <trkpt lat="48.40554" lon="2.66013">
        <ele>104</ele>
        <time>2011-10-02T09:56:56Z</time>
      </trkpt>
      <trkpt lat="48.40549" lon="2.66039">
        <ele>104</ele>
        <time>2011-10-02T09:57:02Z</time>
      </trkpt>
      <trkpt lat="48.4054" lon="2.66075">
        <ele>104</ele>
        <time>2011-10-02T09:57:10Z</time>
      </trkpt>
      <trkpt lat="48.40537" lon="2.66104">
        <ele>105</ele>
        <time>2011-10-02T09:57:16Z</time>
      </trkpt>
      <trkpt lat="48.40543" lon="2.66129">
        <ele>106</ele>
        <time>2011-10-02T09:57:22Z</time>
      </trkpt>
      <trkpt lat="48.40553" lon="2.66154">
        <ele>106</ele>
        <time>2011-10-02T09:57:28Z</time>
      </trkpt>
      <trkpt lat="48.4056" lon="2.66178">
        <ele>109</ele>
        <time>2011-10-02T09:57:33Z</time>
      </trkpt>
      <trkpt lat="48.40567" lon="2.66202">
        <ele>110</ele>
        <time>2011-10-02T09:57:38Z</time>
      </trkpt>
      <trkpt lat="48.40574" lon="2.66225">
        <ele>110</ele>
        <time>2011-10-02T09:57:43Z</time>
      </trkpt>
      <trkpt lat="48.40581" lon="2.66253">
        <ele>110</ele>
        <time>2011-10-02T09:57:49Z</time>
      </trkpt>
      <trkpt lat="48.40588" lon="2.66282">
        <ele>110</ele>
        <time>2011-10-02T09:57:55Z</time>
      </trkpt>
      <trkpt lat="48.40589" lon="2.66311">
        <ele>110</ele>
        <time>2011-10-02T09:58:01Z</time>
      </trkpt>
      <trkpt lat="48.40585" lon="2.66334">
        <ele>110</ele>
        <time>2011-10-02T09:58:05Z</time>
      </trkpt>
      <trkpt lat="48.40581" lon="2.66364">
        <ele>114</ele>
        <time>2011-10-02T09:58:11Z</time>
      </trkpt>
      <trkpt lat="48.40576" lon="2.66394">
        <ele>113</ele>
        <time>2011-10-02T09:58:17Z</time>
      </trkpt>
      <trkpt lat="48.40571" lon="2.66415">
        <ele>112</ele>
        <time>2011-10-02T09:58:21Z</time>
      </trkpt>
      <trkpt lat="48.4056" lon="2.66423">
        <ele>111</ele>
        <time>2011-10-02T09:58:25Z</time>
      </trkpt>
      <trkpt lat="48.40556" lon="2.66423">
        <ele>111</ele>
        <time>2011-10-02T09:58:26Z</time>
      </trkpt>
      <trkpt lat="48.40546" lon="2.6644">
        <ele>111</ele>
        <time>2011-10-02T09:58:30Z</time>
      </trkpt>
      <trkpt lat="48.40537" lon="2.66464">
        <ele>110</ele>
        <time>2011-10-02T09:58:34Z</time>
      </trkpt>
      <trkpt lat="48.40527" lon="2.6649">
        <ele>108</ele>
        <time>2011-10-02T09:58:37Z</time>
      </trkpt>
      <trkpt lat="48.40525" lon="2.665">
        <ele>104</ele>
        <time>2011-10-02T09:58:38Z</time>
      </trkpt>
      <trkpt lat="48.40512" lon="2.6657">
        <ele>101</ele>
        <time>2011-10-02T09:58:44Z</time>
      </trkpt>
      <trkpt lat="48.40508" lon="2.66589">
        <ele>99</ele>
        <time>2011-10-02T09:58:46Z</time>
      </trkpt>
      <trkpt lat="48.40502" lon="2.66638">
        <ele>99</ele>
        <time>2011-10-02T09:58:52Z</time>
      </trkpt>
      <trkpt lat="48.40493" lon="2.66696">
        <ele>97</ele>
        <time>2011-10-02T09:58:59Z</time>
      </trkpt>
      <trkpt lat="48.40485" lon="2.66744">
        <ele>96</ele>
        <time>2011-10-02T09:59:05Z</time>
      </trkpt>
      <trkpt lat="48.40481" lon="2.66767">
        <ele>95</ele>
        <time>2011-10-02T09:59:08Z</time>
      </trkpt>
      <trkpt lat="48.40477" lon="2.66811">
        <ele>95</ele>
        <time>2011-10-02T09:59:15Z</time>
      </trkpt>
      <trkpt lat="48.40487" lon="2.66834">
        <ele>93</ele>
        <time>2011-10-02T09:59:20Z</time>
      </trkpt>
      <trkpt lat="48.40501" lon="2.66867">
        <ele>95</ele>
        <time>2011-10-02T09:59:26Z</time>
      </trkpt>
      <trkpt lat="48.40511" lon="2.6689">
        <ele>95</ele>
        <time>2011-10-02T09:59:31Z</time>
      </trkpt>
      <trkpt lat="48.4052" lon="2.66915">
        <ele>94</ele>
        <time>2011-10-02T09:59:37Z</time>
      </trkpt>
      <trkpt lat="48.40528" lon="2.66937">
        <ele>94</ele>
        <time>2011-10-02T09:59:43Z</time>
      </trkpt>
      <trkpt lat="48.40541" lon="2.66979">
        <ele>95</ele>
        <time>2011-10-02T09:59:53Z</time>
      </trkpt>
      <trkpt lat="48.40553" lon="2.67019">
        <ele>94</ele>
        <time>2011-10-02T10:00:02Z</time>
      </trkpt>
      <trkpt lat="48.4056" lon="2.67045">
        <ele>94</ele>
        <time>2011-10-02T10:00:08Z</time>
      </trkpt>
      <trkpt lat="48.40562" lon="2.67049">
        <ele>94</ele>
        <time>2011-10-02T10:00:11Z</time>
      </trkpt>
      <trkpt lat="48.40558" lon="2.67056">
        <ele>94</ele>
        <time>2011-10-02T10:00:52Z</time>
      </trkpt>
      <trkpt lat="48.40566" lon="2.67079">
        <ele>95</ele>
        <time>2011-10-02T10:00:58Z</time>
      </trkpt>
      <trkpt lat="48.40574" lon="2.67097">
        <ele>94</ele>
        <time>2011-10-02T10:01:03Z</time>
      </trkpt>
      <trkpt lat="48.40582" lon="2.67124">
        <ele>93</ele>
        <time>2011-10-02T10:01:09Z</time>
      </trkpt>
      <trkpt lat="48.40593" lon="2.67159">
        <ele>95</ele>
        <time>2011-10-02T10:01:16Z</time>
      </trkpt>
      <trkpt lat="48.40597" lon="2.67168">
        <ele>94</ele>
        <time>2011-10-02T10:01:18Z</time>
      </trkpt>
      <trkpt lat="48.40615" lon="2.67202">
        <ele>96</ele>
        <time>2011-10-02T10:01:25Z</time>
      </trkpt>
      <trkpt lat="48.40623" lon="2.67226">
        <ele>96</ele>
        <time>2011-10-02T10:01:30Z</time>
      </trkpt>
      <trkpt lat="48.40632" lon="2.67252">
        <ele>96</ele>
        <time>2011-10-02T10:01:35Z</time>
      </trkpt>
      <trkpt lat="48.40644" lon="2.6729">
        <ele>95</ele>
        <time>2011-10-02T10:01:42Z</time>
      </trkpt>
      <trkpt lat="48.40654" lon="2.67315">
        <ele>95</ele>
        <time>2011-10-02T10:01:47Z</time>
      </trkpt>
      <trkpt lat="48.40665" lon="2.67353">
        <ele>94</ele>
        <time>2011-10-02T10:01:54Z</time>
      </trkpt>
      <trkpt lat="48.40678" lon="2.67392">
        <ele>97</ele>
        <time>2011-10-02T10:02:01Z</time>
      </trkpt>
      <trkpt lat="48.40689" lon="2.67426">
        <ele>96</ele>
        <time>2011-10-02T10:02:07Z</time>
      </trkpt>
      <trkpt lat="48.40699" lon="2.67458">
        <ele>96</ele>
        <time>2011-10-02T10:02:13Z</time>
      </trkpt>
      <trkpt lat="48.40709" lon="2.67477">
        <ele>97</ele>
        <time>2011-10-02T10:02:18Z</time>
      </trkpt>
      <trkpt lat="48.4072" lon="2.67494">
        <ele>97</ele>
        <time>2011-10-02T10:02:23Z</time>
      </trkpt>
      <trkpt lat="48.40727" lon="2.67506">
        <ele>96</ele>
        <time>2011-10-02T10:02:26Z</time>
      </trkpt>
      <trkpt lat="48.40735" lon="2.67527">
        <ele>96</ele>
        <time>2011-10-02T10:02:30Z</time>
      </trkpt>
      <trkpt lat="48.40751" lon="2.67561">
        <ele>98</ele>
        <time>2011-10-02T10:02:36Z</time>
      </trkpt>
      <trkpt lat="48.40763" lon="2.67587">
        <ele>96</ele>
        <time>2011-10-02T10:02:41Z</time>
      </trkpt>
      <trkpt lat="48.40771" lon="2.67594">
        <ele>96</ele>
        <time>2011-10-02T10:02:44Z</time>
      </trkpt>
      <trkpt lat="48.40789" lon="2.67611">
        <ele>96</ele>
        <time>2011-10-02T10:02:50Z</time>
      </trkpt>
      <trkpt lat="48.40794" lon="2.67621">
        <ele>96</ele>
        <time>2011-10-02T10:02:52Z</time>
      </trkpt>
      <trkpt lat="48.40799" lon="2.67633">
        <ele>96</ele>
        <time>2011-10-02T10:02:54Z</time>
      </trkpt>
      <trkpt lat="48.40806" lon="2.67658">
        <ele>96</ele>
        <time>2011-10-02T10:02:59Z</time>
      </trkpt>
      <trkpt lat="48.40812" lon="2.67673">
        <ele>95</ele>
        <time>2011-10-02T10:03:04Z</time>
      </trkpt>
      <trkpt lat="48.40818" lon="2.67689">
        <ele>95</ele>
        <time>2011-10-02T10:03:07Z</time>
      </trkpt>
      <trkpt lat="48.40825" lon="2.67703">
        <ele>95</ele>
        <time>2011-10-02T10:03:10Z</time>
      </trkpt>
      <trkpt lat="48.40841" lon="2.67733">
        <ele>96</ele>
        <time>2011-10-02T10:03:16Z</time>
      </trkpt>
      <trkpt lat="48.40853" lon="2.67751">
        <ele>95</ele>
        <time>2011-10-02T10:03:21Z</time>
      </trkpt>
      <trkpt lat="48.40865" lon="2.67782">
        <ele>95</ele>
        <time>2011-10-02T10:03:27Z</time>
      </trkpt>
      <trkpt lat="48.40869" lon="2.67797">
        <ele>95</ele>
        <time>2011-10-02T10:03:30Z</time>
      </trkpt>
      <trkpt lat="48.40861" lon="2.67824">
        <ele>95</ele>
        <time>2011-10-02T10:03:36Z</time>
      </trkpt>
      <trkpt lat="48.40849" lon="2.67861">
        <ele>94</ele>
        <time>2011-10-02T10:03:43Z</time>
      </trkpt>
      <trkpt lat="48.40839" lon="2.67893">
        <ele>94</ele>
        <time>2011-10-02T10:03:50Z</time>
      </trkpt>
      <trkpt lat="48.40834" lon="2.67914">
        <ele>94</ele>
        <time>2011-10-02T10:03:55Z</time>
      </trkpt>
      <trkpt lat="48.40847" lon="2.67942">
        <ele>93</ele>
        <time>2011-10-02T10:04:02Z</time>
      </trkpt>
      <trkpt lat="48.40857" lon="2.67965">
        <ele>93</ele>
        <time>2011-10-02T10:04:08Z</time>
      </trkpt>
      <trkpt lat="48.40868" lon="2.67994">
        <ele>93</ele>
        <time>2011-10-02T10:04:14Z</time>
      </trkpt>
      <trkpt lat="48.4088" lon="2.6803">
        <ele>93</ele>
        <time>2011-10-02T10:04:21Z</time>
      </trkpt>
      <trkpt lat="48.40888" lon="2.68052">
        <ele>93</ele>
        <time>2011-10-02T10:04:25Z</time>
      </trkpt>
      <trkpt lat="48.40903" lon="2.68097">
        <ele>92</ele>
        <time>2011-10-02T10:04:33Z</time>
      </trkpt>
      <trkpt lat="48.40916" lon="2.68143">
        <ele>92</ele>
        <time>2011-10-02T10:04:42Z</time>
      </trkpt>
      <trkpt lat="48.40925" lon="2.6817">
        <ele>94</ele>
        <time>2011-10-02T10:04:48Z</time>
      </trkpt>
      <trkpt lat="48.40922" lon="2.68202">
        <ele>94</ele>
        <time>2011-10-02T10:04:54Z</time>
      </trkpt>
      <trkpt lat="48.40913" lon="2.68262">
        <ele>94</ele>
        <time>2011-10-02T10:05:04Z</time>
      </trkpt>
      <trkpt lat="48.40905" lon="2.68317">
        <ele>93</ele>
        <time>2011-10-02T10:05:11Z</time>
      </trkpt>
      <trkpt lat="48.40896" lon="2.68376">
        <ele>93</ele>
        <time>2011-10-02T10:05:17Z</time>
      </trkpt>
      <trkpt lat="48.40883" lon="2.68463">
        <ele>93</ele>
        <time>2011-10-02T10:05:25Z</time>
      </trkpt>
      <trkpt lat="48.40871" lon="2.68544">
        <ele>93</ele>
        <time>2011-10-02T10:05:33Z</time>
      </trkpt>
      <trkpt lat="48.40859" lon="2.68587">
        <ele>91</ele>
        <time>2011-10-02T10:05:38Z</time>
      </trkpt>
      <trkpt lat="48.40856" lon="2.68594">
        <ele>91</ele>
        <time>2011-10-02T10:05:39Z</time>
      </trkpt>
      <trkpt lat="48.4085" lon="2.68605">
        <ele>91</ele>
        <time>2011-10-02T10:05:43Z</time>
      </trkpt>
      <trkpt lat="48.40847" lon="2.68606">
        <ele>91</ele>
        <time>2011-10-02T10:05:56Z</time>
      </trkpt>
      <trkpt lat="48.40837" lon="2.68612">
        <ele>91</ele>
        <time>2011-10-02T10:05:59Z</time>
      </trkpt>
      <trkpt lat="48.40828" lon="2.68623">
        <ele>90</ele>
        <time>2011-10-02T10:06:02Z</time>
      </trkpt>
      <trkpt lat="48.40818" lon="2.68652">
        <ele>88</ele>
        <time>2011-10-02T10:06:08Z</time>
      </trkpt>
      <trkpt lat="48.4082" lon="2.68654">
        <ele>88</ele>
        <time>2011-10-02T10:06:12Z</time>
      </trkpt>
      <trkpt lat="48.40821" lon="2.68664">
        <ele>88</ele>
        <time>2011-10-02T10:06:27Z</time>
      </trkpt>
      <trkpt lat="48.40823" lon="2.68682">
        <ele>87</ele>
        <time>2011-10-02T10:06:31Z</time>
      </trkpt>
      <trkpt lat="48.40832" lon="2.68702">
        <ele>87</ele>
        <time>2011-10-02T10:06:35Z</time>
      </trkpt>
      <trkpt lat="48.40844" lon="2.68717">
        <ele>89</ele>
        <time>2011-10-02T10:06:40Z</time>
      </trkpt>
      <trkpt lat="48.40845" lon="2.68717">
        <ele>89</ele>
        <time>2011-10-02T10:06:46Z</time>
      </trkpt>
      <trkpt lat="48.40845" lon="2.68716">
        <ele>89</ele>
        <time>2011-10-02T10:06:48Z</time>
      </trkpt>
      <trkpt lat="48.40855" lon="2.68712">
        <ele>89</ele>
        <time>2011-10-02T10:06:53Z</time>
      </trkpt>
      <trkpt lat="48.40881" lon="2.68687">
        <ele>90</ele>
        <time>2011-10-02T10:07:01Z</time>
      </trkpt>
      <trkpt lat="48.40884" lon="2.68681">
        <ele>90</ele>
        <time>2011-10-02T10:07:02Z</time>
      </trkpt>
      <trkpt lat="48.40905" lon="2.68622">
        <ele>91</ele>
        <time>2011-10-02T10:07:12Z</time>
      </trkpt>
      <trkpt lat="48.40931" lon="2.68579">
        <ele>94</ele>
        <time>2011-10-02T10:07:20Z</time>
      </trkpt>
      <trkpt lat="48.40961" lon="2.68527">
        <ele>96</ele>
        <time>2011-10-02T10:07:30Z</time>
      </trkpt>
      <trkpt lat="48.40986" lon="2.68485">
        <ele>97</ele>
        <time>2011-10-02T10:07:38Z</time>
      </trkpt>
      <trkpt lat="48.41004" lon="2.68454">
        <ele>101</ele>
        <time>2011-10-02T10:07:44Z</time>
      </trkpt>
      <trkpt lat="48.41016" lon="2.68437">
        <ele>100</ele>
        <time>2011-10-02T10:07:48Z</time>
      </trkpt>
      <trkpt lat="48.41036" lon="2.68402">
        <ele>101</ele>
        <time>2011-10-02T10:07:56Z</time>
      </trkpt>
      <trkpt lat="48.4106" lon="2.68362">
        <ele>103</ele>
        <time>2011-10-02T10:08:06Z</time>
      </trkpt>
      <trkpt lat="48.41083" lon="2.68325">
        <ele>104</ele>
        <time>2011-10-02T10:08:16Z</time>
      </trkpt>
      <trkpt lat="48.411" lon="2.68295">
        <ele>106</ele>
        <time>2011-10-02T10:08:24Z</time>
      </trkpt>
      <trkpt lat="48.41102" lon="2.68293">
        <ele>106</ele>
        <time>2011-10-02T10:08:25Z</time>
      </trkpt>
      <trkpt lat="48.41112" lon="2.683">
        <ele>106</ele>
        <time>2011-10-02T10:08:30Z</time>
      </trkpt>
      <trkpt lat="48.41117" lon="2.68308">
        <ele>106</ele>
        <time>2011-10-02T10:08:35Z</time>
      </trkpt>
      <trkpt lat="48.41124" lon="2.68307">
        <ele>106</ele>
        <time>2011-10-02T10:08:40Z</time>
      </trkpt>
      <trkpt lat="48.41134" lon="2.68313">
        <ele>107</ele>
        <time>2011-10-02T10:08:47Z</time>
      </trkpt>
      <trkpt lat="48.41145" lon="2.68322">
        <ele>107</ele>
        <time>2011-10-02T10:08:55Z</time>
      </trkpt>
      <trkpt lat="48.41155" lon="2.6833">
        <ele>108</ele>
        <time>2011-10-02T10:09:02Z</time>
      </trkpt>
      <trkpt lat="48.4117" lon="2.68341">
        <ele>112</ele>
        <time>2011-10-02T10:09:10Z</time>
      </trkpt>
      <trkpt lat="48.4118" lon="2.68349">
        <ele>115</ele>
        <time>2011-10-02T10:09:17Z</time>
      </trkpt>
      <trkpt lat="48.41191" lon="2.68359">
        <ele>117</ele>
        <time>2011-10-02T10:09:26Z</time>
      </trkpt>
      <trkpt lat="48.41198" lon="2.68366">
        <ele>118</ele>
        <time>2011-10-02T10:09:33Z</time>
      </trkpt>
      <trkpt lat="48.41209" lon="2.68373">
        <ele>120</ele>
        <time>2011-10-02T10:09:42Z</time>
      </trkpt>
      <trkpt lat="48.41215" lon="2.68378">
        <ele>120</ele>
        <time>2011-10-02T10:09:49Z</time>
      </trkpt>
      <trkpt lat="48.41217" lon="2.68379">
        <ele>121</ele>
        <time>2011-10-02T10:10:00Z</time>
      </trkpt>
      <trkpt lat="48.4122" lon="2.68381">
        <ele>121</ele>
        <time>2011-10-02T10:10:07Z</time>
      </trkpt>
      <trkpt lat="48.41224" lon="2.68385">
        <ele>121</ele>
        <time>2011-10-02T10:10:17Z</time>
      </trkpt>
      <trkpt lat="48.41226" lon="2.68387">
        <ele>122</ele>
        <time>2011-10-02T10:10:27Z</time>
      </trkpt>
      <trkpt lat="48.4123" lon="2.68392">
        <ele>122</ele>
        <time>2011-10-02T10:10:35Z</time>
      </trkpt>
      <trkpt lat="48.41232" lon="2.68394">
        <ele>123</ele>
        <time>2011-10-02T10:10:45Z</time>
      </trkpt>
      <trkpt lat="48.41231" lon="2.68394">
        <ele>123</ele>
        <time>2011-10-02T10:11:01Z</time>
      </trkpt>
      <trkpt lat="48.41234" lon="2.68395">
        <ele>123</ele>
        <time>2011-10-02T10:11:20Z</time>
      </trkpt>
      <trkpt lat="48.41237" lon="2.68398">
        <ele>124</ele>
        <time>2011-10-02T10:11:55Z</time>
      </trkpt>
      <trkpt lat="48.41239" lon="2.68396">
        <ele>124</ele>
        <time>2011-10-02T10:12:04Z</time>
      </trkpt>
      <trkpt lat="48.41239" lon="2.6839">
        <ele>123</ele>
        <time>2011-10-02T10:12:17Z</time>
      </trkpt>
      <trkpt lat="48.4124" lon="2.68391">
        <ele>123</ele>
        <time>2011-10-02T10:12:43Z</time>
      </trkpt>
      <trkpt lat="48.41228" lon="2.68409">
        <ele>123</ele>
        <time>2011-10-02T10:13:28Z</time>
      </trkpt>
      <trkpt lat="48.41232" lon="2.68406">
        <ele>124</ele>
        <time>2011-10-02T10:14:08Z</time>
      </trkpt>
      <trkpt lat="48.41235" lon="2.68401">
        <ele>124</ele>
        <time>2011-10-02T10:14:21Z</time>
      </trkpt>
      <trkpt lat="48.41236" lon="2.68391">
        <ele>123</ele>
        <time>2011-10-02T10:14:31Z</time>
      </trkpt>
      <trkpt lat="48.41236" lon="2.68388">
        <ele>123</ele>
        <time>2011-10-02T10:14:49Z</time>
      </trkpt>
      <trkpt lat="48.41236" lon="2.68387">
        <ele>123</ele>
        <time>2011-10-02T10:14:58Z</time>
      </trkpt>
      <trkpt lat="48.41229" lon="2.68384">
        <ele>122</ele>
        <time>2011-10-02T10:15:26Z</time>
      </trkpt>
      <trkpt lat="48.41237" lon="2.68386">
        <ele>123</ele>
        <time>2011-10-02T10:15:54Z</time>
      </trkpt>
      <trkpt lat="48.41237" lon="2.68389">
        <ele>123</ele>
        <time>2011-10-02T10:16:05Z</time>
      </trkpt>
      <trkpt lat="48.41224" lon="2.68389">
        <ele>122</ele>
        <time>2011-10-02T10:16:20Z</time>
      </trkpt>
      <trkpt lat="48.41224" lon="2.68388">
        <ele>122</ele>
        <time>2011-10-02T10:16:34Z</time>
      </trkpt>
      <trkpt lat="48.41221" lon="2.68398">
        <ele>122</ele>
        <time>2011-10-02T10:16:51Z</time>
      </trkpt>
      <trkpt lat="48.4123" lon="2.68395">
        <ele>123</ele>
        <time>2011-10-02T10:17:08Z</time>
      </trkpt>
      <trkpt lat="48.41228" lon="2.68403">
        <ele>123</ele>
        <time>2011-10-02T10:17:26Z</time>
      </trkpt>
      <trkpt lat="48.41235" lon="2.68401">
        <ele>124</ele>
        <time>2011-10-02T10:18:31Z</time>
      </trkpt>
      <trkpt lat="48.41237" lon="2.68395">
        <ele>123</ele>
        <time>2011-10-02T10:18:48Z</time>
      </trkpt>
      <trkpt lat="48.4124" lon="2.68393">
        <ele>124</ele>
        <time>2011-10-02T10:19:53Z</time>
      </trkpt>
      <trkpt lat="48.41234" lon="2.68395">
        <ele>123</ele>
        <time>2011-10-02T10:20:43Z</time>
      </trkpt>
      <trkpt lat="48.41233" lon="2.68397">
        <ele>123</ele>
        <time>2011-10-02T10:20:54Z</time>
      </trkpt>
      <trkpt lat="48.41232" lon="2.684">
        <ele>123</ele>
        <time>2011-10-02T10:21:09Z</time>
      </trkpt>
      <trkpt lat="48.41227" lon="2.68405">
        <ele>123</ele>
        <time>2011-10-02T10:21:41Z</time>
      </trkpt>
      <trkpt lat="48.41229" lon="2.68401">
        <ele>123</ele>
        <time>2011-10-02T10:22:03Z</time>
      </trkpt>
      <trkpt lat="48.41235" lon="2.68396">
        <ele>123</ele>
        <time>2011-10-02T10:22:18Z</time>
      </trkpt>
      <trkpt lat="48.41236" lon="2.68395">
        <ele>123</ele>
        <time>2011-10-02T10:22:28Z</time>
      </trkpt>
      <trkpt lat="48.41235" lon="2.68391">
        <ele>123</ele>
        <time>2011-10-02T10:22:51Z</time>
      </trkpt>
      <trkpt lat="48.41233" lon="2.68388">
        <ele>123</ele>
        <time>2011-10-02T10:23:05Z</time>
      </trkpt>
      <trkpt lat="48.41234" lon="2.68389">
        <ele>123</ele>
        <time>2011-10-02T10:23:31Z</time>
      </trkpt>
      <trkpt lat="48.41232" lon="2.68389">
        <ele>123</ele>
        <time>2011-10-02T10:23:54Z</time>
      </trkpt>
      <trkpt lat="48.41234" lon="2.68392">
        <ele>123</ele>
        <time>2011-10-02T10:24:29Z</time>
      </trkpt>
      <trkpt lat="48.4123" lon="2.68398">
        <ele>123</ele>
        <time>2011-10-02T10:24:55Z</time>
      </trkpt>
      <trkpt lat="48.41228" lon="2.68404">
        <ele>123</ele>
        <time>2011-10-02T10:25:22Z</time>
      </trkpt>
      <trkpt lat="48.41226" lon="2.68409">
        <ele>123</ele>
        <time>2011-10-02T10:25:39Z</time>
      </trkpt>
      <trkpt lat="48.41223" lon="2.68404">
        <ele>122</ele>
        <time>2011-10-02T10:25:53Z</time>
      </trkpt>
      <trkpt lat="48.41225" lon="2.68403">
        <ele>122</ele>
        <time>2011-10-02T10:26:02Z</time>
      </trkpt>
      <trkpt lat="48.4123" lon="2.68403">
        <ele>123</ele>
        <time>2011-10-02T10:26:14Z</time>
      </trkpt>
      <trkpt lat="48.41228" lon="2.68406">
        <ele>123</ele>
        <time>2011-10-02T10:26:23Z</time>
      </trkpt>
      <trkpt lat="48.41231" lon="2.68405">
        <ele>124</ele>
        <time>2011-10-02T10:26:48Z</time>
      </trkpt>
      <trkpt lat="48.41238" lon="2.68398">
        <ele>124</ele>
        <time>2011-10-02T10:27:00Z</time>
      </trkpt>
      <trkpt lat="48.41235" lon="2.68399">
        <ele>124</ele>
        <time>2011-10-02T10:27:10Z</time>
      </trkpt>
      <trkpt lat="48.41235" lon="2.68398">
        <ele>124</ele>
        <time>2011-10-02T10:27:20Z</time>
      </trkpt>
      <trkpt lat="48.41235" lon="2.68401">
        <ele>124</ele>
        <time>2011-10-02T10:27:34Z</time>
      </trkpt>
      <trkpt lat="48.41239" lon="2.68394">
        <ele>124</ele>
        <time>2011-10-02T10:27:45Z</time>
      </trkpt>
      <trkpt lat="48.41241" lon="2.68387">
        <ele>123</ele>
        <time>2011-10-02T10:27:56Z</time>
      </trkpt>
      <trkpt lat="48.4125" lon="2.68379">
        <ele>133</ele>
        <time>2011-10-02T10:28:10Z</time>
      </trkpt>
      <trkpt lat="48.41248" lon="2.68378">
        <ele>123</ele>
        <time>2011-10-02T10:28:18Z</time>
      </trkpt>
      <trkpt lat="48.41244" lon="2.68377">
        <ele>123</ele>
        <time>2011-10-02T10:28:33Z</time>
      </trkpt>
      <trkpt lat="48.4124" lon="2.68383">
        <ele>123</ele>
        <time>2011-10-02T10:28:39Z</time>
      </trkpt>
      <trkpt lat="48.41237" lon="2.68384">
        <ele>123</ele>
        <time>2011-10-02T10:28:57Z</time>
      </trkpt>
      <trkpt lat="48.41232" lon="2.68391">
        <ele>123</ele>
        <time>2011-10-02T10:29:27Z</time>
      </trkpt>
      <trkpt lat="48.41232" lon="2.68391">
        <ele>123</ele>
        <time>2011-10-02T10:29:31Z</time>
      </trkpt>
      <trkpt lat="48.41239" lon="2.68399">
        <ele>124</ele>
        <time>2011-10-02T10:29:43Z</time>
      </trkpt>
      <trkpt lat="48.41243" lon="2.68402">
        <ele>125</ele>
        <time>2011-10-02T10:29:49Z</time>
      </trkpt>
      <trkpt lat="48.41245" lon="2.68403">
        <ele>125</ele>
        <time>2011-10-02T10:29:53Z</time>
      </trkpt>
      <trkpt lat="48.41245" lon="2.68404">
        <ele>126</ele>
        <time>2011-10-02T10:30:02Z</time>
      </trkpt>
      <trkpt lat="48.41253" lon="2.68409">
        <ele>131</ele>
        <time>2011-10-02T10:30:09Z</time>
      </trkpt>
      <trkpt lat="48.41259" lon="2.68413">
        <ele>132</ele>
        <time>2011-10-02T10:30:15Z</time>
      </trkpt>
      <trkpt lat="48.41264" lon="2.68418">
        <ele>132</ele>
        <time>2011-10-02T10:30:20Z</time>
      </trkpt>
      <trkpt lat="48.41266" lon="2.6842">
        <ele>132</ele>
        <time>2011-10-02T10:30:22Z</time>
      </trkpt>
      <trkpt lat="48.4127" lon="2.68423">
        <ele>133</ele>
        <time>2011-10-02T10:30:26Z</time>
      </trkpt>
      <trkpt lat="48.41275" lon="2.68429">
        <ele>133</ele>
        <time>2011-10-02T10:30:31Z</time>
      </trkpt>
      <trkpt lat="48.4128" lon="2.68434">
        <ele>134</ele>
        <time>2011-10-02T10:30:35Z</time>
      </trkpt>
      <trkpt lat="48.4129" lon="2.68442">
        <ele>135</ele>
        <time>2011-10-02T10:30:40Z</time>
      </trkpt>
      <trkpt lat="48.413" lon="2.68452">
        <ele>135</ele>
        <time>2011-10-02T10:30:46Z</time>
      </trkpt>
      <trkpt lat="48.41311" lon="2.68459">
        <ele>136</ele>
        <time>2011-10-02T10:30:51Z</time>
      </trkpt>
      <trkpt lat="48.41323" lon="2.68469">
        <ele>136</ele>
        <time>2011-10-02T10:30:57Z</time>
      </trkpt>
      <trkpt lat="48.4134" lon="2.68482">
        <ele>141</ele>
        <time>2011-10-02T10:31:03Z</time>
      </trkpt>
      <trkpt lat="48.41364" lon="2.68499">
        <ele>141</ele>
        <time>2011-10-02T10:31:10Z</time>
      </trkpt>
      <trkpt lat="48.41385" lon="2.68515">
        <ele>142</ele>
        <time>2011-10-02T10:31:17Z</time>
      </trkpt>
      <trkpt lat="48.41409" lon="2.68533">
        <ele>143</ele>
        <time>2011-10-02T10:31:24Z</time>
      </trkpt>
      <trkpt lat="48.41425" lon="2.68546">
        <ele>145</ele>
        <time>2011-10-02T10:31:29Z</time>
      </trkpt>
      <trkpt lat="48.41446" lon="2.68563">
        <ele>144</ele>
        <time>2011-10-02T10:31:34Z</time>
      </trkpt>
      <trkpt lat="48.41459" lon="2.68576">
        <ele>144</ele>
        <time>2011-10-02T10:31:39Z</time>
      </trkpt>
      <trkpt lat="48.41475" lon="2.68593">
        <ele>143</ele>
        <time>2011-10-02T10:31:45Z</time>
      </trkpt>
      <trkpt lat="48.41485" lon="2.68612">
        <ele>143</ele>
        <time>2011-10-02T10:31:49Z</time>
      </trkpt>
      <trkpt lat="48.41492" lon="2.68643">
        <ele>142</ele>
        <time>2011-10-02T10:31:54Z</time>
      </trkpt>
      <trkpt lat="48.41498" lon="2.68677">
        <ele>139</ele>
        <time>2011-10-02T10:32:00Z</time>
      </trkpt>
      <trkpt lat="48.41501" lon="2.68694">
        <ele>138</ele>
        <time>2011-10-02T10:32:03Z</time>
      </trkpt>
      <trkpt lat="48.41504" lon="2.68713">
        <ele>137</ele>
        <time>2011-10-02T10:32:06Z</time>
      </trkpt>
      <trkpt lat="48.41508" lon="2.68727">
        <ele>136</ele>
        <time>2011-10-02T10:32:08Z</time>
      </trkpt>
      <trkpt lat="48.41512" lon="2.68754">
        <ele>134</ele>
        <time>2011-10-02T10:32:12Z</time>
      </trkpt>
      <trkpt lat="48.41512" lon="2.68768">
        <ele>134</ele>
        <time>2011-10-02T10:32:14Z</time>
      </trkpt>
      <trkpt lat="48.41514" lon="2.68783">
        <ele>134</ele>
        <time>2011-10-02T10:32:16Z</time>
      </trkpt>
      <trkpt lat="48.41523" lon="2.68832">
        <ele>133</ele>
        <time>2011-10-02T10:32:22Z</time>
      </trkpt>
      <trkpt lat="48.41529" lon="2.68862">
        <ele>131</ele>
        <time>2011-10-02T10:32:26Z</time>
      </trkpt>
      <trkpt lat="48.41538" lon="2.68914">
        <ele>131</ele>
        <time>2011-10-02T10:32:32Z</time>
      </trkpt>
      <trkpt lat="48.41539" lon="2.68925">
        <ele>130</ele>
        <time>2011-10-02T10:32:33Z</time>
      </trkpt>
      <trkpt lat="48.41541" lon="2.68967">
        <ele>130</ele>
        <time>2011-10-02T10:32:37Z</time>
      </trkpt>
      <trkpt lat="48.41547" lon="2.69">
        <ele>129</ele>
        <time>2011-10-02T10:32:40Z</time>
      </trkpt>
      <trkpt lat="48.41577" lon="2.69065">
        <ele>128</ele>
        <time>2011-10-02T10:32:46Z</time>
      </trkpt>
      <trkpt lat="48.41611" lon="2.69129">
        <ele>121</ele>
        <time>2011-10-02T10:32:51Z</time>
      </trkpt>
      <trkpt lat="48.41645" lon="2.69195">
        <ele>118</ele>
        <time>2011-10-02T10:32:56Z</time>
      </trkpt>
      <trkpt lat="48.41685" lon="2.69258">
        <ele>109</ele>
        <time>2011-10-02T10:33:01Z</time>
      </trkpt>
      <trkpt lat="48.41714" lon="2.69315">
        <ele>107</ele>
        <time>2011-10-02T10:33:06Z</time>
      </trkpt>
      <trkpt lat="48.41735" lon="2.69356">
        <ele>106</ele>
        <time>2011-10-02T10:33:10Z</time>
      </trkpt>
      <trkpt lat="48.41758" lon="2.69394">
        <ele>104</ele>
        <time>2011-10-02T10:33:14Z</time>
      </trkpt>
      <trkpt lat="48.41782" lon="2.6944">
        <ele>102</ele>
        <time>2011-10-02T10:33:19Z</time>
      </trkpt>
      <trkpt lat="48.41793" lon="2.69462">
        <ele>101</ele>
        <time>2011-10-02T10:33:22Z</time>
      </trkpt>
      <trkpt lat="48.41801" lon="2.69498">
        <ele>100</ele>
        <time>2011-10-02T10:33:27Z</time>
      </trkpt>
      <trkpt lat="48.41801" lon="2.69523">
        <ele>100</ele>
        <time>2011-10-02T10:33:30Z</time>
      </trkpt>
      <trkpt lat="48.41805" lon="2.6956">
        <ele>100</ele>
        <time>2011-10-02T10:33:35Z</time>
      </trkpt>
      <trkpt lat="48.41805" lon="2.69598">
        <ele>100</ele>
        <time>2011-10-02T10:33:40Z</time>
      </trkpt>
      <trkpt lat="48.41806" lon="2.69626">
        <ele>100</ele>
        <time>2011-10-02T10:33:44Z</time>
      </trkpt>
      <trkpt lat="48.41806" lon="2.69643">
        <ele>100</ele>
        <time>2011-10-02T10:33:46Z</time>
      </trkpt>
      <trkpt lat="48.41803" lon="2.69673">
        <ele>99</ele>
        <time>2011-10-02T10:33:50Z</time>
      </trkpt>
      <trkpt lat="48.41805" lon="2.69718">
        <ele>99</ele>
        <time>2011-10-02T10:33:56Z</time>
      </trkpt>
      <trkpt lat="48.41806" lon="2.69733">
        <ele>99</ele>
        <time>2011-10-02T10:33:58Z</time>
      </trkpt>
      <trkpt lat="48.41805" lon="2.69766">
        <ele>97</ele>
        <time>2011-10-02T10:34:03Z</time>
      </trkpt>
      <trkpt lat="48.4181" lon="2.69784">
        <ele>97</ele>
        <time>2011-10-02T10:34:05Z</time>
      </trkpt>
      <trkpt lat="48.41812" lon="2.69798">
        <ele>97</ele>
        <time>2011-10-02T10:34:07Z</time>
      </trkpt>
      <trkpt lat="48.41816" lon="2.69826">
        <ele>96</ele>
        <time>2011-10-02T10:34:12Z</time>
      </trkpt>
      <trkpt lat="48.41829" lon="2.69833">
        <ele>95</ele>
        <time>2011-10-02T10:34:16Z</time>
      </trkpt>
      <trkpt lat="48.41833" lon="2.69834">
        <ele>95</ele>
        <time>2011-10-02T10:34:17Z</time>
      </trkpt>
      <trkpt lat="48.4186" lon="2.69835">
        <ele>95</ele>
        <time>2011-10-02T10:34:24Z</time>
      </trkpt>
      <trkpt lat="48.41887" lon="2.69838">
        <ele>95</ele>
        <time>2011-10-02T10:34:31Z</time>
      </trkpt>
      <trkpt lat="48.41911" lon="2.69841">
        <ele>96</ele>
        <time>2011-10-02T10:34:37Z</time>
      </trkpt>
      <trkpt lat="48.41931" lon="2.69844">
        <ele>98</ele>
        <time>2011-10-02T10:34:43Z</time>
      </trkpt>
      <trkpt lat="48.41952" lon="2.69848">
        <ele>99</ele>
        <time>2011-10-02T10:34:48Z</time>
      </trkpt>
      <trkpt lat="48.41974" lon="2.69851">
        <ele>100</ele>
        <time>2011-10-02T10:34:53Z</time>
      </trkpt>
      <trkpt lat="48.41993" lon="2.69854">
        <ele>101</ele>
        <time>2011-10-02T10:34:58Z</time>
      </trkpt>
      <trkpt lat="48.42017" lon="2.69858">
        <ele>104</ele>
        <time>2011-10-02T10:35:04Z</time>
      </trkpt>
      <trkpt lat="48.42031" lon="2.6986">
        <ele>104</ele>
        <time>2011-10-02T10:35:08Z</time>
      </trkpt>
      <trkpt lat="48.4206" lon="2.69864">
        <ele>105</ele>
        <time>2011-10-02T10:35:15Z</time>
      </trkpt>
      <trkpt lat="48.42078" lon="2.6987">
        <ele>105</ele>
        <time>2011-10-02T10:35:20Z</time>
      </trkpt>
      <trkpt lat="48.4208" lon="2.69892">
        <ele>105</ele>
        <time>2011-10-02T10:35:25Z</time>
      </trkpt>
      <trkpt lat="48.42079" lon="2.69912">
        <ele>106</ele>
        <time>2011-10-02T10:35:30Z</time>
      </trkpt>
      <trkpt lat="48.42075" lon="2.69936">
        <ele>106</ele>
        <time>2011-10-02T10:35:36Z</time>
      </trkpt>
      <trkpt lat="48.42074" lon="2.69943">
        <ele>107</ele>
        <time>2011-10-02T10:35:38Z</time>
      </trkpt>
      <trkpt lat="48.42078" lon="2.69951">
        <ele>107</ele>
        <time>2011-10-02T10:35:41Z</time>
      </trkpt>
      <trkpt lat="48.42085" lon="2.69952">
        <ele>109</ele>
        <time>2011-10-02T10:35:45Z</time>
      </trkpt>
      <trkpt lat="48.42089" lon="2.69952">
        <ele>109</ele>
        <time>2011-10-02T10:35:48Z</time>
      </trkpt>
      <trkpt lat="48.42095" lon="2.69965">
        <ele>109</ele>
        <time>2011-10-02T10:35:53Z</time>
      </trkpt>
      <trkpt lat="48.42096" lon="2.69967">
        <ele>109</ele>
        <time>2011-10-02T10:35:54Z</time>
      </trkpt>
      <trkpt lat="48.42095" lon="2.69982">
        <ele>109</ele>
        <time>2011-10-02T10:36:01Z</time>
      </trkpt>
      <trkpt lat="48.42096" lon="2.69993">
        <ele>109</ele>
        <time>2011-10-02T10:36:06Z</time>
      </trkpt>
      <trkpt lat="48.42098" lon="2.7001">
        <ele>111</ele>
        <time>2011-10-02T10:36:11Z</time>
      </trkpt>
      <trkpt lat="48.42097" lon="2.70014">
        <ele>111</ele>
        <time>2011-10-02T10:36:12Z</time>
      </trkpt>
      <trkpt lat="48.42091" lon="2.70031">
        <ele>112</ele>
        <time>2011-10-02T10:36:18Z</time>
      </trkpt>
      <trkpt lat="48.42097" lon="2.70046">
        <ele>113</ele>
        <time>2011-10-02T10:36:25Z</time>
      </trkpt>
      <trkpt lat="48.42098" lon="2.70048">
        <ele>113</ele>
        <time>2011-10-02T10:36:26Z</time>
      </trkpt>
      <trkpt lat="48.42099" lon="2.70057">
        <ele>113</ele>
        <time>2011-10-02T10:36:29Z</time>
      </trkpt>
      <trkpt lat="48.42095" lon="2.70072">
        <ele>112</ele>
        <time>2011-10-02T10:36:33Z</time>
      </trkpt>
      <trkpt lat="48.42091" lon="2.7008">
        <ele>112</ele>
        <time>2011-10-02T10:36:38Z</time>
      </trkpt>
      <trkpt lat="48.4209" lon="2.70083">
        <ele>112</ele>
        <time>2011-10-02T10:36:40Z</time>
      </trkpt>
      <trkpt lat="48.42089" lon="2.70088">
        <ele>113</ele>
        <time>2011-10-02T10:36:43Z</time>
      </trkpt>
      <trkpt lat="48.42091" lon="2.701">
        <ele>115</ele>
        <time>2011-10-02T10:36:50Z</time>
      </trkpt>
      <trkpt lat="48.42096" lon="2.70102">
        <ele>115</ele>
        <time>2011-10-02T10:36:57Z</time>
      </trkpt>
      <trkpt lat="48.42096" lon="2.70104">
        <ele>116</ele>
        <time>2011-10-02T10:37:05Z</time>
      </trkpt>
      <trkpt lat="48.42096" lon="2.70104">
        <ele>116</ele>
        <time>2011-10-02T10:37:14Z</time>
      </trkpt>
      <trkpt lat="48.42096" lon="2.70102">
        <ele>115</ele>
        <time>2011-10-02T10:37:20Z</time>
      </trkpt>
      <trkpt lat="48.42093" lon="2.7009">
        <ele>114</ele>
        <time>2011-10-02T10:37:25Z</time>
      </trkpt>
      <trkpt lat="48.4209" lon="2.7009">
        <ele>113</ele>
        <time>2011-10-02T10:37:30Z</time>
      </trkpt>
      <trkpt lat="48.42092" lon="2.70088">
        <ele>113</ele>
        <time>2011-10-02T10:37:37Z</time>
      </trkpt>
      <trkpt lat="48.42092" lon="2.70084">
        <ele>113</ele>
        <time>2011-10-02T10:37:44Z</time>
      </trkpt>
      <trkpt lat="48.42093" lon="2.70082">
        <ele>112</ele>
        <time>2011-10-02T10:37:45Z</time>
      </trkpt>
      <trkpt lat="48.42101" lon="2.70068">
        <ele>113</ele>
        <time>2011-10-02T10:37:51Z</time>
      </trkpt>
      <trkpt lat="48.421" lon="2.70062">
        <ele>113</ele>
        <time>2011-10-02T10:37:54Z</time>
      </trkpt>
      <trkpt lat="48.42098" lon="2.70061">
        <ele>113</ele>
        <time>2011-10-02T10:38:00Z</time>
      </trkpt>
      <trkpt lat="48.42102" lon="2.70061">
        <ele>113</ele>
        <time>2011-10-02T10:38:06Z</time>
      </trkpt>
      <trkpt lat="48.42103" lon="2.70059">
        <ele>113</ele>
        <time>2011-10-02T10:38:08Z</time>
      </trkpt>
      <trkpt lat="48.42103" lon="2.70047">
        <ele>113</ele>
        <time>2011-10-02T10:38:15Z</time>
      </trkpt>
      <trkpt lat="48.42093" lon="2.70038">
        <ele>112</ele>
        <time>2011-10-02T10:38:20Z</time>
      </trkpt>
      <trkpt lat="48.42093" lon="2.70028">
        <ele>112</ele>
        <time>2011-10-02T10:38:23Z</time>
      </trkpt>
      <trkpt lat="48.42094" lon="2.70025">
        <ele>112</ele>
        <time>2011-10-02T10:38:24Z</time>
      </trkpt>
      <trkpt lat="48.42095" lon="2.70008">
        <ele>111</ele>
        <time>2011-10-02T10:38:29Z</time>
      </trkpt>
      <trkpt lat="48.42084" lon="2.69995">
        <ele>109</ele>
        <time>2011-10-02T10:38:35Z</time>
      </trkpt>
      <trkpt lat="48.42081" lon="2.69994">
        <ele>108</ele>
        <time>2011-10-02T10:38:36Z</time>
      </trkpt>
      <trkpt lat="48.42067" lon="2.69999">
        <ele>108</ele>
        <time>2011-10-02T10:38:42Z</time>
      </trkpt>
      <trkpt lat="48.42067" lon="2.70001">
        <ele>108</ele>
        <time>2011-10-02T10:38:43Z</time>
      </trkpt>
      <trkpt lat="48.4206" lon="2.70016">
        <ele>108</ele>
        <time>2011-10-02T10:38:48Z</time>
      </trkpt>
      <trkpt lat="48.42056" lon="2.70034">
        <ele>108</ele>
        <time>2011-10-02T10:38:53Z</time>
      </trkpt>
      <trkpt lat="48.42048" lon="2.70061">
        <ele>108</ele>
        <time>2011-10-02T10:39:00Z</time>
      </trkpt>
      <trkpt lat="48.42045" lon="2.7008">
        <ele>108</ele>
        <time>2011-10-02T10:39:04Z</time>
      </trkpt>
      <trkpt lat="48.4204" lon="2.70103">
        <ele>109</ele>
        <time>2011-10-02T10:39:09Z</time>
      </trkpt>
      <trkpt lat="48.42032" lon="2.7013">
        <ele>109</ele>
        <time>2011-10-02T10:39:15Z</time>
      </trkpt>
      <trkpt lat="48.42026" lon="2.70159">
        <ele>109</ele>
        <time>2011-10-02T10:39:21Z</time>
      </trkpt>
      <trkpt lat="48.42021" lon="2.70195">
        <ele>111</ele>
        <time>2011-10-02T10:39:28Z</time>
      </trkpt>
      <trkpt lat="48.42013" lon="2.70229">
        <ele>111</ele>
        <time>2011-10-02T10:39:35Z</time>
      </trkpt>
      <trkpt lat="48.42008" lon="2.70259">
        <ele>111</ele>
        <time>2011-10-02T10:39:41Z</time>
      </trkpt>
      <trkpt lat="48.42011" lon="2.70278">
        <ele>113</ele>
        <time>2011-10-02T10:39:46Z</time>
      </trkpt>
      <trkpt lat="48.42016" lon="2.70291">
        <ele>113</ele>
        <time>2011-10-02T10:39:51Z</time>
      </trkpt>
      <trkpt lat="48.42019" lon="2.70296">
        <ele>113</ele>
        <time>2011-10-02T10:39:53Z</time>
      </trkpt>
      <trkpt lat="48.42026" lon="2.70309">
        <ele>113</ele>
        <time>2011-10-02T10:39:58Z</time>
      </trkpt>
      <trkpt lat="48.4203" lon="2.70326">
        <ele>113</ele>
        <time>2011-10-02T10:40:05Z</time>
      </trkpt>
      <trkpt lat="48.4203" lon="2.7033">
        <ele>113</ele>
        <time>2011-10-02T10:40:06Z</time>
      </trkpt>
      <trkpt lat="48.42033" lon="2.70341">
        <ele>116</ele>
        <time>2011-10-02T10:40:11Z</time>
      </trkpt>
      <trkpt lat="48.42041" lon="2.70354">
        <ele>117</ele>
        <time>2011-10-02T10:40:18Z</time>
      </trkpt>
      <trkpt lat="48.42049" lon="2.70367">
        <ele>118</ele>
        <time>2011-10-02T10:40:24Z</time>
      </trkpt>
      <trkpt lat="48.42054" lon="2.7038">
        <ele>119</ele>
        <time>2011-10-02T10:40:30Z</time>
      </trkpt>
      <trkpt lat="48.42054" lon="2.70382">
        <ele>119</ele>
        <time>2011-10-02T10:40:31Z</time>
      </trkpt>
      <trkpt lat="48.42058" lon="2.70395">
        <ele>120</ele>
        <time>2011-10-02T10:40:38Z</time>
      </trkpt>
      <trkpt lat="48.4206" lon="2.70401">
        <ele>121</ele>
        <time>2011-10-02T10:40:42Z</time>
      </trkpt>
      <trkpt lat="48.42064" lon="2.70412">
        <ele>123</ele>
        <time>2011-10-02T10:40:49Z</time>
      </trkpt>
      <trkpt lat="48.42066" lon="2.70415">
        <ele>123</ele>
        <time>2011-10-02T10:40:55Z</time>
      </trkpt>
      <trkpt lat="48.42066" lon="2.70419">
        <ele>125</ele>
        <time>2011-10-02T10:41:01Z</time>
      </trkpt>
      <trkpt lat="48.42068" lon="2.70421">
        <ele>125</ele>
        <time>2011-10-02T10:41:10Z</time>
      </trkpt>
      <trkpt lat="48.4207" lon="2.70424">
        <ele>126</ele>
        <time>2011-10-02T10:41:16Z</time>
      </trkpt>
      <trkpt lat="48.42073" lon="2.70425">
        <ele>126</ele>
        <time>2011-10-02T10:41:23Z</time>
      </trkpt>
      <trkpt lat="48.42076" lon="2.70427">
        <ele>126</ele>
        <time>2011-10-02T10:41:31Z</time>
      </trkpt>
      <trkpt lat="48.42073" lon="2.70428">
        <ele>126</ele>
        <time>2011-10-02T10:41:42Z</time>
      </trkpt>
      <trkpt lat="48.42074" lon="2.70428">
        <ele>126</ele>
        <time>2011-10-02T10:41:49Z</time>
      </trkpt>
      <trkpt lat="48.42075" lon="2.7043">
        <ele>126</ele>
        <time>2011-10-02T10:41:54Z</time>
      </trkpt>
      <trkpt lat="48.42079" lon="2.70432">
        <ele>126</ele>
        <time>2011-10-02T10:42:04Z</time>
      </trkpt>
      <trkpt lat="48.42094" lon="2.70437">
        <ele>134</ele>
        <time>2011-10-02T10:42:13Z</time>
      </trkpt>
      <trkpt lat="48.42097" lon="2.70444">
        <ele>134</ele>
        <time>2011-10-02T10:42:21Z</time>
      </trkpt>
      <trkpt lat="48.42098" lon="2.70449">
        <ele>135</ele>
        <time>2011-10-02T10:42:28Z</time>
      </trkpt>
      <trkpt lat="48.42101" lon="2.70453">
        <ele>135</ele>
        <time>2011-10-02T10:42:34Z</time>
      </trkpt>
      <trkpt lat="48.42102" lon="2.70457">
        <ele>135</ele>
        <time>2011-10-02T10:42:42Z</time>
      </trkpt>
      <trkpt lat="48.42105" lon="2.70458">
        <ele>136</ele>
        <time>2011-10-02T10:42:48Z</time>
      </trkpt>
      <trkpt lat="48.42109" lon="2.70461">
        <ele>136</ele>
        <time>2011-10-02T10:42:51Z</time>
      </trkpt>
      <trkpt lat="48.42117" lon="2.70466">
        <ele>137</ele>
        <time>2011-10-02T10:42:58Z</time>
      </trkpt>
      <trkpt lat="48.4212" lon="2.70469">
        <ele>137</ele>
        <time>2011-10-02T10:43:01Z</time>
      </trkpt>
      <trkpt lat="48.42125" lon="2.70478">
        <ele>137</ele>
        <time>2011-10-02T10:43:08Z</time>
      </trkpt>
      <trkpt lat="48.42128" lon="2.70488">
        <ele>138</ele>
        <time>2011-10-02T10:43:14Z</time>
      </trkpt>
      <trkpt lat="48.42133" lon="2.70499">
        <ele>139</ele>
        <time>2011-10-02T10:43:18Z</time>
      </trkpt>
      <trkpt lat="48.42138" lon="2.7051">
        <ele>139</ele>
        <time>2011-10-02T10:43:23Z</time>
      </trkpt>
      <trkpt lat="48.42138" lon="2.70522">
        <ele>139</ele>
        <time>2011-10-02T10:43:30Z</time>
      </trkpt>
      <trkpt lat="48.42139" lon="2.70522">
        <ele>139</ele>
        <time>2011-10-02T10:43:43Z</time>
      </trkpt>
      <trkpt lat="48.4214" lon="2.70519">
        <ele>139</ele>
        <time>2011-10-02T10:43:47Z</time>
      </trkpt>
      <trkpt lat="48.42141" lon="2.70516">
        <ele>139</ele>
        <time>2011-10-02T10:43:52Z</time>
      </trkpt>
      <trkpt lat="48.42141" lon="2.70522">
        <ele>139</ele>
        <time>2011-10-02T10:44:14Z</time>
      </trkpt>
      <trkpt lat="48.42144" lon="2.70525">
        <ele>139</ele>
        <time>2011-10-02T10:44:20Z</time>
      </trkpt>
      <trkpt lat="48.42147" lon="2.70525">
        <ele>139</ele>
        <time>2011-10-02T10:44:24Z</time>
      </trkpt>
      <trkpt lat="48.42151" lon="2.70522">
        <ele>140</ele>
        <time>2011-10-02T10:44:30Z</time>
      </trkpt>
      <trkpt lat="48.42153" lon="2.70517">
        <ele>140</ele>
        <time>2011-10-02T10:44:35Z</time>
      </trkpt>
      <trkpt lat="48.42153" lon="2.70516">
        <ele>141</ele>
        <time>2011-10-02T10:44:41Z</time>
      </trkpt>
      <trkpt lat="48.42153" lon="2.70505">
        <ele>141</ele>
        <time>2011-10-02T10:53:57Z</time>
      </trkpt>
      <trkpt lat="48.42154" lon="2.70502">
        <ele>142</ele>
        <time>2011-10-02T10:54:16Z</time>
      </trkpt>
      <trkpt lat="48.42155" lon="2.70503">
        <ele>142</ele>
        <time>2011-10-02T10:54:32Z</time>
      </trkpt>
      <trkpt lat="48.42155" lon="2.70516">
        <ele>141</ele>
        <time>2011-10-02T10:59:57Z</time>
      </trkpt>
      <trkpt lat="48.42154" lon="2.70507">
        <ele>142</ele>
        <time>2011-10-02T11:00:28Z</time>
      </trkpt>
      <trkpt lat="48.42156" lon="2.70509">
        <ele>142</ele>
        <time>2011-10-02T11:00:38Z</time>
      </trkpt>
      <trkpt lat="48.42157" lon="2.70512">
        <ele>141</ele>
        <time>2011-10-02T11:00:43Z</time>
      </trkpt>
      <trkpt lat="48.42157" lon="2.70517">
        <ele>141</ele>
        <time>2011-10-02T11:00:54Z</time>
      </trkpt>
      <trkpt lat="48.42158" lon="2.70518">
        <ele>141</ele>
        <time>2011-10-02T11:01:01Z</time>
      </trkpt>
      <trkpt lat="48.4216" lon="2.70515">
        <ele>141</ele>
        <time>2011-10-02T11:01:07Z</time>
      </trkpt>
      <trkpt lat="48.42163" lon="2.70518">
        <ele>141</ele>
        <time>2011-10-02T11:01:12Z</time>
      </trkpt>
      <trkpt lat="48.4216" lon="2.7053">
        <ele>140</ele>
        <time>2011-10-02T11:01:18Z</time>
      </trkpt>
      <trkpt lat="48.42158" lon="2.70546">
        <ele>139</ele>
        <time>2011-10-02T11:01:24Z</time>
      </trkpt>
      <trkpt lat="48.4216" lon="2.70563">
        <ele>140</ele>
        <time>2011-10-02T11:01:28Z</time>
      </trkpt>
      <trkpt lat="48.42157" lon="2.70576">
        <ele>141</ele>
        <time>2011-10-02T11:01:33Z</time>
      </trkpt>
      <trkpt lat="48.42159" lon="2.70591">
        <ele>140</ele>
        <time>2011-10-02T11:01:38Z</time>
      </trkpt>
      <trkpt lat="48.4216" lon="2.70609">
        <ele>138</ele>
        <time>2011-10-02T11:01:44Z</time>
      </trkpt>
      <trkpt lat="48.42162" lon="2.7062">
        <ele>137</ele>
        <time>2011-10-02T11:01:48Z</time>
      </trkpt>
      <trkpt lat="48.42166" lon="2.70631">
        <ele>137</ele>
        <time>2011-10-02T11:01:50Z</time>
      </trkpt>
      <trkpt lat="48.42163" lon="2.70653">
        <ele>138</ele>
        <time>2011-10-02T11:01:56Z</time>
      </trkpt>
      <trkpt lat="48.42163" lon="2.70661">
        <ele>139</ele>
        <time>2011-10-02T11:01:58Z</time>
      </trkpt>
      <trkpt lat="48.42165" lon="2.7067">
        <ele>140</ele>
        <time>2011-10-02T11:02:02Z</time>
      </trkpt>
      <trkpt lat="48.42164" lon="2.70682">
        <ele>137</ele>
        <time>2011-10-02T11:02:10Z</time>
      </trkpt>
      <trkpt lat="48.42166" lon="2.70683">
        <ele>137</ele>
        <time>2011-10-02T11:02:12Z</time>
      </trkpt>
      <trkpt lat="48.42173" lon="2.70678">
        <ele>142</ele>
        <time>2011-10-02T11:02:17Z</time>
      </trkpt>
      <trkpt lat="48.42175" lon="2.70676">
        <ele>142</ele>
        <time>2011-10-02T11:02:18Z</time>
      </trkpt>
      <trkpt lat="48.42187" lon="2.70681">
        <ele>143</ele>
        <time>2011-10-02T11:02:24Z</time>
      </trkpt>
      <trkpt lat="48.42194" lon="2.70685">
        <ele>143</ele>
        <time>2011-10-02T11:02:26Z</time>
      </trkpt>
      <trkpt lat="48.42201" lon="2.70703">
        <ele>144</ele>
        <time>2011-10-02T11:02:32Z</time>
      </trkpt>
      <trkpt lat="48.42208" lon="2.70729">
        <ele>144</ele>
        <time>2011-10-02T11:02:37Z</time>
      </trkpt>
      <trkpt lat="48.4221" lon="2.7075">
        <ele>143</ele>
        <time>2011-10-02T11:02:41Z</time>
      </trkpt>
      <trkpt lat="48.42214" lon="2.70767">
        <ele>143</ele>
        <time>2011-10-02T11:02:46Z</time>
      </trkpt>
      <trkpt lat="48.42217" lon="2.70792">
        <ele>143</ele>
        <time>2011-10-02T11:02:52Z</time>
      </trkpt>
      <trkpt lat="48.42224" lon="2.70816">
        <ele>143</ele>
        <time>2011-10-02T11:02:57Z</time>
      </trkpt>
      <trkpt lat="48.42231" lon="2.70846">
        <ele>141</ele>
        <time>2011-10-02T11:03:02Z</time>
      </trkpt>
      <trkpt lat="48.42239" lon="2.70866">
        <ele>141</ele>
        <time>2011-10-02T11:03:07Z</time>
      </trkpt>
      <trkpt lat="48.42246" lon="2.70874">
        <ele>140</ele>
        <time>2011-10-02T11:03:11Z</time>
      </trkpt>
      <trkpt lat="48.42253" lon="2.7088">
        <ele>145</ele>
        <time>2011-10-02T11:03:14Z</time>
      </trkpt>
      <trkpt lat="48.4226" lon="2.70894">
        <ele>144</ele>
        <time>2011-10-02T11:03:19Z</time>
      </trkpt>
      <trkpt lat="48.42264" lon="2.709">
        <ele>144</ele>
        <time>2011-10-02T11:03:22Z</time>
      </trkpt>
      <trkpt lat="48.42275" lon="2.709">
        <ele>145</ele>
        <time>2011-10-02T11:03:27Z</time>
      </trkpt>
      <trkpt lat="48.42279" lon="2.70913">
        <ele>144</ele>
        <time>2011-10-02T11:03:31Z</time>
      </trkpt>
      <trkpt lat="48.42279" lon="2.70922">
        <ele>140</ele>
        <time>2011-10-02T11:03:37Z</time>
      </trkpt>
      <trkpt lat="48.42283" lon="2.70923">
        <ele>140</ele>
        <time>2011-10-02T11:03:42Z</time>
      </trkpt>
      <trkpt lat="48.42296" lon="2.70918">
        <ele>140</ele>
        <time>2011-10-02T11:03:49Z</time>
      </trkpt>
      <trkpt lat="48.42306" lon="2.70918">
        <ele>141</ele>
        <time>2011-10-02T11:03:53Z</time>
      </trkpt>
      <trkpt lat="48.42322" lon="2.70912">
        <ele>144</ele>
        <time>2011-10-02T11:03:58Z</time>
      </trkpt>
      <trkpt lat="48.42328" lon="2.7091">
        <ele>144</ele>
        <time>2011-10-02T11:04:00Z</time>
      </trkpt>
      <trkpt lat="48.42344" lon="2.70906">
        <ele>143</ele>
        <time>2011-10-02T11:04:05Z</time>
      </trkpt>
      <trkpt lat="48.42362" lon="2.70896">
        <ele>143</ele>
        <time>2011-10-02T11:04:10Z</time>
      </trkpt>
      <trkpt lat="48.42374" lon="2.70883">
        <ele>143</ele>
        <time>2011-10-02T11:04:15Z</time>
      </trkpt>
      <trkpt lat="48.42385" lon="2.70871">
        <ele>142</ele>
        <time>2011-10-02T11:04:20Z</time>
      </trkpt>
      <trkpt lat="48.42401" lon="2.70867">
        <ele>142</ele>
        <time>2011-10-02T11:04:24Z</time>
      </trkpt>
      <trkpt lat="48.42409" lon="2.70863">
        <ele>142</ele>
        <time>2011-10-02T11:04:28Z</time>
      </trkpt>
      <trkpt lat="48.42409" lon="2.70858">
        <ele>142</ele>
        <time>2011-10-02T11:04:34Z</time>
      </trkpt>
      <trkpt lat="48.42409" lon="2.70857">
        <ele>142</ele>
        <time>2011-10-02T11:04:42Z</time>
      </trkpt>
      <trkpt lat="48.42408" lon="2.70857">
        <ele>142</ele>
        <time>2011-10-02T11:04:53Z</time>
      </trkpt>
      <trkpt lat="48.42409" lon="2.70862">
        <ele>142</ele>
        <time>2011-10-02T11:05:01Z</time>
      </trkpt>
      <trkpt lat="48.42409" lon="2.70861">
        <ele>142</ele>
        <time>2011-10-02T11:05:03Z</time>
      </trkpt>
      <trkpt lat="48.42412" lon="2.70865">
        <ele>142</ele>
        <time>2011-10-02T11:05:08Z</time>
      </trkpt>
      <trkpt lat="48.42411" lon="2.70864">
        <ele>142</ele>
        <time>2011-10-02T11:05:13Z</time>
      </trkpt>
      <trkpt lat="48.42414" lon="2.7086">
        <ele>142</ele>
        <time>2011-10-02T11:05:18Z</time>
      </trkpt>
      <trkpt lat="48.42415" lon="2.70858">
        <ele>142</ele>
        <time>2011-10-02T11:05:20Z</time>
      </trkpt>
      <trkpt lat="48.4242" lon="2.7086">
        <ele>141</ele>
        <time>2011-10-02T11:05:26Z</time>
      </trkpt>
      <trkpt lat="48.42414" lon="2.70877">
        <ele>142</ele>
        <time>2011-10-02T11:05:30Z</time>
      </trkpt>
      <trkpt lat="48.42412" lon="2.70882">
        <ele>142</ele>
        <time>2011-10-02T11:05:35Z</time>
      </trkpt>
      <trkpt lat="48.42413" lon="2.70878">
        <ele>142</ele>
        <time>2011-10-02T11:05:39Z</time>
      </trkpt>
      <trkpt lat="48.42417" lon="2.70867">
        <ele>141</ele>
        <time>2011-10-02T11:05:46Z</time>
      </trkpt>
      <trkpt lat="48.42421" lon="2.70854">
        <ele>140</ele>
        <time>2011-10-02T11:05:51Z</time>
      </trkpt>
      <trkpt lat="48.42421" lon="2.70836">
        <ele>140</ele>
        <time>2011-10-02T11:05:56Z</time>
      </trkpt>
      <trkpt lat="48.42418" lon="2.70817">
        <ele>141</ele>
        <time>2011-10-02T11:06:00Z</time>
      </trkpt>
      <trkpt lat="48.42423" lon="2.70815">
        <ele>141</ele>
        <time>2011-10-02T11:06:04Z</time>
      </trkpt>
      <trkpt lat="48.42435" lon="2.70834">
        <ele>140</ele>
        <time>2011-10-02T11:06:10Z</time>
      </trkpt>
      <trkpt lat="48.42452" lon="2.70851">
        <ele>141</ele>
        <time>2011-10-02T11:06:18Z</time>
      </trkpt>
      <trkpt lat="48.42469" lon="2.70869">
        <ele>141</ele>
        <time>2011-10-02T11:06:26Z</time>
      </trkpt>
      <trkpt lat="48.42488" lon="2.70889">
        <ele>142</ele>
        <time>2011-10-02T11:06:34Z</time>
      </trkpt>
      <trkpt lat="48.42502" lon="2.70909">
        <ele>144</ele>
        <time>2011-10-02T11:06:41Z</time>
      </trkpt>
      <trkpt lat="48.42513" lon="2.70921">
        <ele>146</ele>
        <time>2011-10-02T11:06:46Z</time>
      </trkpt>
      <trkpt lat="48.42516" lon="2.70921">
        <ele>147</ele>
        <time>2011-10-02T11:06:51Z</time>
      </trkpt>
      <trkpt lat="48.42519" lon="2.70922">
        <ele>147</ele>
        <time>2011-10-02T11:06:52Z</time>
      </trkpt>
      <trkpt lat="48.42533" lon="2.70931">
        <ele>148</ele>
        <time>2011-10-02T11:06:57Z</time>
      </trkpt>
      <trkpt lat="48.42549" lon="2.7094">
        <ele>149</ele>
        <time>2011-10-02T11:07:03Z</time>
      </trkpt>
      <trkpt lat="48.42575" lon="2.7095">
        <ele>150</ele>
        <time>2011-10-02T11:07:10Z</time>
      </trkpt>
      <trkpt lat="48.42602" lon="2.70961">
        <ele>152</ele>
        <time>2011-10-02T11:07:18Z</time>
      </trkpt>
      <trkpt lat="48.42621" lon="2.70972">
        <ele>152</ele>
        <time>2011-10-02T11:07:24Z</time>
      </trkpt>
      <trkpt lat="48.42628" lon="2.70981">
        <ele>152</ele>
        <time>2011-10-02T11:07:27Z</time>
      </trkpt>
      <trkpt lat="48.42645" lon="2.70989">
        <ele>153</ele>
        <time>2011-10-02T11:07:32Z</time>
      </trkpt>
      <trkpt lat="48.42662" lon="2.70996">
        <ele>154</ele>
        <time>2011-10-02T11:07:37Z</time>
      </trkpt>
      <trkpt lat="48.4268" lon="2.71003">
        <ele>155</ele>
        <time>2011-10-02T11:07:42Z</time>
      </trkpt>
      <trkpt lat="48.427" lon="2.71015">
        <ele>154</ele>
        <time>2011-10-02T11:07:47Z</time>
      </trkpt>
      <trkpt lat="48.42719" lon="2.71028">
        <ele>154</ele>
        <time>2011-10-02T11:07:52Z</time>
      </trkpt>
      <trkpt lat="48.42723" lon="2.71042">
        <ele>154</ele>
        <time>2011-10-02T11:07:56Z</time>
      </trkpt>
      <trkpt lat="48.42723" lon="2.71046">
        <ele>155</ele>
        <time>2011-10-02T11:07:57Z</time>
      </trkpt>
      <trkpt lat="48.42712" lon="2.71066">
        <ele>155</ele>
        <time>2011-10-02T11:08:02Z</time>
      </trkpt>
      <trkpt lat="48.42705" lon="2.71072">
        <ele>155</ele>
        <time>2011-10-02T11:08:05Z</time>
      </trkpt>
      <trkpt lat="48.42703" lon="2.71075">
        <ele>156</ele>
        <time>2011-10-02T11:08:07Z</time>
      </trkpt>
      <trkpt lat="48.42708" lon="2.71073">
        <ele>155</ele>
        <time>2011-10-02T11:08:12Z</time>
      </trkpt>
      <trkpt lat="48.42713" lon="2.7106">
        <ele>155</ele>
        <time>2011-10-02T11:08:15Z</time>
      </trkpt>
      <trkpt lat="48.42717" lon="2.7105">
        <ele>155</ele>
        <time>2011-10-02T11:08:17Z</time>
      </trkpt>
      <trkpt lat="48.42731" lon="2.71038">
        <ele>154</ele>
        <time>2011-10-02T11:08:22Z</time>
      </trkpt>
      <trkpt lat="48.42744" lon="2.71038">
        <ele>154</ele>
        <time>2011-10-02T11:08:27Z</time>
      </trkpt>
      <trkpt lat="48.42755" lon="2.7104">
        <ele>152</ele>
        <time>2011-10-02T11:08:32Z</time>
      </trkpt>
      <trkpt lat="48.42761" lon="2.71038">
        <ele>152</ele>
        <time>2011-10-02T11:08:36Z</time>
      </trkpt>
      <trkpt lat="48.42755" lon="2.71035">
        <ele>152</ele>
        <time>2011-10-02T11:08:40Z</time>
      </trkpt>
      <trkpt lat="48.42752" lon="2.71035">
        <ele>152</ele>
        <time>2011-10-02T11:08:41Z</time>
      </trkpt>
      <trkpt lat="48.42733" lon="2.71034">
        <ele>154</ele>
        <time>2011-10-02T11:08:47Z</time>
      </trkpt>
      <trkpt lat="48.42728" lon="2.71038">
        <ele>154</ele>
        <time>2011-10-02T11:08:51Z</time>
      </trkpt>
      <trkpt lat="48.42727" lon="2.71039">
        <ele>154</ele>
        <time>2011-10-02T11:08:52Z</time>
      </trkpt>
      <trkpt lat="48.42721" lon="2.71054">
        <ele>155</ele>
        <time>2011-10-02T11:08:58Z</time>
      </trkpt>
      <trkpt lat="48.42705" lon="2.71078">
        <ele>155</ele>
        <time>2011-10-02T11:09:04Z</time>
      </trkpt>
      <trkpt lat="48.42702" lon="2.71082">
        <ele>156</ele>
        <time>2011-10-02T11:09:05Z</time>
      </trkpt>
      <trkpt lat="48.4269" lon="2.71104">
        <ele>157</ele>
        <time>2011-10-02T11:09:10Z</time>
      </trkpt>
      <trkpt lat="48.4268" lon="2.71126">
        <ele>157</ele>
        <time>2011-10-02T11:09:15Z</time>
      </trkpt>
      <trkpt lat="48.4267" lon="2.71147">
        <ele>158</ele>
        <time>2011-10-02T11:09:20Z</time>
      </trkpt>
      <trkpt lat="48.42654" lon="2.71171">
        <ele>158</ele>
        <time>2011-10-02T11:09:26Z</time>
      </trkpt>
      <trkpt lat="48.42644" lon="2.7119">
        <ele>158</ele>
        <time>2011-10-02T11:09:30Z</time>
      </trkpt>
      <trkpt lat="48.42633" lon="2.7122">
        <ele>158</ele>
        <time>2011-10-02T11:09:36Z</time>
      </trkpt>
      <trkpt lat="48.4262" lon="2.71239">
        <ele>158</ele>
        <time>2011-10-02T11:09:40Z</time>
      </trkpt>
      <trkpt lat="48.42606" lon="2.71265">
        <ele>159</ele>
        <time>2011-10-02T11:09:45Z</time>
      </trkpt>
      <trkpt lat="48.42595" lon="2.7129">
        <ele>159</ele>
        <time>2011-10-02T11:09:50Z</time>
      </trkpt>
      <trkpt lat="48.42583" lon="2.71312">
        <ele>159</ele>
        <time>2011-10-02T11:09:55Z</time>
      </trkpt>
      <trkpt lat="48.42567" lon="2.71337">
        <ele>159</ele>
        <time>2011-10-02T11:10:01Z</time>
      </trkpt>
      <trkpt lat="48.4256" lon="2.71352">
        <ele>159</ele>
        <time>2011-10-02T11:10:05Z</time>
      </trkpt>
      <trkpt lat="48.42548" lon="2.71371">
        <ele>159</ele>
        <time>2011-10-02T11:10:09Z</time>
      </trkpt>
      <trkpt lat="48.42547" lon="2.71375">
        <ele>159</ele>
        <time>2011-10-02T11:10:10Z</time>
      </trkpt>
      <trkpt lat="48.42548" lon="2.71393">
        <ele>159</ele>
        <time>2011-10-02T11:10:14Z</time>
      </trkpt>
      <trkpt lat="48.42558" lon="2.71416">
        <ele>159</ele>
        <time>2011-10-02T11:10:19Z</time>
      </trkpt>
      <trkpt lat="48.42571" lon="2.71428">
        <ele>160</ele>
        <time>2011-10-02T11:10:24Z</time>
      </trkpt>
      <trkpt lat="48.42579" lon="2.71433">
        <ele>160</ele>
        <time>2011-10-02T11:10:26Z</time>
      </trkpt>
      <trkpt lat="48.42599" lon="2.71454">
        <ele>160</ele>
        <time>2011-10-02T11:10:32Z</time>
      </trkpt>
      <trkpt lat="48.42616" lon="2.71467">
        <ele>159</ele>
        <time>2011-10-02T11:10:37Z</time>
      </trkpt>
      <trkpt lat="48.42632" lon="2.71484">
        <ele>159</ele>
        <time>2011-10-02T11:10:41Z</time>
      </trkpt>
      <trkpt lat="48.4265" lon="2.71501">
        <ele>158</ele>
        <time>2011-10-02T11:10:46Z</time>
      </trkpt>
      <trkpt lat="48.42669" lon="2.71527">
        <ele>157</ele>
        <time>2011-10-02T11:10:51Z</time>
      </trkpt>
      <trkpt lat="48.42678" lon="2.7155">
        <ele>157</ele>
        <time>2011-10-02T11:10:54Z</time>
      </trkpt>
      <trkpt lat="48.42694" lon="2.71584">
        <ele>157</ele>
        <time>2011-10-02T11:10:59Z</time>
      </trkpt>
      <trkpt lat="48.42702" lon="2.71608">
        <ele>157</ele>
        <time>2011-10-02T11:11:01Z</time>
      </trkpt>
      <trkpt lat="48.42726" lon="2.71621">
        <ele>156</ele>
        <time>2011-10-02T11:11:05Z</time>
      </trkpt>
      <trkpt lat="48.42747" lon="2.7163">
        <ele>156</ele>
        <time>2011-10-02T11:11:09Z</time>
      </trkpt>
      <trkpt lat="48.42772" lon="2.71662">
        <ele>155</ele>
        <time>2011-10-02T11:11:14Z</time>
      </trkpt>
      <trkpt lat="48.42783" lon="2.71691">
        <ele>155</ele>
        <time>2011-10-02T11:11:17Z</time>
      </trkpt>
      <trkpt lat="48.42781" lon="2.71717">
        <ele>155</ele>
        <time>2011-10-02T11:11:21Z</time>
      </trkpt>
      <trkpt lat="48.42783" lon="2.71733">
        <ele>154</ele>
        <time>2011-10-02T11:11:23Z</time>
      </trkpt>
      <trkpt lat="48.42789" lon="2.71774">
        <ele>153</ele>
        <time>2011-10-02T11:11:28Z</time>
      </trkpt>
      <trkpt lat="48.42791" lon="2.71784">
        <ele>153</ele>
        <time>2011-10-02T11:11:29Z</time>
      </trkpt>
      <trkpt lat="48.42795" lon="2.71814">
        <ele>152</ele>
        <time>2011-10-02T11:11:34Z</time>
      </trkpt>
      <trkpt lat="48.42798" lon="2.71814">
        <ele>152</ele>
        <time>2011-10-02T11:11:40Z</time>
      </trkpt>
      <trkpt lat="48.42806" lon="2.71814">
        <ele>152</ele>
        <time>2011-10-02T11:11:44Z</time>
      </trkpt>
      <trkpt lat="48.42827" lon="2.71811">
        <ele>152</ele>
        <time>2011-10-02T11:11:50Z</time>
      </trkpt>
      <trkpt lat="48.42844" lon="2.71814">
        <ele>151</ele>
        <time>2011-10-02T11:11:55Z</time>
      </trkpt>
      <trkpt lat="48.42862" lon="2.7181">
        <ele>151</ele>
        <time>2011-10-02T11:12:00Z</time>
      </trkpt>
      <trkpt lat="48.42866" lon="2.71811">
        <ele>150</ele>
        <time>2011-10-02T11:12:01Z</time>
      </trkpt>
      <trkpt lat="48.42877" lon="2.7181">
        <ele>150</ele>
        <time>2011-10-02T11:12:03Z</time>
      </trkpt>
      <trkpt lat="48.42898" lon="2.71822">
        <ele>149</ele>
        <time>2011-10-02T11:12:07Z</time>
      </trkpt>
      <trkpt lat="48.42914" lon="2.7183">
        <ele>148</ele>
        <time>2011-10-02T11:12:10Z</time>
      </trkpt>
      <trkpt lat="48.42951" lon="2.7184">
        <ele>145</ele>
        <time>2011-10-02T11:12:16Z</time>
      </trkpt>
      <trkpt lat="48.42959" lon="2.71846">
        <ele>145</ele>
        <time>2011-10-02T11:12:18Z</time>
      </trkpt>
      <trkpt lat="48.42974" lon="2.71864">
        <ele>144</ele>
        <time>2011-10-02T11:12:22Z</time>
      </trkpt>
      <trkpt lat="48.43004" lon="2.71874">
        <ele>142</ele>
        <time>2011-10-02T11:12:28Z</time>
      </trkpt>
      <trkpt lat="48.43016" lon="2.71874">
        <ele>142</ele>
        <time>2011-10-02T11:12:31Z</time>
      </trkpt>
      <trkpt lat="48.43042" lon="2.71874">
        <ele>142</ele>
        <time>2011-10-02T11:12:36Z</time>
      </trkpt>
      <trkpt lat="48.43046" lon="2.71874">
        <ele>142</ele>
        <time>2011-10-02T11:12:37Z</time>
      </trkpt>
      <trkpt lat="48.43061" lon="2.71882">
        <ele>142</ele>
        <time>2011-10-02T11:12:40Z</time>
      </trkpt>
      <trkpt lat="48.4308" lon="2.71905">
        <ele>141</ele>
        <time>2011-10-02T11:12:44Z</time>
      </trkpt>
      <trkpt lat="48.43103" lon="2.71937">
        <ele>138</ele>
        <time>2011-10-02T11:12:49Z</time>
      </trkpt>
      <trkpt lat="48.43118" lon="2.71954">
        <ele>138</ele>
        <time>2011-10-02T11:12:52Z</time>
      </trkpt>
      <trkpt lat="48.43149" lon="2.71976">
        <ele>136</ele>
        <time>2011-10-02T11:12:57Z</time>
      </trkpt>
      <trkpt lat="48.43161" lon="2.71986">
        <ele>135</ele>
        <time>2011-10-02T11:12:59Z</time>
      </trkpt>
      <trkpt lat="48.43186" lon="2.71999">
        <ele>131</ele>
        <time>2011-10-02T11:13:03Z</time>
      </trkpt>
      <trkpt lat="48.4321" lon="2.72016">
        <ele>129</ele>
        <time>2011-10-02T11:13:08Z</time>
      </trkpt>
      <trkpt lat="48.43218" lon="2.72027">
        <ele>129</ele>
        <time>2011-10-02T11:13:10Z</time>
      </trkpt>
      <trkpt lat="48.43235" lon="2.72052">
        <ele>128</ele>
        <time>2011-10-02T11:13:15Z</time>
      </trkpt>
      <trkpt lat="48.43251" lon="2.72071">
        <ele>125</ele>
        <time>2011-10-02T11:13:20Z</time>
      </trkpt>
      <trkpt lat="48.43268" lon="2.72084">
        <ele>124</ele>
        <time>2011-10-02T11:13:24Z</time>
      </trkpt>
      <trkpt lat="48.43273" lon="2.72087">
        <ele>124</ele>
        <time>2011-10-02T11:13:25Z</time>
      </trkpt>
      <trkpt lat="48.4329" lon="2.72108">
        <ele>123</ele>
        <time>2011-10-02T11:13:28Z</time>
      </trkpt>
      <trkpt lat="48.43302" lon="2.72116">
        <ele>122</ele>
        <time>2011-10-02T11:13:30Z</time>
      </trkpt>
      <trkpt lat="48.43304" lon="2.72127">
        <ele>122</ele>
        <time>2011-10-02T11:13:34Z</time>
      </trkpt>
      <trkpt lat="48.43308" lon="2.72121">
        <ele>122</ele>
        <time>2011-10-02T11:13:47Z</time>
      </trkpt>
      <trkpt lat="48.43311" lon="2.72118">
        <ele>122</ele>
        <time>2011-10-02T11:14:14Z</time>
      </trkpt>
      <trkpt lat="48.43318" lon="2.72127">
        <ele>122</ele>
        <time>2011-10-02T11:14:20Z</time>
      </trkpt>
      <trkpt lat="48.43315" lon="2.72134">
        <ele>122</ele>
        <time>2011-10-02T11:14:25Z</time>
      </trkpt>
      <trkpt lat="48.43312" lon="2.72148">
        <ele>122</ele>
        <time>2011-10-02T11:14:31Z</time>
      </trkpt>
      <trkpt lat="48.43307" lon="2.72164">
        <ele>122</ele>
        <time>2011-10-02T11:14:36Z</time>
      </trkpt>
      <trkpt lat="48.43296" lon="2.72195">
        <ele>124</ele>
        <time>2011-10-02T11:14:42Z</time>
      </trkpt>
      <trkpt lat="48.4329" lon="2.72214">
        <ele>124</ele>
        <time>2011-10-02T11:14:46Z</time>
      </trkpt>
      <trkpt lat="48.43278" lon="2.7225">
        <ele>126</ele>
        <time>2011-10-02T11:14:53Z</time>
      </trkpt>
      <trkpt lat="48.4327" lon="2.7228">
        <ele>126</ele>
        <time>2011-10-02T11:14:59Z</time>
      </trkpt>
      <trkpt lat="48.43263" lon="2.72307">
        <ele>125</ele>
        <time>2011-10-02T11:15:04Z</time>
      </trkpt>
      <trkpt lat="48.43258" lon="2.72329">
        <ele>125</ele>
        <time>2011-10-02T11:15:08Z</time>
      </trkpt>
      <trkpt lat="48.43246" lon="2.72357">
        <ele>126</ele>
        <time>2011-10-02T11:15:14Z</time>
      </trkpt>
      <trkpt lat="48.43237" lon="2.72394">
        <ele>125</ele>
        <time>2011-10-02T11:15:18Z</time>
      </trkpt>
      <trkpt lat="48.43226" lon="2.72431">
        <ele>123</ele>
        <time>2011-10-02T11:15:23Z</time>
      </trkpt>
      <trkpt lat="48.43219" lon="2.72453">
        <ele>123</ele>
        <time>2011-10-02T11:15:27Z</time>
      </trkpt>
      <trkpt lat="48.43209" lon="2.72481">
        <ele>122</ele>
        <time>2011-10-02T11:15:31Z</time>
      </trkpt>
      <trkpt lat="48.43203" lon="2.72494">
        <ele>122</ele>
        <time>2011-10-02T11:15:33Z</time>
      </trkpt>
      <trkpt lat="48.43194" lon="2.72525">
        <ele>119</ele>
        <time>2011-10-02T11:15:37Z</time>
      </trkpt>
      <trkpt lat="48.43191" lon="2.72555">
        <ele>119</ele>
        <time>2011-10-02T11:15:42Z</time>
      </trkpt>
      <trkpt lat="48.43198" lon="2.72553">
        <ele>118</ele>
        <time>2011-10-02T11:15:45Z</time>
      </trkpt>
      <trkpt lat="48.43202" lon="2.72543">
        <ele>119</ele>
        <time>2011-10-02T11:15:48Z</time>
      </trkpt>
      <trkpt lat="48.43213" lon="2.72526">
        <ele>119</ele>
        <time>2011-10-02T11:15:54Z</time>
      </trkpt>
      <trkpt lat="48.43224" lon="2.72506">
        <ele>119</ele>
        <time>2011-10-02T11:15:59Z</time>
      </trkpt>
      <trkpt lat="48.43236" lon="2.72486">
        <ele>121</ele>
        <time>2011-10-02T11:16:04Z</time>
      </trkpt>
      <trkpt lat="48.4325" lon="2.72467">
        <ele>121</ele>
        <time>2011-10-02T11:16:09Z</time>
      </trkpt>
      <trkpt lat="48.43264" lon="2.72452">
        <ele>122</ele>
        <time>2011-10-02T11:16:13Z</time>
      </trkpt>
      <trkpt lat="48.43279" lon="2.72442">
        <ele>122</ele>
        <time>2011-10-02T11:16:18Z</time>
      </trkpt>
      <trkpt lat="48.43299" lon="2.72442">
        <ele>123</ele>
        <time>2011-10-02T11:16:25Z</time>
      </trkpt>
      <trkpt lat="48.43314" lon="2.72451">
        <ele>123</ele>
        <time>2011-10-02T11:16:31Z</time>
      </trkpt>
      <trkpt lat="48.43322" lon="2.72463">
        <ele>123</ele>
        <time>2011-10-02T11:16:36Z</time>
      </trkpt>
      <trkpt lat="48.43329" lon="2.72479">
        <ele>123</ele>
        <time>2011-10-02T11:16:41Z</time>
      </trkpt>
      <trkpt lat="48.43339" lon="2.72504">
        <ele>124</ele>
        <time>2011-10-02T11:16:48Z</time>
      </trkpt>
      <trkpt lat="48.43344" lon="2.72524">
        <ele>125</ele>
        <time>2011-10-02T11:16:54Z</time>
      </trkpt>
      <trkpt lat="48.43344" lon="2.72548">
        <ele>125</ele>
        <time>2011-10-02T11:17:00Z</time>
      </trkpt>
      <trkpt lat="48.43345" lon="2.72566">
        <ele>124</ele>
        <time>2011-10-02T11:17:05Z</time>
      </trkpt>
      <trkpt lat="48.43348" lon="2.72589">
        <ele>123</ele>
        <time>2011-10-02T11:17:11Z</time>
      </trkpt>
      <trkpt lat="48.43349" lon="2.72606">
        <ele>123</ele>
        <time>2011-10-02T11:17:15Z</time>
      </trkpt>
      <trkpt lat="48.43354" lon="2.72639">
        <ele>123</ele>
        <time>2011-10-02T11:17:23Z</time>
      </trkpt>
      <trkpt lat="48.43357" lon="2.72646">
        <ele>123</ele>
        <time>2011-10-02T11:17:25Z</time>
      </trkpt>
      <trkpt lat="48.43371" lon="2.72663">
        <ele>123</ele>
        <time>2011-10-02T11:17:32Z</time>
      </trkpt>
      <trkpt lat="48.43383" lon="2.72662">
        <ele>124</ele>
        <time>2011-10-02T11:17:37Z</time>
      </trkpt>
      <trkpt lat="48.43394" lon="2.72646">
        <ele>125</ele>
        <time>2011-10-02T11:17:43Z</time>
      </trkpt>
      <trkpt lat="48.43402" lon="2.72626">
        <ele>125</ele>
        <time>2011-10-02T11:17:49Z</time>
      </trkpt>
      <trkpt lat="48.43403" lon="2.72604">
        <ele>126</ele>
        <time>2011-10-02T11:17:55Z</time>
      </trkpt>
      <trkpt lat="48.43401" lon="2.72591">
        <ele>126</ele>
        <time>2011-10-02T11:18:01Z</time>
      </trkpt>
      <trkpt lat="48.43395" lon="2.72577">
        <ele>127</ele>
        <time>2011-10-02T11:18:09Z</time>
      </trkpt>
      <trkpt lat="48.43395" lon="2.72575">
        <ele>127</ele>
        <time>2011-10-02T11:18:12Z</time>
      </trkpt>
      <trkpt lat="48.43394" lon="2.72585">
        <ele>126</ele>
        <time>2011-10-02T11:18:18Z</time>
      </trkpt>
      <trkpt lat="48.434" lon="2.72599">
        <ele>126</ele>
        <time>2011-10-02T11:18:26Z</time>
      </trkpt>
      <trkpt lat="48.43403" lon="2.72601">
        <ele>126</ele>
        <time>2011-10-02T11:18:31Z</time>
      </trkpt>
      <trkpt lat="48.43404" lon="2.72598">
        <ele>126</ele>
        <time>2011-10-02T11:18:35Z</time>
      </trkpt>
      <trkpt lat="48.434" lon="2.72587">
        <ele>126</ele>
        <time>2011-10-02T11:18:39Z</time>
      </trkpt>
      <trkpt lat="48.43398" lon="2.72585">
        <ele>126</ele>
        <time>2011-10-02T11:18:40Z</time>
      </trkpt>
      <trkpt lat="48.43391" lon="2.72575">
        <ele>126</ele>
        <time>2011-10-02T11:18:44Z</time>
      </trkpt>
      <trkpt lat="48.43386" lon="2.72575">
        <ele>126</ele>
        <time>2011-10-02T11:18:48Z</time>
      </trkpt>
      <trkpt lat="48.43386" lon="2.72577">
        <ele>126</ele>
        <time>2011-10-02T11:19:06Z</time>
      </trkpt>
      <trkpt lat="48.43388" lon="2.72576">
        <ele>126</ele>
        <time>2011-10-02T11:20:11Z</time>
      </trkpt>
      <trkpt lat="48.43384" lon="2.72582">
        <ele>126</ele>
        <time>2011-10-02T11:20:18Z</time>
      </trkpt>
      <trkpt lat="48.43382" lon="2.72585">
        <ele>125</ele>
        <time>2011-10-02T11:20:27Z</time>
      </trkpt>
      <trkpt lat="48.4338" lon="2.72587">
        <ele>125</ele>
        <time>2011-10-02T11:20:45Z</time>
      </trkpt>
      <trkpt lat="48.4338" lon="2.72589">
        <ele>125</ele>
        <time>2011-10-02T11:25:51Z</time>
      </trkpt>
      <trkpt lat="48.43382" lon="2.72585">
        <ele>125</ele>
        <time>2011-10-02T11:26:15Z</time>
      </trkpt>
      <trkpt lat="48.43381" lon="2.72581">
        <ele>126</ele>
        <time>2011-10-02T11:26:52Z</time>
      </trkpt>
      <trkpt lat="48.43383" lon="2.72582">
        <ele>126</ele>
        <time>2011-10-02T11:28:13Z</time>
      </trkpt>
      <trkpt lat="48.43391" lon="2.72592">
        <ele>125</ele>
        <time>2011-10-02T11:28:20Z</time>
      </trkpt>
      <trkpt lat="48.43402" lon="2.72599">
        <ele>126</ele>
        <time>2011-10-02T11:28:26Z</time>
      </trkpt>
      <trkpt lat="48.43407" lon="2.72601">
        <ele>126</ele>
        <time>2011-10-02T11:28:31Z</time>
      </trkpt>
      <trkpt lat="48.43408" lon="2.72602">
        <ele>126</ele>
        <time>2011-10-02T11:28:37Z</time>
      </trkpt>
      <trkpt lat="48.4341" lon="2.72601">
        <ele>126</ele>
        <time>2011-10-02T11:28:43Z</time>
      </trkpt>
      <trkpt lat="48.43413" lon="2.72603">
        <ele>126</ele>
        <time>2011-10-02T11:28:50Z</time>
      </trkpt>
      <trkpt lat="48.43413" lon="2.72606">
        <ele>126</ele>
        <time>2011-10-02T11:28:58Z</time>
      </trkpt>
      <trkpt lat="48.43414" lon="2.72607">
        <ele>126</ele>
        <time>2011-10-02T11:29:03Z</time>
      </trkpt>
      <trkpt lat="48.43419" lon="2.72613">
        <ele>125</ele>
        <time>2011-10-02T11:29:08Z</time>
      </trkpt>
      <trkpt lat="48.43421" lon="2.72612">
        <ele>125</ele>
        <time>2011-10-02T11:29:10Z</time>
      </trkpt>
      <trkpt lat="48.43424" lon="2.72607">
        <ele>125</ele>
        <time>2011-10-02T11:29:16Z</time>
      </trkpt>
      <trkpt lat="48.43424" lon="2.72604">
        <ele>125</ele>
        <time>2011-10-02T11:29:30Z</time>
      </trkpt>
      <trkpt lat="48.43422" lon="2.72603">
        <ele>125</ele>
        <time>2011-10-02T11:29:48Z</time>
      </trkpt>
      <trkpt lat="48.4342" lon="2.72604">
        <ele>125</ele>
        <time>2011-10-02T11:30:05Z</time>
      </trkpt>
      <trkpt lat="48.43431" lon="2.72607">
        <ele>124</ele>
        <time>2011-10-02T11:30:10Z</time>
      </trkpt>
      <trkpt lat="48.43439" lon="2.72608">
        <ele>124</ele>
        <time>2011-10-02T11:30:12Z</time>
      </trkpt>
      <trkpt lat="48.43461" lon="2.72622">
        <ele>122</ele>
        <time>2011-10-02T11:30:18Z</time>
      </trkpt>
      <trkpt lat="48.43476" lon="2.72642">
        <ele>121</ele>
        <time>2011-10-02T11:30:23Z</time>
      </trkpt>
      <trkpt lat="48.43482" lon="2.72647">
        <ele>121</ele>
        <time>2011-10-02T11:30:26Z</time>
      </trkpt>
      <trkpt lat="48.43494" lon="2.72656">
        <ele>119</ele>
        <time>2011-10-02T11:30:31Z</time>
      </trkpt>
      <trkpt lat="48.43514" lon="2.72673">
        <ele>115</ele>
        <time>2011-10-02T11:30:36Z</time>
      </trkpt>
      <trkpt lat="48.4353" lon="2.72692">
        <ele>114</ele>
        <time>2011-10-02T11:30:41Z</time>
      </trkpt>
      <trkpt lat="48.43537" lon="2.727">
        <ele>113</ele>
        <time>2011-10-02T11:30:45Z</time>
      </trkpt>
      <trkpt lat="48.43543" lon="2.7271">
        <ele>113</ele>
        <time>2011-10-02T11:30:50Z</time>
      </trkpt>
      <trkpt lat="48.43543" lon="2.72713">
        <ele>113</ele>
        <time>2011-10-02T11:30:55Z</time>
      </trkpt>
      <trkpt lat="48.43545" lon="2.72715">
        <ele>112</ele>
        <time>2011-10-02T11:31:19Z</time>
      </trkpt>
      <trkpt lat="48.43544" lon="2.72719">
        <ele>112</ele>
        <time>2011-10-02T11:31:44Z</time>
      </trkpt>
      <trkpt lat="48.43544" lon="2.72713">
        <ele>113</ele>
        <time>2011-10-02T11:32:23Z</time>
      </trkpt>
      <trkpt lat="48.43537" lon="2.72726">
        <ele>113</ele>
        <time>2011-10-02T11:32:29Z</time>
      </trkpt>
      <trkpt lat="48.43529" lon="2.72744">
        <ele>113</ele>
        <time>2011-10-02T11:32:34Z</time>
      </trkpt>
      <trkpt lat="48.43523" lon="2.72755">
        <ele>111</ele>
        <time>2011-10-02T11:32:38Z</time>
      </trkpt>
      <trkpt lat="48.43527" lon="2.72764">
        <ele>111</ele>
        <time>2011-10-02T11:32:42Z</time>
      </trkpt>
      <trkpt lat="48.43529" lon="2.72768">
        <ele>111</ele>
        <time>2011-10-02T11:32:44Z</time>
      </trkpt>
      <trkpt lat="48.43532" lon="2.7277">
        <ele>110</ele>
        <time>2011-10-02T11:32:46Z</time>
      </trkpt>
      <trkpt lat="48.43539" lon="2.72789">
        <ele>109</ele>
        <time>2011-10-02T11:32:51Z</time>
      </trkpt>
      <trkpt lat="48.43548" lon="2.72801">
        <ele>109</ele>
        <time>2011-10-02T11:32:55Z</time>
      </trkpt>
      <trkpt lat="48.43551" lon="2.72809">
        <ele>108</ele>
        <time>2011-10-02T11:32:59Z</time>
      </trkpt>
      <trkpt lat="48.43561" lon="2.72815">
        <ele>107</ele>
        <time>2011-10-02T11:33:04Z</time>
      </trkpt>
      <trkpt lat="48.43569" lon="2.72825">
        <ele>106</ele>
        <time>2011-10-02T11:33:07Z</time>
      </trkpt>
      <trkpt lat="48.43583" lon="2.72839">
        <ele>104</ele>
        <time>2011-10-02T11:33:12Z</time>
      </trkpt>
      <trkpt lat="48.43587" lon="2.72839">
        <ele>103</ele>
        <time>2011-10-02T11:33:16Z</time>
      </trkpt>
      <trkpt lat="48.43586" lon="2.72839">
        <ele>103</ele>
        <time>2011-10-02T11:33:27Z</time>
      </trkpt>
      <trkpt lat="48.43585" lon="2.72843">
        <ele>103</ele>
        <time>2011-10-02T11:33:57Z</time>
      </trkpt>
      <trkpt lat="48.43584" lon="2.72846">
        <ele>103</ele>
        <time>2011-10-02T11:34:14Z</time>
      </trkpt>
      <trkpt lat="48.43589" lon="2.72851">
        <ele>103</ele>
        <time>2011-10-02T11:34:19Z</time>
      </trkpt>
      <trkpt lat="48.43593" lon="2.72856">
        <ele>104</ele>
        <time>2011-10-02T11:34:22Z</time>
      </trkpt>
      <trkpt lat="48.43605" lon="2.72856">
        <ele>104</ele>
        <time>2011-10-02T11:34:28Z</time>
      </trkpt>
      <trkpt lat="48.43614" lon="2.72861">
        <ele>104</ele>
        <time>2011-10-02T11:34:32Z</time>
      </trkpt>
      <trkpt lat="48.43622" lon="2.72864">
        <ele>104</ele>
        <time>2011-10-02T11:34:36Z</time>
      </trkpt>
      <trkpt lat="48.4363" lon="2.72872">
        <ele>104</ele>
        <time>2011-10-02T11:34:41Z</time>
      </trkpt>
      <trkpt lat="48.43634" lon="2.72878">
        <ele>104</ele>
        <time>2011-10-02T11:34:45Z</time>
      </trkpt>
      <trkpt lat="48.43641" lon="2.7288">
        <ele>104</ele>
        <time>2011-10-02T11:34:51Z</time>
      </trkpt>
      <trkpt lat="48.43648" lon="2.72884">
        <ele>104</ele>
        <time>2011-10-02T11:34:55Z</time>
      </trkpt>
      <trkpt lat="48.43658" lon="2.72886">
        <ele>104</ele>
        <time>2011-10-02T11:35:01Z</time>
      </trkpt>
      <trkpt lat="48.43663" lon="2.72889">
        <ele>104</ele>
        <time>2011-10-02T11:35:04Z</time>
      </trkpt>
      <trkpt lat="48.43671" lon="2.72889">
        <ele>102</ele>
        <time>2011-10-02T11:35:09Z</time>
      </trkpt>
      <trkpt lat="48.43671" lon="2.72888">
        <ele>102</ele>
        <time>2011-10-02T11:35:10Z</time>
      </trkpt>
      <trkpt lat="48.43673" lon="2.72879">
        <ele>102</ele>
        <time>2011-10-02T11:35:14Z</time>
      </trkpt>
      <trkpt lat="48.4368" lon="2.7287">
        <ele>102</ele>
        <time>2011-10-02T11:35:21Z</time>
      </trkpt>
      <trkpt lat="48.43681" lon="2.72863">
        <ele>102</ele>
        <time>2011-10-02T11:35:32Z</time>
      </trkpt>
      <trkpt lat="48.43688" lon="2.72846">
        <ele>102</ele>
        <time>2011-10-02T11:35:37Z</time>
      </trkpt>
      <trkpt lat="48.43689" lon="2.72842">
        <ele>102</ele>
        <time>2011-10-02T11:35:38Z</time>
      </trkpt>
      <trkpt lat="48.43682" lon="2.7282">
        <ele>105</ele>
        <time>2011-10-02T11:35:43Z</time>
      </trkpt>
      <trkpt lat="48.43681" lon="2.72804">
        <ele>104</ele>
        <time>2011-10-02T11:35:46Z</time>
      </trkpt>
      <trkpt lat="48.43689" lon="2.72794">
        <ele>104</ele>
        <time>2011-10-02T11:35:52Z</time>
      </trkpt>
      <trkpt lat="48.43689" lon="2.72793">
        <ele>104</ele>
        <time>2011-10-02T11:35:55Z</time>
      </trkpt>
      <trkpt lat="48.4369" lon="2.72791">
        <ele>104</ele>
        <time>2011-10-02T11:36:01Z</time>
      </trkpt>
      <trkpt lat="48.43694" lon="2.72784">
        <ele>104</ele>
        <time>2011-10-02T11:36:12Z</time>
      </trkpt>
      <trkpt lat="48.437" lon="2.72771">
        <ele>104</ele>
        <time>2011-10-02T11:36:16Z</time>
      </trkpt>
      <trkpt lat="48.43701" lon="2.72769">
        <ele>104</ele>
        <time>2011-10-02T11:36:17Z</time>
      </trkpt>
      <trkpt lat="48.43705" lon="2.72755">
        <ele>104</ele>
        <time>2011-10-02T11:36:22Z</time>
      </trkpt>
      <trkpt lat="48.43705" lon="2.72753">
        <ele>104</ele>
        <time>2011-10-02T11:36:23Z</time>
      </trkpt>
      <trkpt lat="48.43706" lon="2.72742">
        <ele>106</ele>
        <time>2011-10-02T11:36:29Z</time>
      </trkpt>
      <trkpt lat="48.43703" lon="2.72735">
        <ele>106</ele>
        <time>2011-10-02T11:36:32Z</time>
      </trkpt>
      <trkpt lat="48.43705" lon="2.72729">
        <ele>106</ele>
        <time>2011-10-02T11:36:39Z</time>
      </trkpt>
      <trkpt lat="48.43705" lon="2.72725">
        <ele>106</ele>
        <time>2011-10-02T11:36:41Z</time>
      </trkpt>
      <trkpt lat="48.43707" lon="2.72715">
        <ele>106</ele>
        <time>2011-10-02T11:36:46Z</time>
      </trkpt>
      <trkpt lat="48.43711" lon="2.72708">
        <ele>106</ele>
        <time>2011-10-02T11:36:55Z</time>
      </trkpt>
      <trkpt lat="48.43714" lon="2.72703">
        <ele>106</ele>
        <time>2011-10-02T11:37:07Z</time>
      </trkpt>
      <trkpt lat="48.43715" lon="2.72699">
        <ele>106</ele>
        <time>2011-10-02T11:37:09Z</time>
      </trkpt>
      <trkpt lat="48.43718" lon="2.72683">
        <ele>106</ele>
        <time>2011-10-02T11:37:13Z</time>
      </trkpt>
      <trkpt lat="48.43723" lon="2.72674">
        <ele>106</ele>
        <time>2011-10-02T11:37:17Z</time>
      </trkpt>
      <trkpt lat="48.43717" lon="2.7267">
        <ele>106</ele>
        <time>2011-10-02T11:37:21Z</time>
      </trkpt>
      <trkpt lat="48.43714" lon="2.72654">
        <ele>108</ele>
        <time>2011-10-02T11:37:25Z</time>
      </trkpt>
      <trkpt lat="48.43713" lon="2.72636">
        <ele>108</ele>
        <time>2011-10-02T11:37:29Z</time>
      </trkpt>
      <trkpt lat="48.43713" lon="2.72627">
        <ele>108</ele>
        <time>2011-10-02T11:37:32Z</time>
      </trkpt>
      <trkpt lat="48.43715" lon="2.72606">
        <ele>108</ele>
        <time>2011-10-02T11:37:37Z</time>
      </trkpt>
      <trkpt lat="48.43718" lon="2.72597">
        <ele>108</ele>
        <time>2011-10-02T11:37:41Z</time>
      </trkpt>
      <trkpt lat="48.4372" lon="2.72595">
        <ele>108</ele>
        <time>2011-10-02T11:37:49Z</time>
      </trkpt>
      <trkpt lat="48.43722" lon="2.72594">
        <ele>108</ele>
        <time>2011-10-02T11:37:54Z</time>
      </trkpt>
      <trkpt lat="48.43728" lon="2.72588">
        <ele>108</ele>
        <time>2011-10-02T11:38:00Z</time>
      </trkpt>
      <trkpt lat="48.4373" lon="2.72587">
        <ele>108</ele>
        <time>2011-10-02T11:38:02Z</time>
      </trkpt>
      <trkpt lat="48.43733" lon="2.72581">
        <ele>108</ele>
        <time>2011-10-02T11:38:06Z</time>
      </trkpt>
      <trkpt lat="48.43733" lon="2.72578">
        <ele>108</ele>
        <time>2011-10-02T11:38:11Z</time>
      </trkpt>
      <trkpt lat="48.4373" lon="2.7257">
        <ele>108</ele>
        <time>2011-10-02T11:38:16Z</time>
      </trkpt>
      <trkpt lat="48.43731" lon="2.72564">
        <ele>108</ele>
        <time>2011-10-02T11:38:18Z</time>
      </trkpt>
      <trkpt lat="48.43733" lon="2.72555">
        <ele>108</ele>
        <time>2011-10-02T11:38:24Z</time>
      </trkpt>
      <trkpt lat="48.43737" lon="2.72553">
        <ele>108</ele>
        <time>2011-10-02T11:38:45Z</time>
      </trkpt>
      <trkpt lat="48.43745" lon="2.72546">
        <ele>108</ele>
        <time>2011-10-02T11:38:49Z</time>
      </trkpt>
      <trkpt lat="48.43752" lon="2.72543">
        <ele>105</ele>
        <time>2011-10-02T11:38:52Z</time>
      </trkpt>
      <trkpt lat="48.43762" lon="2.72526">
        <ele>105</ele>
        <time>2011-10-02T11:38:58Z</time>
      </trkpt>
      <trkpt lat="48.43762" lon="2.72521">
        <ele>105</ele>
        <time>2011-10-02T11:38:59Z</time>
      </trkpt>
      <trkpt lat="48.43764" lon="2.725">
        <ele>106</ele>
        <time>2011-10-02T11:39:04Z</time>
      </trkpt>
      <trkpt lat="48.43771" lon="2.72488">
        <ele>106</ele>
        <time>2011-10-02T11:39:08Z</time>
      </trkpt>
      <trkpt lat="48.43776" lon="2.72488">
        <ele>106</ele>
        <time>2011-10-02T11:39:12Z</time>
      </trkpt>
      <trkpt lat="48.43778" lon="2.72483">
        <ele>106</ele>
        <time>2011-10-02T11:39:16Z</time>
      </trkpt>
      <trkpt lat="48.43776" lon="2.72474">
        <ele>106</ele>
        <time>2011-10-02T11:39:21Z</time>
      </trkpt>
      <trkpt lat="48.43776" lon="2.72461">
        <ele>106</ele>
        <time>2011-10-02T11:39:25Z</time>
      </trkpt>
      <trkpt lat="48.43776" lon="2.72457">
        <ele>106</ele>
        <time>2011-10-02T11:39:26Z</time>
      </trkpt>
      <trkpt lat="48.43774" lon="2.72443">
        <ele>106</ele>
        <time>2011-10-02T11:39:29Z</time>
      </trkpt>
      <trkpt lat="48.43773" lon="2.72424">
        <ele>106</ele>
        <time>2011-10-02T11:39:33Z</time>
      </trkpt>
      <trkpt lat="48.43773" lon="2.72418">
        <ele>106</ele>
        <time>2011-10-02T11:39:38Z</time>
      </trkpt>
      <trkpt lat="48.43774" lon="2.72411">
        <ele>107</ele>
        <time>2011-10-02T11:40:05Z</time>
      </trkpt>
      <trkpt lat="48.43774" lon="2.72412">
        <ele>107</ele>
        <time>2011-10-02T11:40:19Z</time>
      </trkpt>
      <trkpt lat="48.43774" lon="2.72407">
        <ele>107</ele>
        <time>2011-10-02T11:40:22Z</time>
      </trkpt>
      <trkpt lat="48.43771" lon="2.72395">
        <ele>107</ele>
        <time>2011-10-02T11:40:27Z</time>
      </trkpt>
      <trkpt lat="48.43769" lon="2.72377">
        <ele>107</ele>
        <time>2011-10-02T11:40:31Z</time>
      </trkpt>
      <trkpt lat="48.43765" lon="2.72355">
        <ele>107</ele>
        <time>2011-10-02T11:40:37Z</time>
      </trkpt>
      <trkpt lat="48.4377" lon="2.72346">
        <ele>107</ele>
        <time>2011-10-02T11:40:41Z</time>
      </trkpt>
      <trkpt lat="48.43773" lon="2.72343">
        <ele>107</ele>
        <time>2011-10-02T11:40:43Z</time>
      </trkpt>
      <trkpt lat="48.43774" lon="2.72336">
        <ele>107</ele>
        <time>2011-10-02T11:40:45Z</time>
      </trkpt>
      <trkpt lat="48.43785" lon="2.72333">
        <ele>106</ele>
        <time>2011-10-02T11:40:50Z</time>
      </trkpt>
      <trkpt lat="48.43802" lon="2.7234">
        <ele>106</ele>
        <time>2011-10-02T11:40:53Z</time>
      </trkpt>
      <trkpt lat="48.43821" lon="2.72349">
        <ele>105</ele>
        <time>2011-10-02T11:40:58Z</time>
      </trkpt>
      <trkpt lat="48.43824" lon="2.72351">
        <ele>105</ele>
        <time>2011-10-02T11:40:59Z</time>
      </trkpt>
      <trkpt lat="48.4384" lon="2.72359">
        <ele>101</ele>
        <time>2011-10-02T11:41:04Z</time>
      </trkpt>
      <trkpt lat="48.43854" lon="2.72366">
        <ele>101</ele>
        <time>2011-10-02T11:41:08Z</time>
      </trkpt>
      <trkpt lat="48.43871" lon="2.72367">
        <ele>100</ele>
        <time>2011-10-02T11:41:13Z</time>
      </trkpt>
      <trkpt lat="48.43878" lon="2.72367">
        <ele>99</ele>
        <time>2011-10-02T11:41:15Z</time>
      </trkpt>
      <trkpt lat="48.43894" lon="2.7236">
        <ele>99</ele>
        <time>2011-10-02T11:41:20Z</time>
      </trkpt>
      <trkpt lat="48.43906" lon="2.7236">
        <ele>98</ele>
        <time>2011-10-02T11:41:24Z</time>
      </trkpt>
      <trkpt lat="48.43913" lon="2.72366">
        <ele>98</ele>
        <time>2011-10-02T11:41:29Z</time>
      </trkpt>
      <trkpt lat="48.43915" lon="2.7237">
        <ele>98</ele>
        <time>2011-10-02T11:41:39Z</time>
      </trkpt>
      <trkpt lat="48.43927" lon="2.72386">
        <ele>93</ele>
        <time>2011-10-02T11:41:44Z</time>
      </trkpt>
      <trkpt lat="48.43932" lon="2.72395">
        <ele>93</ele>
        <time>2011-10-02T11:41:46Z</time>
      </trkpt>
      <trkpt lat="48.43948" lon="2.72431">
        <ele>92</ele>
        <time>2011-10-02T11:41:52Z</time>
      </trkpt>
      <trkpt lat="48.43957" lon="2.72458">
        <ele>91</ele>
        <time>2011-10-02T11:41:56Z</time>
      </trkpt>
      <trkpt lat="48.43973" lon="2.72475">
        <ele>91</ele>
        <time>2011-10-02T11:42:01Z</time>
      </trkpt>
      <trkpt lat="48.4398" lon="2.72495">
        <ele>90</ele>
        <time>2011-10-02T11:42:05Z</time>
      </trkpt>
      <trkpt lat="48.43987" lon="2.72518">
        <ele>91</ele>
        <time>2011-10-02T11:42:09Z</time>
      </trkpt>
      <trkpt lat="48.43996" lon="2.7255">
        <ele>91</ele>
        <time>2011-10-02T11:42:14Z</time>
      </trkpt>
      <trkpt lat="48.44002" lon="2.72583">
        <ele>91</ele>
        <time>2011-10-02T11:42:18Z</time>
      </trkpt>
      <trkpt lat="48.44005" lon="2.72613">
        <ele>93</ele>
        <time>2011-10-02T11:42:22Z</time>
      </trkpt>
      <trkpt lat="48.44001" lon="2.72631">
        <ele>93</ele>
        <time>2011-10-02T11:42:25Z</time>
      </trkpt>
      <trkpt lat="48.43999" lon="2.72644">
        <ele>93</ele>
        <time>2011-10-02T11:42:29Z</time>
      </trkpt>
      <trkpt lat="48.44003" lon="2.72659">
        <ele>93</ele>
        <time>2011-10-02T11:42:33Z</time>
      </trkpt>
      <trkpt lat="48.44011" lon="2.7268">
        <ele>95</ele>
        <time>2011-10-02T11:42:38Z</time>
      </trkpt>
      <trkpt lat="48.44014" lon="2.72692">
        <ele>95</ele>
        <time>2011-10-02T11:42:41Z</time>
      </trkpt>
      <trkpt lat="48.44015" lon="2.72701">
        <ele>96</ele>
        <time>2011-10-02T11:42:44Z</time>
      </trkpt>
      <trkpt lat="48.44025" lon="2.72724">
        <ele>97</ele>
        <time>2011-10-02T11:42:48Z</time>
      </trkpt>
      <trkpt lat="48.44027" lon="2.72745">
        <ele>97</ele>
        <time>2011-10-02T11:42:51Z</time>
      </trkpt>
      <trkpt lat="48.44023" lon="2.72779">
        <ele>98</ele>
        <time>2011-10-02T11:42:56Z</time>
      </trkpt>
      <trkpt lat="48.44016" lon="2.72812">
        <ele>99</ele>
        <time>2011-10-02T11:43:01Z</time>
      </trkpt>
      <trkpt lat="48.44017" lon="2.72819">
        <ele>99</ele>
        <time>2011-10-02T11:43:02Z</time>
      </trkpt>
      <trkpt lat="48.4402" lon="2.72834">
        <ele>99</ele>
        <time>2011-10-02T11:43:04Z</time>
      </trkpt>
      <trkpt lat="48.44027" lon="2.72868">
        <ele>99</ele>
        <time>2011-10-02T11:43:09Z</time>
      </trkpt>
      <trkpt lat="48.44031" lon="2.7289">
        <ele>99</ele>
        <time>2011-10-02T11:43:12Z</time>
      </trkpt>
      <trkpt lat="48.44034" lon="2.72907">
        <ele>99</ele>
        <time>2011-10-02T11:43:14Z</time>
      </trkpt>
      <trkpt lat="48.44036" lon="2.72943">
        <ele>99</ele>
        <time>2011-10-02T11:43:18Z</time>
      </trkpt>
      <trkpt lat="48.44028" lon="2.72975">
        <ele>99</ele>
        <time>2011-10-02T11:43:22Z</time>
      </trkpt>
      <trkpt lat="48.44023" lon="2.72993">
        <ele>99</ele>
        <time>2011-10-02T11:43:25Z</time>
      </trkpt>
      <trkpt lat="48.44023" lon="2.72997">
        <ele>99</ele>
        <time>2011-10-02T11:43:26Z</time>
      </trkpt>
      <trkpt lat="48.44019" lon="2.73021">
        <ele>99</ele>
        <time>2011-10-02T11:43:30Z</time>
      </trkpt>
      <trkpt lat="48.44018" lon="2.73048">
        <ele>99</ele>
        <time>2011-10-02T11:43:33Z</time>
      </trkpt>
      <trkpt lat="48.44022" lon="2.73098">
        <ele>99</ele>
        <time>2011-10-02T11:43:37Z</time>
      </trkpt>
      <trkpt lat="48.44039" lon="2.73136">
        <ele>99</ele>
        <time>2011-10-02T11:43:42Z</time>
      </trkpt>
      <trkpt lat="48.44046" lon="2.73148">
        <ele>99</ele>
        <time>2011-10-02T11:43:44Z</time>
      </trkpt>
      <trkpt lat="48.4405" lon="2.73163">
        <ele>99</ele>
        <time>2011-10-02T11:43:46Z</time>
      </trkpt>
      <trkpt lat="48.44064" lon="2.73196">
        <ele>98</ele>
        <time>2011-10-02T11:43:51Z</time>
      </trkpt>
      <trkpt lat="48.44067" lon="2.73209">
        <ele>98</ele>
        <time>2011-10-02T11:43:53Z</time>
      </trkpt>
      <trkpt lat="48.44063" lon="2.73248">
        <ele>97</ele>
        <time>2011-10-02T11:43:58Z</time>
      </trkpt>
      <trkpt lat="48.44063" lon="2.73256">
        <ele>96</ele>
        <time>2011-10-02T11:43:59Z</time>
      </trkpt>
      <trkpt lat="48.44062" lon="2.73272">
        <ele>96</ele>
        <time>2011-10-02T11:44:01Z</time>
      </trkpt>
      <trkpt lat="48.44069" lon="2.73305">
        <ele>95</ele>
        <time>2011-10-02T11:44:05Z</time>
      </trkpt>
      <trkpt lat="48.44077" lon="2.73355">
        <ele>93</ele>
        <time>2011-10-02T11:44:11Z</time>
      </trkpt>
      <trkpt lat="48.44079" lon="2.73361">
        <ele>93</ele>
        <time>2011-10-02T11:44:12Z</time>
      </trkpt>
      <trkpt lat="48.44092" lon="2.73384">
        <ele>94</ele>
        <time>2011-10-02T11:44:16Z</time>
      </trkpt>
      <trkpt lat="48.44119" lon="2.73419">
        <ele>93</ele>
        <time>2011-10-02T11:44:22Z</time>
      </trkpt>
      <trkpt lat="48.44124" lon="2.73424">
        <ele>93</ele>
        <time>2011-10-02T11:44:23Z</time>
      </trkpt>
      <trkpt lat="48.44141" lon="2.73447">
        <ele>93</ele>
        <time>2011-10-02T11:44:28Z</time>
      </trkpt>
      <trkpt lat="48.44145" lon="2.73457">
        <ele>93</ele>
        <time>2011-10-02T11:44:30Z</time>
      </trkpt>
      <trkpt lat="48.44146" lon="2.73489">
        <ele>92</ele>
        <time>2011-10-02T11:44:35Z</time>
      </trkpt>
      <trkpt lat="48.44142" lon="2.73503">
        <ele>91</ele>
        <time>2011-10-02T11:44:37Z</time>
      </trkpt>
      <trkpt lat="48.44124" lon="2.73523">
        <ele>91</ele>
        <time>2011-10-02T11:44:42Z</time>
      </trkpt>
      <trkpt lat="48.44129" lon="2.73535">
        <ele>91</ele>
        <time>2011-10-02T11:44:46Z</time>
      </trkpt>
      <trkpt lat="48.44143" lon="2.73546">
        <ele>91</ele>
        <time>2011-10-02T11:44:50Z</time>
      </trkpt>
      <trkpt lat="48.44151" lon="2.73558">
        <ele>91</ele>
        <time>2011-10-02T11:44:53Z</time>
      </trkpt>
      <trkpt lat="48.44156" lon="2.73569">
        <ele>90</ele>
        <time>2011-10-02T11:44:55Z</time>
      </trkpt>
      <trkpt lat="48.44167" lon="2.73599">
        <ele>91</ele>
        <time>2011-10-02T11:44:59Z</time>
      </trkpt>
      <trkpt lat="48.44171" lon="2.7363">
        <ele>92</ele>
        <time>2011-10-02T11:45:04Z</time>
      </trkpt>
      <trkpt lat="48.44172" lon="2.7364">
        <ele>92</ele>
        <time>2011-10-02T11:45:07Z</time>
      </trkpt>
      <trkpt lat="48.44165" lon="2.73667">
        <ele>92</ele>
        <time>2011-10-02T11:45:12Z</time>
      </trkpt>
      <trkpt lat="48.44152" lon="2.73695">
        <ele>93</ele>
        <time>2011-10-02T11:45:17Z</time>
      </trkpt>
      <trkpt lat="48.44148" lon="2.73701">
        <ele>93</ele>
        <time>2011-10-02T11:45:18Z</time>
      </trkpt>
      <trkpt lat="48.44137" lon="2.73715">
        <ele>94</ele>
        <time>2011-10-02T11:45:21Z</time>
      </trkpt>
      <trkpt lat="48.44128" lon="2.73725">
        <ele>94</ele>
        <time>2011-10-02T11:45:23Z</time>
      </trkpt>
      <trkpt lat="48.44104" lon="2.73754">
        <ele>96</ele>
        <time>2011-10-02T11:45:29Z</time>
      </trkpt>
      <trkpt lat="48.441" lon="2.73779">
        <ele>96</ele>
        <time>2011-10-02T11:45:34Z</time>
      </trkpt>
      <trkpt lat="48.44102" lon="2.73802">
        <ele>96</ele>
        <time>2011-10-02T11:45:38Z</time>
      </trkpt>
      <trkpt lat="48.44116" lon="2.7383">
        <ele>96</ele>
        <time>2011-10-02T11:45:42Z</time>
      </trkpt>
      <trkpt lat="48.44124" lon="2.73855">
        <ele>96</ele>
        <time>2011-10-02T11:45:45Z</time>
      </trkpt>
      <trkpt lat="48.44133" lon="2.73891">
        <ele>96</ele>
        <time>2011-10-02T11:45:50Z</time>
      </trkpt>
      <trkpt lat="48.4415" lon="2.73902">
        <ele>96</ele>
        <time>2011-10-02T11:45:54Z</time>
      </trkpt>
      <trkpt lat="48.44172" lon="2.73904">
        <ele>96</ele>
        <time>2011-10-02T11:45:58Z</time>
      </trkpt>
      <trkpt lat="48.44192" lon="2.7391">
        <ele>96</ele>
        <time>2011-10-02T11:46:02Z</time>
      </trkpt>
      <trkpt lat="48.44212" lon="2.73899">
        <ele>96</ele>
        <time>2011-10-02T11:46:06Z</time>
      </trkpt>
      <trkpt lat="48.44234" lon="2.73905">
        <ele>97</ele>
        <time>2011-10-02T11:46:11Z</time>
      </trkpt>
      <trkpt lat="48.44241" lon="2.73909">
        <ele>97</ele>
        <time>2011-10-02T11:46:13Z</time>
      </trkpt>
      <trkpt lat="48.4426" lon="2.7392">
        <ele>98</ele>
        <time>2011-10-02T11:46:18Z</time>
      </trkpt>
      <trkpt lat="48.44264" lon="2.73919">
        <ele>98</ele>
        <time>2011-10-02T11:46:19Z</time>
      </trkpt>
      <trkpt lat="48.44288" lon="2.73923">
        <ele>98</ele>
        <time>2011-10-02T11:46:25Z</time>
      </trkpt>
      <trkpt lat="48.44317" lon="2.73936">
        <ele>97</ele>
        <time>2011-10-02T11:46:30Z</time>
      </trkpt>
      <trkpt lat="48.44338" lon="2.73936">
        <ele>97</ele>
        <time>2011-10-02T11:46:33Z</time>
      </trkpt>
      <trkpt lat="48.44364" lon="2.73941">
        <ele>97</ele>
        <time>2011-10-02T11:46:38Z</time>
      </trkpt>
      <trkpt lat="48.44377" lon="2.73961">
        <ele>97</ele>
        <time>2011-10-02T11:46:42Z</time>
      </trkpt>
      <trkpt lat="48.4439" lon="2.73978">
        <ele>97</ele>
        <time>2011-10-02T11:46:45Z</time>
      </trkpt>
      <trkpt lat="48.44408" lon="2.74016">
        <ele>97</ele>
        <time>2011-10-02T11:46:51Z</time>
      </trkpt>
      <trkpt lat="48.44415" lon="2.74043">
        <ele>96</ele>
        <time>2011-10-02T11:46:56Z</time>
      </trkpt>
      <trkpt lat="48.44421" lon="2.74067">
        <ele>96</ele>
        <time>2011-10-02T11:47:01Z</time>
      </trkpt>
      <trkpt lat="48.44418" lon="2.74092">
        <ele>96</ele>
        <time>2011-10-02T11:47:06Z</time>
      </trkpt>
      <trkpt lat="48.44423" lon="2.74119">
        <ele>97</ele>
        <time>2011-10-02T11:47:11Z</time>
      </trkpt>
      <trkpt lat="48.44426" lon="2.74127">
        <ele>97</ele>
        <time>2011-10-02T11:47:12Z</time>
      </trkpt>
      <trkpt lat="48.44441" lon="2.74165">
        <ele>97</ele>
        <time>2011-10-02T11:47:18Z</time>
      </trkpt>
      <trkpt lat="48.44445" lon="2.74184">
        <ele>97</ele>
        <time>2011-10-02T11:47:22Z</time>
      </trkpt>
      <trkpt lat="48.44454" lon="2.7419">
        <ele>97</ele>
        <time>2011-10-02T11:47:27Z</time>
      </trkpt>
      <trkpt lat="48.44463" lon="2.74182">
        <ele>97</ele>
        <time>2011-10-02T11:47:31Z</time>
      </trkpt>
      <trkpt lat="48.44471" lon="2.74174">
        <ele>97</ele>
        <time>2011-10-02T11:47:35Z</time>
      </trkpt>
      <trkpt lat="48.44485" lon="2.74158">
        <ele>97</ele>
        <time>2011-10-02T11:47:41Z</time>
      </trkpt>
      <trkpt lat="48.445" lon="2.74141">
        <ele>97</ele>
        <time>2011-10-02T11:47:45Z</time>
      </trkpt>
      <trkpt lat="48.44532" lon="2.74109">
        <ele>97</ele>
        <time>2011-10-02T11:47:52Z</time>
      </trkpt>
      <trkpt lat="48.44549" lon="2.74091">
        <ele>97</ele>
        <time>2011-10-02T11:47:57Z</time>
      </trkpt>
      <trkpt lat="48.44563" lon="2.74079">
        <ele>98</ele>
        <time>2011-10-02T11:48:02Z</time>
      </trkpt>
      <trkpt lat="48.44589" lon="2.74054">
        <ele>98</ele>
        <time>2011-10-02T11:48:08Z</time>
      </trkpt>
      <trkpt lat="48.44606" lon="2.74034">
        <ele>99</ele>
        <time>2011-10-02T11:48:13Z</time>
      </trkpt>
      <trkpt lat="48.4462" lon="2.74019">
        <ele>99</ele>
        <time>2011-10-02T11:48:17Z</time>
      </trkpt>
      <trkpt lat="48.44649" lon="2.73989">
        <ele>98</ele>
        <time>2011-10-02T11:48:25Z</time>
      </trkpt>
      <trkpt lat="48.44668" lon="2.73969">
        <ele>98</ele>
        <time>2011-10-02T11:48:30Z</time>
      </trkpt>
      <trkpt lat="48.44697" lon="2.73939">
        <ele>98</ele>
        <time>2011-10-02T11:48:37Z</time>
      </trkpt>
      <trkpt lat="48.44705" lon="2.73931">
        <ele>98</ele>
        <time>2011-10-02T11:48:39Z</time>
      </trkpt>
      <trkpt lat="48.44721" lon="2.73914">
        <ele>99</ele>
        <time>2011-10-02T11:48:43Z</time>
      </trkpt>
      <trkpt lat="48.44743" lon="2.7389">
        <ele>99</ele>
        <time>2011-10-02T11:48:49Z</time>
      </trkpt>
      <trkpt lat="48.44776" lon="2.73858">
        <ele>99</ele>
        <time>2011-10-02T11:48:56Z</time>
      </trkpt>
      <trkpt lat="48.44803" lon="2.73831">
        <ele>99</ele>
        <time>2011-10-02T11:49:03Z</time>
      </trkpt>
      <trkpt lat="48.44821" lon="2.73813">
        <ele>98</ele>
        <time>2011-10-02T11:49:08Z</time>
      </trkpt>
      <trkpt lat="48.44841" lon="2.73793">
        <ele>99</ele>
        <time>2011-10-02T11:49:14Z</time>
      </trkpt>
      <trkpt lat="48.44864" lon="2.73769">
        <ele>99</ele>
        <time>2011-10-02T11:49:20Z</time>
      </trkpt>
      <trkpt lat="48.44884" lon="2.73749">
        <ele>98</ele>
        <time>2011-10-02T11:49:25Z</time>
      </trkpt>
      <trkpt lat="48.44903" lon="2.73731">
        <ele>98</ele>
        <time>2011-10-02T11:49:30Z</time>
      </trkpt>
      <trkpt lat="48.4492" lon="2.73714">
        <ele>99</ele>
        <time>2011-10-02T11:49:35Z</time>
      </trkpt>
      <trkpt lat="48.44938" lon="2.73692">
        <ele>99</ele>
        <time>2011-10-02T11:49:40Z</time>
      </trkpt>
      <trkpt lat="48.44961" lon="2.73669">
        <ele>99</ele>
        <time>2011-10-02T11:49:45Z</time>
      </trkpt>
      <trkpt lat="48.44973" lon="2.7366">
        <ele>99</ele>
        <time>2011-10-02T11:49:49Z</time>
      </trkpt>
      <trkpt lat="48.44993" lon="2.73639">
        <ele>99</ele>
        <time>2011-10-02T11:49:55Z</time>
      </trkpt>
      <trkpt lat="48.45017" lon="2.73612">
        <ele>99</ele>
        <time>2011-10-02T11:50:01Z</time>
      </trkpt>
      <trkpt lat="48.45038" lon="2.7359">
        <ele>99</ele>
        <time>2011-10-02T11:50:06Z</time>
      </trkpt>
      <trkpt lat="48.45057" lon="2.7357">
        <ele>99</ele>
        <time>2011-10-02T11:50:11Z</time>
      </trkpt>
      <trkpt lat="48.45074" lon="2.73551">
        <ele>100</ele>
        <time>2011-10-02T11:50:16Z</time>
      </trkpt>
      <trkpt lat="48.45074" lon="2.73549">
        <ele>100</ele>
        <time>2011-10-02T11:50:17Z</time>
      </trkpt>
      <trkpt lat="48.45064" lon="2.7354">
        <ele>100</ele>
        <time>2011-10-02T11:50:22Z</time>
      </trkpt>
      <trkpt lat="48.45052" lon="2.73516">
        <ele>100</ele>
        <time>2011-10-02T11:50:27Z</time>
      </trkpt>
      <trkpt lat="48.45044" lon="2.73485">
        <ele>101</ele>
        <time>2011-10-02T11:50:32Z</time>
      </trkpt>
      <trkpt lat="48.45042" lon="2.7348">
        <ele>101</ele>
        <time>2011-10-02T11:50:33Z</time>
      </trkpt>
      <trkpt lat="48.45031" lon="2.73453">
        <ele>101</ele>
        <time>2011-10-02T11:50:37Z</time>
      </trkpt>
      <trkpt lat="48.45032" lon="2.73429">
        <ele>101</ele>
        <time>2011-10-02T11:50:41Z</time>
      </trkpt>
      <trkpt lat="48.45033" lon="2.73424">
        <ele>101</ele>
        <time>2011-10-02T11:50:42Z</time>
      </trkpt>
      <trkpt lat="48.45039" lon="2.73382">
        <ele>101</ele>
        <time>2011-10-02T11:50:48Z</time>
      </trkpt>
      <trkpt lat="48.45036" lon="2.73369">
        <ele>101</ele>
        <time>2011-10-02T11:50:50Z</time>
      </trkpt>
      <trkpt lat="48.45021" lon="2.73336">
        <ele>101</ele>
        <time>2011-10-02T11:50:55Z</time>
      </trkpt>
      <trkpt lat="48.45012" lon="2.73328">
        <ele>101</ele>
        <time>2011-10-02T11:50:57Z</time>
      </trkpt>
      <trkpt lat="48.45" lon="2.73319">
        <ele>101</ele>
        <time>2011-10-02T11:51:00Z</time>
      </trkpt>
      <trkpt lat="48.44982" lon="2.73297">
        <ele>100</ele>
        <time>2011-10-02T11:51:04Z</time>
      </trkpt>
      <trkpt lat="48.44971" lon="2.73267">
        <ele>100</ele>
        <time>2011-10-02T11:51:08Z</time>
      </trkpt>
      <trkpt lat="48.44969" lon="2.73258">
        <ele>100</ele>
        <time>2011-10-02T11:51:09Z</time>
      </trkpt>
      <trkpt lat="48.4496" lon="2.73216">
        <ele>99</ele>
        <time>2011-10-02T11:51:14Z</time>
      </trkpt>
      <trkpt lat="48.44959" lon="2.73174">
        <ele>99</ele>
        <time>2011-10-02T11:51:19Z</time>
      </trkpt>
      <trkpt lat="48.44959" lon="2.73166">
        <ele>99</ele>
        <time>2011-10-02T11:51:20Z</time>
      </trkpt>
      <trkpt lat="48.44952" lon="2.73118">
        <ele>99</ele>
        <time>2011-10-02T11:51:26Z</time>
      </trkpt>
      <trkpt lat="48.4495" lon="2.73111">
        <ele>99</ele>
        <time>2011-10-02T11:51:27Z</time>
      </trkpt>
      <trkpt lat="48.44936" lon="2.73076">
        <ele>99</ele>
        <time>2011-10-02T11:51:32Z</time>
      </trkpt>
      <trkpt lat="48.44928" lon="2.73064">
        <ele>99</ele>
        <time>2011-10-02T11:51:34Z</time>
      </trkpt>
      <trkpt lat="48.44911" lon="2.73048">
        <ele>100</ele>
        <time>2011-10-02T11:51:38Z</time>
      </trkpt>
      <trkpt lat="48.44903" lon="2.73043">
        <ele>100</ele>
        <time>2011-10-02T11:51:40Z</time>
      </trkpt>
      <trkpt lat="48.44884" lon="2.73027">
        <ele>100</ele>
        <time>2011-10-02T11:51:44Z</time>
      </trkpt>
      <trkpt lat="48.44862" lon="2.73016">
        <ele>100</ele>
        <time>2011-10-02T11:51:49Z</time>
      </trkpt>
      <trkpt lat="48.44848" lon="2.73015">
        <ele>100</ele>
        <time>2011-10-02T11:51:52Z</time>
      </trkpt>
      <trkpt lat="48.44838" lon="2.73017">
        <ele>100</ele>
        <time>2011-10-02T11:51:54Z</time>
      </trkpt>
      <trkpt lat="48.44823" lon="2.73021">
        <ele>99</ele>
        <time>2011-10-02T11:51:57Z</time>
      </trkpt>
      <trkpt lat="48.44813" lon="2.7302">
        <ele>99</ele>
        <time>2011-10-02T11:51:59Z</time>
      </trkpt>
      <trkpt lat="48.4479" lon="2.73021">
        <ele>99</ele>
        <time>2011-10-02T11:52:04Z</time>
      </trkpt>
      <trkpt lat="48.44783" lon="2.73005">
        <ele>98</ele>
        <time>2011-10-02T11:52:07Z</time>
      </trkpt>
      <trkpt lat="48.44778" lon="2.72977">
        <ele>96</ele>
        <time>2011-10-02T11:52:12Z</time>
      </trkpt>
      <trkpt lat="48.44787" lon="2.72964">
        <ele>96</ele>
        <time>2011-10-02T11:52:16Z</time>
      </trkpt>
      <trkpt lat="48.44812" lon="2.72935">
        <ele>95</ele>
        <time>2011-10-02T11:52:25Z</time>
      </trkpt>
      <trkpt lat="48.44834" lon="2.72909">
        <ele>94</ele>
        <time>2011-10-02T11:52:32Z</time>
      </trkpt>
      <trkpt lat="48.44853" lon="2.72887">
        <ele>94</ele>
        <time>2011-10-02T11:52:38Z</time>
      </trkpt>
      <trkpt lat="48.44877" lon="2.72856">
        <ele>94</ele>
        <time>2011-10-02T11:52:45Z</time>
      </trkpt>
      <trkpt lat="48.44878" lon="2.72853">
        <ele>94</ele>
        <time>2011-10-02T11:52:46Z</time>
      </trkpt>
      <trkpt lat="48.44875" lon="2.72843">
        <ele>94</ele>
        <time>2011-10-02T11:52:50Z</time>
      </trkpt>
      <trkpt lat="48.44867" lon="2.72836">
        <ele>93</ele>
        <time>2011-10-02T11:52:55Z</time>
      </trkpt>
      <trkpt lat="48.44864" lon="2.72816">
        <ele>93</ele>
        <time>2011-10-02T11:52:59Z</time>
      </trkpt>
      <trkpt lat="48.4487" lon="2.72803">
        <ele>93</ele>
        <time>2011-10-02T11:53:02Z</time>
      </trkpt>
      <trkpt lat="48.44883" lon="2.72782">
        <ele>94</ele>
        <time>2011-10-02T11:53:08Z</time>
      </trkpt>
      <trkpt lat="48.44884" lon="2.72766">
        <ele>94</ele>
        <time>2011-10-02T11:53:12Z</time>
      </trkpt>
      <trkpt lat="48.44876" lon="2.7275">
        <ele>94</ele>
        <time>2011-10-02T11:53:16Z</time>
      </trkpt>
      <trkpt lat="48.44868" lon="2.72708">
        <ele>97</ele>
        <time>2011-10-02T11:53:23Z</time>
      </trkpt>
      <trkpt lat="48.44862" lon="2.72676">
        <ele>97</ele>
        <time>2011-10-02T11:53:28Z</time>
      </trkpt>
      <trkpt lat="48.44859" lon="2.72657">
        <ele>99</ele>
        <time>2011-10-02T11:53:31Z</time>
      </trkpt>
      <trkpt lat="48.44861" lon="2.72628">
        <ele>99</ele>
        <time>2011-10-02T11:53:35Z</time>
      </trkpt>
      <trkpt lat="48.44865" lon="2.72591">
        <ele>100</ele>
        <time>2011-10-02T11:53:40Z</time>
      </trkpt>
      <trkpt lat="48.44868" lon="2.72576">
        <ele>100</ele>
        <time>2011-10-02T11:53:42Z</time>
      </trkpt>
      <trkpt lat="48.44873" lon="2.72543">
        <ele>100</ele>
        <time>2011-10-02T11:53:47Z</time>
      </trkpt>
      <trkpt lat="48.44869" lon="2.72528">
        <ele>101</ele>
        <time>2011-10-02T11:53:50Z</time>
      </trkpt>
      <trkpt lat="48.44865" lon="2.7251">
        <ele>101</ele>
        <time>2011-10-02T11:53:53Z</time>
      </trkpt>
      <trkpt lat="48.44859" lon="2.72476">
        <ele>100</ele>
        <time>2011-10-02T11:53:58Z</time>
      </trkpt>
      <trkpt lat="48.44854" lon="2.72457">
        <ele>100</ele>
        <time>2011-10-02T11:54:01Z</time>
      </trkpt>
      <trkpt lat="48.44848" lon="2.72417">
        <ele>100</ele>
        <time>2011-10-02T11:54:06Z</time>
      </trkpt>
      <trkpt lat="48.44847" lon="2.72389">
        <ele>99</ele>
        <time>2011-10-02T11:54:10Z</time>
      </trkpt>
      <trkpt lat="48.44846" lon="2.72383">
        <ele>99</ele>
        <time>2011-10-02T11:54:11Z</time>
      </trkpt>
      <trkpt lat="48.44842" lon="2.72371">
        <ele>99</ele>
        <time>2011-10-02T11:54:13Z</time>
      </trkpt>
      <trkpt lat="48.44834" lon="2.72353">
        <ele>99</ele>
        <time>2011-10-02T11:54:16Z</time>
      </trkpt>
      <trkpt lat="48.44829" lon="2.7234">
        <ele>98</ele>
        <time>2011-10-02T11:54:18Z</time>
      </trkpt>
      <trkpt lat="48.44825" lon="2.72324">
        <ele>98</ele>
        <time>2011-10-02T11:54:20Z</time>
      </trkpt>
      <trkpt lat="48.44813" lon="2.72297">
        <ele>98</ele>
        <time>2011-10-02T11:54:24Z</time>
      </trkpt>
      <trkpt lat="48.44801" lon="2.72271">
        <ele>98</ele>
        <time>2011-10-02T11:54:28Z</time>
      </trkpt>
      <trkpt lat="48.44792" lon="2.72243">
        <ele>98</ele>
        <time>2011-10-02T11:54:33Z</time>
      </trkpt>
      <trkpt lat="48.44792" lon="2.72236">
        <ele>99</ele>
        <time>2011-10-02T11:54:34Z</time>
      </trkpt>
      <trkpt lat="48.44782" lon="2.7219">
        <ele>99</ele>
        <time>2011-10-02T11:54:41Z</time>
      </trkpt>
      <trkpt lat="48.44768" lon="2.72177">
        <ele>99</ele>
        <time>2011-10-02T11:54:45Z</time>
      </trkpt>
      <trkpt lat="48.44754" lon="2.72164">
        <ele>99</ele>
        <time>2011-10-02T11:54:49Z</time>
      </trkpt>
      <trkpt lat="48.4475" lon="2.7216">
        <ele>99</ele>
        <time>2011-10-02T11:54:50Z</time>
      </trkpt>
      <trkpt lat="48.44743" lon="2.72154">
        <ele>99</ele>
        <time>2011-10-02T11:54:52Z</time>
      </trkpt>
      <trkpt lat="48.44722" lon="2.72141">
        <ele>99</ele>
        <time>2011-10-02T11:54:57Z</time>
      </trkpt>
      <trkpt lat="48.44718" lon="2.72136">
        <ele>99</ele>
        <time>2011-10-02T11:54:58Z</time>
      </trkpt>
      <trkpt lat="48.44705" lon="2.72118">
        <ele>99</ele>
        <time>2011-10-02T11:55:02Z</time>
      </trkpt>
      <trkpt lat="48.44697" lon="2.72084">
        <ele>100</ele>
        <time>2011-10-02T11:55:08Z</time>
      </trkpt>
      <trkpt lat="48.44697" lon="2.7206">
        <ele>100</ele>
        <time>2011-10-02T11:55:12Z</time>
      </trkpt>
      <trkpt lat="48.44698" lon="2.72028">
        <ele>100</ele>
        <time>2011-10-02T11:55:17Z</time>
      </trkpt>
      <trkpt lat="48.447" lon="2.72006">
        <ele>100</ele>
        <time>2011-10-02T11:55:22Z</time>
      </trkpt>
      <trkpt lat="48.44705" lon="2.71984">
        <ele>101</ele>
        <time>2011-10-02T11:55:26Z</time>
      </trkpt>
      <trkpt lat="48.44709" lon="2.71972">
        <ele>101</ele>
        <time>2011-10-02T11:55:28Z</time>
      </trkpt>
      <trkpt lat="48.44706" lon="2.71947">
        <ele>101</ele>
        <time>2011-10-02T11:55:33Z</time>
      </trkpt>
      <trkpt lat="48.44701" lon="2.7194">
        <ele>101</ele>
        <time>2011-10-02T11:55:35Z</time>
      </trkpt>
      <trkpt lat="48.4469" lon="2.71912">
        <ele>101</ele>
        <time>2011-10-02T11:55:41Z</time>
      </trkpt>
      <trkpt lat="48.44688" lon="2.71892">
        <ele>101</ele>
        <time>2011-10-02T11:55:45Z</time>
      </trkpt>
      <trkpt lat="48.44698" lon="2.71887">
        <ele>101</ele>
        <time>2011-10-02T11:55:49Z</time>
      </trkpt>
      <trkpt lat="48.44713" lon="2.71895">
        <ele>101</ele>
        <time>2011-10-02T11:55:53Z</time>
      </trkpt>
      <trkpt lat="48.44729" lon="2.71914">
        <ele>101</ele>
        <time>2011-10-02T11:55:58Z</time>
      </trkpt>
      <trkpt lat="48.44732" lon="2.71916">
        <ele>101</ele>
        <time>2011-10-02T11:55:59Z</time>
      </trkpt>
      <trkpt lat="48.44751" lon="2.71929">
        <ele>100</ele>
        <time>2011-10-02T11:56:04Z</time>
      </trkpt>
      <trkpt lat="48.44765" lon="2.7193">
        <ele>100</ele>
        <time>2011-10-02T11:56:08Z</time>
      </trkpt>
      <trkpt lat="48.44775" lon="2.7192">
        <ele>100</ele>
        <time>2011-10-02T11:56:11Z</time>
      </trkpt>
      <trkpt lat="48.44776" lon="2.71891">
        <ele>100</ele>
        <time>2011-10-02T11:56:16Z</time>
      </trkpt>
      <trkpt lat="48.44777" lon="2.71885">
        <ele>100</ele>
        <time>2011-10-02T11:56:17Z</time>
      </trkpt>
      <trkpt lat="48.4478" lon="2.71845">
        <ele>100</ele>
        <time>2011-10-02T11:56:23Z</time>
      </trkpt>
      <trkpt lat="48.44779" lon="2.7184">
        <ele>100</ele>
        <time>2011-10-02T11:56:24Z</time>
      </trkpt>
      <trkpt lat="48.44769" lon="2.71827">
        <ele>99</ele>
        <time>2011-10-02T11:56:29Z</time>
      </trkpt>
      <trkpt lat="48.44764" lon="2.71823">
        <ele>99</ele>
        <time>2011-10-02T11:56:36Z</time>
      </trkpt>
      <trkpt lat="48.44762" lon="2.71821">
        <ele>100</ele>
        <time>2011-10-02T11:56:38Z</time>
      </trkpt>
      <trkpt lat="48.44752" lon="2.7181">
        <ele>99</ele>
        <time>2011-10-02T11:56:42Z</time>
      </trkpt>
      <trkpt lat="48.44747" lon="2.71793">
        <ele>100</ele>
        <time>2011-10-02T11:56:45Z</time>
      </trkpt>
      <trkpt lat="48.44743" lon="2.71764">
        <ele>100</ele>
        <time>2011-10-02T11:56:50Z</time>
      </trkpt>
      <trkpt lat="48.44743" lon="2.71759">
        <ele>99</ele>
        <time>2011-10-02T11:56:51Z</time>
      </trkpt>
      <trkpt lat="48.44751" lon="2.71733">
        <ele>99</ele>
        <time>2011-10-02T11:56:56Z</time>
      </trkpt>
      <trkpt lat="48.44751" lon="2.71728">
        <ele>99</ele>
        <time>2011-10-02T11:56:57Z</time>
      </trkpt>
      <trkpt lat="48.44745" lon="2.71699">
        <ele>98</ele>
        <time>2011-10-02T11:57:03Z</time>
      </trkpt>
      <trkpt lat="48.44739" lon="2.71672">
        <ele>98</ele>
        <time>2011-10-02T11:57:08Z</time>
      </trkpt>
      <trkpt lat="48.44755" lon="2.71651">
        <ele>98</ele>
        <time>2011-10-02T11:57:13Z</time>
      </trkpt>
      <trkpt lat="48.44765" lon="2.71641">
        <ele>98</ele>
        <time>2011-10-02T11:57:16Z</time>
      </trkpt>
      <trkpt lat="48.44775" lon="2.7162">
        <ele>98</ele>
        <time>2011-10-02T11:57:21Z</time>
      </trkpt>
      <trkpt lat="48.4479" lon="2.71601">
        <ele>98</ele>
        <time>2011-10-02T11:57:26Z</time>
      </trkpt>
      <trkpt lat="48.44799" lon="2.71589">
        <ele>98</ele>
        <time>2011-10-02T11:57:31Z</time>
      </trkpt>
      <trkpt lat="48.44799" lon="2.71582">
        <ele>99</ele>
        <time>2011-10-02T11:57:33Z</time>
      </trkpt>
      <trkpt lat="48.44801" lon="2.71557">
        <ele>99</ele>
        <time>2011-10-02T11:57:38Z</time>
      </trkpt>
      <trkpt lat="48.44803" lon="2.71531">
        <ele>99</ele>
        <time>2011-10-02T11:57:43Z</time>
      </trkpt>
      <trkpt lat="48.44809" lon="2.71504">
        <ele>99</ele>
        <time>2011-10-02T11:57:47Z</time>
      </trkpt>
      <trkpt lat="48.4482" lon="2.71465">
        <ele>99</ele>
        <time>2011-10-02T11:57:53Z</time>
      </trkpt>
      <trkpt lat="48.44825" lon="2.7144">
        <ele>99</ele>
        <time>2011-10-02T11:57:58Z</time>
      </trkpt>
      <trkpt lat="48.4483" lon="2.71423">
        <ele>99</ele>
        <time>2011-10-02T11:58:03Z</time>
      </trkpt>
      <trkpt lat="48.44835" lon="2.71405">
        <ele>99</ele>
        <time>2011-10-02T11:58:08Z</time>
      </trkpt>
      <trkpt lat="48.44838" lon="2.71389">
        <ele>98</ele>
        <time>2011-10-02T11:58:12Z</time>
      </trkpt>
      <trkpt lat="48.44841" lon="2.71364">
        <ele>98</ele>
        <time>2011-10-02T11:58:17Z</time>
      </trkpt>
      <trkpt lat="48.44846" lon="2.7135">
        <ele>97</ele>
        <time>2011-10-02T11:58:21Z</time>
      </trkpt>
      <trkpt lat="48.44851" lon="2.71328">
        <ele>97</ele>
        <time>2011-10-02T11:58:26Z</time>
      </trkpt>
      <trkpt lat="48.44853" lon="2.71305">
        <ele>97</ele>
        <time>2011-10-02T11:58:31Z</time>
      </trkpt>
      <trkpt lat="48.44863" lon="2.71289">
        <ele>97</ele>
        <time>2011-10-02T11:58:35Z</time>
      </trkpt>
      <trkpt lat="48.44875" lon="2.71276">
        <ele>97</ele>
        <time>2011-10-02T11:58:39Z</time>
      </trkpt>
      <trkpt lat="48.44877" lon="2.71265">
        <ele>97</ele>
        <time>2011-10-02T11:58:42Z</time>
      </trkpt>
      <trkpt lat="48.44868" lon="2.71249">
        <ele>95</ele>
        <time>2011-10-02T11:58:47Z</time>
      </trkpt>
      <trkpt lat="48.44866" lon="2.71248">
        <ele>95</ele>
        <time>2011-10-02T11:58:54Z</time>
      </trkpt>
      <trkpt lat="48.44865" lon="2.71247">
        <ele>95</ele>
        <time>2011-10-02T11:58:58Z</time>
      </trkpt>
      <trkpt lat="48.44851" lon="2.71255">
        <ele>96</ele>
        <time>2011-10-02T11:59:02Z</time>
      </trkpt>
      <trkpt lat="48.44839" lon="2.71269">
        <ele>96</ele>
        <time>2011-10-02T11:59:05Z</time>
      </trkpt>
      <trkpt lat="48.44809" lon="2.71307">
        <ele>97</ele>
        <time>2011-10-02T11:59:12Z</time>
      </trkpt>
      <trkpt lat="48.44779" lon="2.71346">
        <ele>97</ele>
        <time>2011-10-02T11:59:19Z</time>
      </trkpt>
      <trkpt lat="48.4475" lon="2.71382">
        <ele>97</ele>
        <time>2011-10-02T11:59:26Z</time>
      </trkpt>
      <trkpt lat="48.44721" lon="2.71421">
        <ele>97</ele>
        <time>2011-10-02T11:59:34Z</time>
      </trkpt>
      <trkpt lat="48.44718" lon="2.71424">
        <ele>97</ele>
        <time>2011-10-02T11:59:35Z</time>
      </trkpt>
      <trkpt lat="48.44706" lon="2.7142">
        <ele>96</ele>
        <time>2011-10-02T11:59:40Z</time>
      </trkpt>
      <trkpt lat="48.44705" lon="2.71418">
        <ele>96</ele>
        <time>2011-10-02T11:59:41Z</time>
      </trkpt>
      <trkpt lat="48.44694" lon="2.7141">
        <ele>96</ele>
        <time>2011-10-02T11:59:46Z</time>
      </trkpt>
      <trkpt lat="48.44684" lon="2.71408">
        <ele>96</ele>
        <time>2011-10-02T11:59:50Z</time>
      </trkpt>
      <trkpt lat="48.44673" lon="2.71411">
        <ele>96</ele>
        <time>2011-10-02T11:59:53Z</time>
      </trkpt>
      <trkpt lat="48.44659" lon="2.71403">
        <ele>95</ele>
        <time>2011-10-02T11:59:57Z</time>
      </trkpt>
      <trkpt lat="48.44655" lon="2.71391">
        <ele>95</ele>
        <time>2011-10-02T12:00:00Z</time>
      </trkpt>
      <trkpt lat="48.44648" lon="2.71375">
        <ele>95</ele>
        <time>2011-10-02T12:00:04Z</time>
      </trkpt>
      <trkpt lat="48.44638" lon="2.71355">
        <ele>95</ele>
        <time>2011-10-02T12:00:08Z</time>
      </trkpt>
      <trkpt lat="48.44637" lon="2.71339">
        <ele>96</ele>
        <time>2011-10-02T12:00:11Z</time>
      </trkpt>
      <trkpt lat="48.44633" lon="2.71311">
        <ele>96</ele>
        <time>2011-10-02T12:00:15Z</time>
      </trkpt>
      <trkpt lat="48.44625" lon="2.71284">
        <ele>96</ele>
        <time>2011-10-02T12:00:19Z</time>
      </trkpt>
      <trkpt lat="48.44622" lon="2.71259">
        <ele>96</ele>
        <time>2011-10-02T12:00:23Z</time>
      </trkpt>
      <trkpt lat="48.44619" lon="2.71251">
        <ele>96</ele>
        <time>2011-10-02T12:00:25Z</time>
      </trkpt>
      <trkpt lat="48.44607" lon="2.71226">
        <ele>96</ele>
        <time>2011-10-02T12:00:30Z</time>
      </trkpt>
      <trkpt lat="48.44606" lon="2.71199">
        <ele>96</ele>
        <time>2011-10-02T12:00:35Z</time>
      </trkpt>
      <trkpt lat="48.44605" lon="2.71181">
        <ele>96</ele>
        <time>2011-10-02T12:00:39Z</time>
      </trkpt>
      <trkpt lat="48.44609" lon="2.71158">
        <ele>96</ele>
        <time>2011-10-02T12:00:43Z</time>
      </trkpt>
      <trkpt lat="48.44612" lon="2.71154">
        <ele>96</ele>
        <time>2011-10-02T12:00:44Z</time>
      </trkpt>
      <trkpt lat="48.44628" lon="2.71143">
        <ele>97</ele>
        <time>2011-10-02T12:00:48Z</time>
      </trkpt>
      <trkpt lat="48.4464" lon="2.71122">
        <ele>97</ele>
        <time>2011-10-02T12:00:52Z</time>
      </trkpt>
      <trkpt lat="48.44644" lon="2.71107">
        <ele>97</ele>
        <time>2011-10-02T12:00:54Z</time>
      </trkpt>
      <trkpt lat="48.44639" lon="2.71072">
        <ele>95</ele>
        <time>2011-10-02T12:00:59Z</time>
      </trkpt>
      <trkpt lat="48.44638" lon="2.71054">
        <ele>95</ele>
        <time>2011-10-02T12:01:01Z</time>
      </trkpt>
      <trkpt lat="48.44636" lon="2.71037">
        <ele>94</ele>
        <time>2011-10-02T12:01:03Z</time>
      </trkpt>
      <trkpt lat="48.44641" lon="2.71004">
        <ele>94</ele>
        <time>2011-10-02T12:01:07Z</time>
      </trkpt>
      <trkpt lat="48.44647" lon="2.70982">
        <ele>93</ele>
        <time>2011-10-02T12:01:10Z</time>
      </trkpt>
      <trkpt lat="48.44654" lon="2.70966">
        <ele>92</ele>
        <time>2011-10-02T12:01:12Z</time>
      </trkpt>
      <trkpt lat="48.44661" lon="2.70938">
        <ele>92</ele>
        <time>2011-10-02T12:01:16Z</time>
      </trkpt>
      <trkpt lat="48.44662" lon="2.70931">
        <ele>92</ele>
        <time>2011-10-02T12:01:17Z</time>
      </trkpt>
      <trkpt lat="48.4467" lon="2.70895">
        <ele>91</ele>
        <time>2011-10-02T12:01:22Z</time>
      </trkpt>
      <trkpt lat="48.4467" lon="2.70862">
        <ele>90</ele>
        <time>2011-10-02T12:01:26Z</time>
      </trkpt>
      <trkpt lat="48.44668" lon="2.70854">
        <ele>90</ele>
        <time>2011-10-02T12:01:27Z</time>
      </trkpt>
      <trkpt lat="48.44664" lon="2.70839">
        <ele>90</ele>
        <time>2011-10-02T12:01:29Z</time>
      </trkpt>
      <trkpt lat="48.44655" lon="2.70817">
        <ele>89</ele>
        <time>2011-10-02T12:01:33Z</time>
      </trkpt>
      <trkpt lat="48.44646" lon="2.70819">
        <ele>89</ele>
        <time>2011-10-02T12:01:36Z</time>
      </trkpt>
      <trkpt lat="48.44617" lon="2.70837">
        <ele>90</ele>
        <time>2011-10-02T12:01:46Z</time>
      </trkpt>
      <trkpt lat="48.44593" lon="2.70849">
        <ele>90</ele>
        <time>2011-10-02T12:01:54Z</time>
      </trkpt>
      <trkpt lat="48.44588" lon="2.70835">
        <ele>90</ele>
        <time>2011-10-02T12:01:59Z</time>
      </trkpt>
      <trkpt lat="48.44589" lon="2.70824">
        <ele>90</ele>
        <time>2011-10-02T12:02:02Z</time>
      </trkpt>
      <trkpt lat="48.44592" lon="2.70799">
        <ele>89</ele>
        <time>2011-10-02T12:02:08Z</time>
      </trkpt>
      <trkpt lat="48.44595" lon="2.70774">
        <ele>89</ele>
        <time>2011-10-02T12:02:14Z</time>
      </trkpt>
      <trkpt lat="48.44597" lon="2.70755">
        <ele>89</ele>
        <time>2011-10-02T12:02:19Z</time>
      </trkpt>
      <trkpt lat="48.44598" lon="2.70736">
        <ele>89</ele>
        <time>2011-10-02T12:02:24Z</time>
      </trkpt>
      <trkpt lat="48.44601" lon="2.70706">
        <ele>88</ele>
        <time>2011-10-02T12:02:31Z</time>
      </trkpt>
      <trkpt lat="48.44602" lon="2.707">
        <ele>88</ele>
        <time>2011-10-02T12:02:32Z</time>
      </trkpt>
      <trkpt lat="48.44592" lon="2.70689">
        <ele>89</ele>
        <time>2011-10-02T12:02:37Z</time>
      </trkpt>
      <trkpt lat="48.44585" lon="2.70684">
        <ele>89</ele>
        <time>2011-10-02T12:02:39Z</time>
      </trkpt>
      <trkpt lat="48.44565" lon="2.70678">
        <ele>90</ele>
        <time>2011-10-02T12:02:44Z</time>
      </trkpt>
      <trkpt lat="48.44549" lon="2.70668">
        <ele>90</ele>
        <time>2011-10-02T12:02:48Z</time>
      </trkpt>
      <trkpt lat="48.44534" lon="2.70651">
        <ele>90</ele>
        <time>2011-10-02T12:02:51Z</time>
      </trkpt>
      <trkpt lat="48.44518" lon="2.70643">
        <ele>90</ele>
        <time>2011-10-02T12:02:55Z</time>
      </trkpt>
      <trkpt lat="48.44501" lon="2.70644">
        <ele>90</ele>
        <time>2011-10-02T12:02:58Z</time>
      </trkpt>
      <trkpt lat="48.44487" lon="2.70633">
        <ele>89</ele>
        <time>2011-10-02T12:03:02Z</time>
      </trkpt>
      <trkpt lat="48.44474" lon="2.70607">
        <ele>89</ele>
        <time>2011-10-02T12:03:06Z</time>
      </trkpt>
      <trkpt lat="48.44468" lon="2.70586">
        <ele>89</ele>
        <time>2011-10-02T12:03:09Z</time>
      </trkpt>
      <trkpt lat="48.44461" lon="2.70569">
        <ele>90</ele>
        <time>2011-10-02T12:03:12Z</time>
      </trkpt>
      <trkpt lat="48.44457" lon="2.70564">
        <ele>90</ele>
        <time>2011-10-02T12:03:13Z</time>
      </trkpt>
      <trkpt lat="48.4445" lon="2.70549">
        <ele>90</ele>
        <time>2011-10-02T12:03:17Z</time>
      </trkpt>
      <trkpt lat="48.44452" lon="2.7055">
        <ele>90</ele>
        <time>2011-10-02T12:03:20Z</time>
      </trkpt>
      <trkpt lat="48.44462" lon="2.70555">
        <ele>90</ele>
        <time>2011-10-02T12:03:25Z</time>
      </trkpt>
      <trkpt lat="48.44476" lon="2.70548">
        <ele>90</ele>
        <time>2011-10-02T12:03:31Z</time>
      </trkpt>
      <trkpt lat="48.44489" lon="2.70541">
        <ele>90</ele>
        <time>2011-10-02T12:03:37Z</time>
      </trkpt>
      <trkpt lat="48.44511" lon="2.70529">
        <ele>91</ele>
        <time>2011-10-02T12:03:45Z</time>
      </trkpt>
      <trkpt lat="48.44524" lon="2.70522">
        <ele>91</ele>
        <time>2011-10-02T12:03:50Z</time>
      </trkpt>
      <trkpt lat="48.44541" lon="2.70513">
        <ele>91</ele>
        <time>2011-10-02T12:03:56Z</time>
      </trkpt>
      <trkpt lat="48.44556" lon="2.70508">
        <ele>92</ele>
        <time>2011-10-02T12:04:01Z</time>
      </trkpt>
      <trkpt lat="48.44571" lon="2.705">
        <ele>92</ele>
        <time>2011-10-02T12:04:08Z</time>
      </trkpt>
      <trkpt lat="48.44589" lon="2.70491">
        <ele>92</ele>
        <time>2011-10-02T12:04:14Z</time>
      </trkpt>
      <trkpt lat="48.4461" lon="2.7048">
        <ele>91</ele>
        <time>2011-10-02T12:04:20Z</time>
      </trkpt>
      <trkpt lat="48.44634" lon="2.70467">
        <ele>91</ele>
        <time>2011-10-02T12:04:27Z</time>
      </trkpt>
      <trkpt lat="48.44638" lon="2.70446">
        <ele>91</ele>
        <time>2011-10-02T12:04:32Z</time>
      </trkpt>
      <trkpt lat="48.44644" lon="2.70401">
        <ele>92</ele>
        <time>2011-10-02T12:04:41Z</time>
      </trkpt>
      <trkpt lat="48.44647" lon="2.70371">
        <ele>92</ele>
        <time>2011-10-02T12:04:48Z</time>
      </trkpt>
      <trkpt lat="48.44649" lon="2.70349">
        <ele>92</ele>
        <time>2011-10-02T12:04:53Z</time>
      </trkpt>
      <trkpt lat="48.44651" lon="2.70321">
        <ele>91</ele>
        <time>2011-10-02T12:04:59Z</time>
      </trkpt>
      <trkpt lat="48.44655" lon="2.70288">
        <ele>91</ele>
        <time>2011-10-02T12:05:06Z</time>
      </trkpt>
      <trkpt lat="48.44658" lon="2.70256">
        <ele>91</ele>
        <time>2011-10-02T12:05:13Z</time>
      </trkpt>
      <trkpt lat="48.44659" lon="2.7023">
        <ele>91</ele>
        <time>2011-10-02T12:05:19Z</time>
      </trkpt>
      <trkpt lat="48.44663" lon="2.70201">
        <ele>92</ele>
        <time>2011-10-02T12:05:24Z</time>
      </trkpt>
      <trkpt lat="48.44669" lon="2.70171">
        <ele>94</ele>
        <time>2011-10-02T12:05:29Z</time>
      </trkpt>
      <trkpt lat="48.44672" lon="2.70147">
        <ele>95</ele>
        <time>2011-10-02T12:05:33Z</time>
      </trkpt>
      <trkpt lat="48.44679" lon="2.70117">
        <ele>95</ele>
        <time>2011-10-02T12:05:38Z</time>
      </trkpt>
      <trkpt lat="48.44684" lon="2.70094">
        <ele>96</ele>
        <time>2011-10-02T12:05:42Z</time>
      </trkpt>
      <trkpt lat="48.44685" lon="2.70071">
        <ele>97</ele>
        <time>2011-10-02T12:05:46Z</time>
      </trkpt>
      <trkpt lat="48.44685" lon="2.70054">
        <ele>97</ele>
        <time>2011-10-02T12:05:50Z</time>
      </trkpt>
      <trkpt lat="48.4469" lon="2.70023">
        <ele>98</ele>
        <time>2011-10-02T12:05:56Z</time>
      </trkpt>
      <trkpt lat="48.44694" lon="2.69992">
        <ele>99</ele>
        <time>2011-10-02T12:06:01Z</time>
      </trkpt>
      <trkpt lat="48.44693" lon="2.69962">
        <ele>99</ele>
        <time>2011-10-02T12:06:06Z</time>
      </trkpt>
      <trkpt lat="48.44694" lon="2.69936">
        <ele>99</ele>
        <time>2011-10-02T12:06:10Z</time>
      </trkpt>
      <trkpt lat="48.44698" lon="2.69898">
        <ele>98</ele>
        <time>2011-10-02T12:06:16Z</time>
      </trkpt>
      <trkpt lat="48.447" lon="2.69884">
        <ele>98</ele>
        <time>2011-10-02T12:06:18Z</time>
      </trkpt>
      <trkpt lat="48.44705" lon="2.69858">
        <ele>98</ele>
        <time>2011-10-02T12:06:22Z</time>
      </trkpt>
      <trkpt lat="48.44711" lon="2.6983">
        <ele>96</ele>
        <time>2011-10-02T12:06:26Z</time>
      </trkpt>
      <trkpt lat="48.44716" lon="2.69798">
        <ele>95</ele>
        <time>2011-10-02T12:06:32Z</time>
      </trkpt>
      <trkpt lat="48.4472" lon="2.69792">
        <ele>95</ele>
        <time>2011-10-02T12:06:33Z</time>
      </trkpt>
      <trkpt lat="48.44742" lon="2.69782">
        <ele>95</ele>
        <time>2011-10-02T12:06:38Z</time>
      </trkpt>
      <trkpt lat="48.44763" lon="2.69783">
        <ele>94</ele>
        <time>2011-10-02T12:06:43Z</time>
      </trkpt>
      <trkpt lat="48.44782" lon="2.69782">
        <ele>94</ele>
        <time>2011-10-02T12:06:48Z</time>
      </trkpt>
      <trkpt lat="48.44805" lon="2.69781">
        <ele>94</ele>
        <time>2011-10-02T12:06:54Z</time>
      </trkpt>
      <trkpt lat="48.44826" lon="2.69782">
        <ele>94</ele>
        <time>2011-10-02T12:06:59Z</time>
      </trkpt>
      <trkpt lat="48.44845" lon="2.69781">
        <ele>96</ele>
        <time>2011-10-02T12:07:04Z</time>
      </trkpt>
      <trkpt lat="48.44869" lon="2.6978">
        <ele>96</ele>
        <time>2011-10-02T12:07:10Z</time>
      </trkpt>
      <trkpt lat="48.44896" lon="2.69778">
        <ele>96</ele>
        <time>2011-10-02T12:07:17Z</time>
      </trkpt>
      <trkpt lat="48.44913" lon="2.69777">
        <ele>96</ele>
        <time>2011-10-02T12:07:22Z</time>
      </trkpt>
      <trkpt lat="48.44933" lon="2.69777">
        <ele>97</ele>
        <time>2011-10-02T12:07:27Z</time>
      </trkpt>
      <trkpt lat="48.44951" lon="2.69776">
        <ele>97</ele>
        <time>2011-10-02T12:07:32Z</time>
      </trkpt>
      <trkpt lat="48.44967" lon="2.69774">
        <ele>97</ele>
        <time>2011-10-02T12:07:36Z</time>
      </trkpt>
      <trkpt lat="48.44984" lon="2.69774">
        <ele>97</ele>
        <time>2011-10-02T12:07:40Z</time>
      </trkpt>
      <trkpt lat="48.45007" lon="2.69772">
        <ele>97</ele>
        <time>2011-10-02T12:07:45Z</time>
      </trkpt>
      <trkpt lat="48.4503" lon="2.69772">
        <ele>97</ele>
        <time>2011-10-02T12:07:50Z</time>
      </trkpt>
      <trkpt lat="48.45052" lon="2.69769">
        <ele>97</ele>
        <time>2011-10-02T12:07:55Z</time>
      </trkpt>
      <trkpt lat="48.4508" lon="2.69767">
        <ele>97</ele>
        <time>2011-10-02T12:08:02Z</time>
      </trkpt>
      <trkpt lat="48.45102" lon="2.69767">
        <ele>97</ele>
        <time>2011-10-02T12:08:07Z</time>
      </trkpt>
      <trkpt lat="48.45131" lon="2.69767">
        <ele>96</ele>
        <time>2011-10-02T12:08:14Z</time>
      </trkpt>
      <trkpt lat="48.45149" lon="2.69766">
        <ele>96</ele>
        <time>2011-10-02T12:08:19Z</time>
      </trkpt>
      <trkpt lat="48.45168" lon="2.69766">
        <ele>96</ele>
        <time>2011-10-02T12:08:24Z</time>
      </trkpt>
      <trkpt lat="48.45193" lon="2.69767">
        <ele>95</ele>
        <time>2011-10-02T12:08:30Z</time>
      </trkpt>
      <trkpt lat="48.45212" lon="2.69768">
        <ele>95</ele>
        <time>2011-10-02T12:08:35Z</time>
      </trkpt>
      <trkpt lat="48.45237" lon="2.69767">
        <ele>94</ele>
        <time>2011-10-02T12:08:41Z</time>
      </trkpt>
      <trkpt lat="48.45253" lon="2.69759">
        <ele>93</ele>
        <time>2011-10-02T12:08:45Z</time>
      </trkpt>
      <trkpt lat="48.45268" lon="2.69738">
        <ele>91</ele>
        <time>2011-10-02T12:08:50Z</time>
      </trkpt>
      <trkpt lat="48.4529" lon="2.69704">
        <ele>91</ele>
        <time>2011-10-02T12:08:58Z</time>
      </trkpt>
      <trkpt lat="48.45312" lon="2.69671">
        <ele>91</ele>
        <time>2011-10-02T12:09:06Z</time>
      </trkpt>
      <trkpt lat="48.45336" lon="2.69632">
        <ele>93</ele>
        <time>2011-10-02T12:09:15Z</time>
      </trkpt>
      <trkpt lat="48.45356" lon="2.69602">
        <ele>92</ele>
        <time>2011-10-02T12:09:22Z</time>
      </trkpt>
      <trkpt lat="48.45379" lon="2.69563">
        <ele>92</ele>
        <time>2011-10-02T12:09:31Z</time>
      </trkpt>
      <trkpt lat="48.45395" lon="2.69538">
        <ele>92</ele>
        <time>2011-10-02T12:09:37Z</time>
      </trkpt>
      <trkpt lat="48.45411" lon="2.69512">
        <ele>92</ele>
        <time>2011-10-02T12:09:44Z</time>
      </trkpt>
      <trkpt lat="48.45429" lon="2.69481">
        <ele>93</ele>
        <time>2011-10-02T12:09:52Z</time>
      </trkpt>
      <trkpt lat="48.4543" lon="2.69478">
        <ele>93</ele>
        <time>2011-10-02T12:09:53Z</time>
      </trkpt>
      <trkpt lat="48.45442" lon="2.69457">
        <ele>94</ele>
        <time>2011-10-02T12:09:59Z</time>
      </trkpt>
      <trkpt lat="48.4546" lon="2.69436">
        <ele>94</ele>
        <time>2011-10-02T12:10:05Z</time>
      </trkpt>
      <trkpt lat="48.45477" lon="2.69419">
        <ele>94</ele>
        <time>2011-10-02T12:10:11Z</time>
      </trkpt>
      <trkpt lat="48.45491" lon="2.69406">
        <ele>95</ele>
        <time>2011-10-02T12:10:16Z</time>
      </trkpt>
      <trkpt lat="48.45511" lon="2.69386">
        <ele>95</ele>
        <time>2011-10-02T12:10:22Z</time>
      </trkpt>
      <trkpt lat="48.45528" lon="2.69367">
        <ele>95</ele>
        <time>2011-10-02T12:10:27Z</time>
      </trkpt>
      <trkpt lat="48.45549" lon="2.69346">
        <ele>95</ele>
        <time>2011-10-02T12:10:33Z</time>
      </trkpt>
      <trkpt lat="48.45576" lon="2.69321">
        <ele>95</ele>
        <time>2011-10-02T12:10:41Z</time>
      </trkpt>
      <trkpt lat="48.45594" lon="2.69304">
        <ele>96</ele>
        <time>2011-10-02T12:10:47Z</time>
      </trkpt>
      <trkpt lat="48.45598" lon="2.69301">
        <ele>96</ele>
        <time>2011-10-02T12:10:49Z</time>
      </trkpt>
      <trkpt lat="48.45608" lon="2.69292">
        <ele>96</ele>
        <time>2011-10-02T12:10:53Z</time>
      </trkpt>
      <trkpt lat="48.4562" lon="2.69276">
        <ele>97</ele>
        <time>2011-10-02T12:11:00Z</time>
      </trkpt>
      <trkpt lat="48.45636" lon="2.69258">
        <ele>97</ele>
        <time>2011-10-02T12:11:08Z</time>
      </trkpt>
      <trkpt lat="48.45649" lon="2.69247">
        <ele>98</ele>
        <time>2011-10-02T12:11:14Z</time>
      </trkpt>
      <trkpt lat="48.45665" lon="2.69231">
        <ele>98</ele>
        <time>2011-10-02T12:11:22Z</time>
      </trkpt>
      <trkpt lat="48.45684" lon="2.69215">
        <ele>101</ele>
        <time>2011-10-02T12:11:30Z</time>
      </trkpt>
      <trkpt lat="48.45693" lon="2.69206">
        <ele>101</ele>
        <time>2011-10-02T12:11:35Z</time>
      </trkpt>
      <trkpt lat="48.45697" lon="2.69203">
        <ele>101</ele>
        <time>2011-10-02T12:11:41Z</time>
      </trkpt>
      <trkpt lat="48.45697" lon="2.69202">
        <ele>101</ele>
        <time>2011-10-02T12:11:47Z</time>
      </trkpt>
      <trkpt lat="48.45701" lon="2.69199">
        <ele>101</ele>
        <time>2011-10-02T12:11:53Z</time>
      </trkpt>
      <trkpt lat="48.45705" lon="2.69195">
        <ele>101</ele>
        <time>2011-10-02T12:11:59Z</time>
      </trkpt>
      <trkpt lat="48.45701" lon="2.69203">
        <ele>101</ele>
        <time>2011-10-02T12:12:29Z</time>
      </trkpt>
      <trkpt lat="48.45692" lon="2.69213">
        <ele>101</ele>
        <time>2011-10-02T12:13:06Z</time>
      </trkpt>
      <trkpt lat="48.45698" lon="2.69208">
        <ele>101</ele>
        <time>2011-10-02T12:14:22Z</time>
      </trkpt>
      <trkpt lat="48.45705" lon="2.69202">
        <ele>101</ele>
        <time>2011-10-02T12:15:26Z</time>
      </trkpt>
      <trkpt lat="48.45708" lon="2.692">
        <ele>102</ele>
        <time>2011-10-02T12:15:48Z</time>
      </trkpt>
      <trkpt lat="48.45711" lon="2.69201">
        <ele>102</ele>
        <time>2011-10-02T12:16:29Z</time>
      </trkpt>
      <trkpt lat="48.45717" lon="2.69198">
        <ele>102</ele>
        <time>2011-10-02T12:16:50Z</time>
      </trkpt>
      <trkpt lat="48.45711" lon="2.69199">
        <ele>102</ele>
        <time>2011-10-02T12:17:07Z</time>
      </trkpt>
      <trkpt lat="48.45711" lon="2.69198">
        <ele>102</ele>
        <time>2011-10-02T12:17:29Z</time>
      </trkpt>
      <trkpt lat="48.45708" lon="2.69201">
        <ele>102</ele>
        <time>2011-10-02T12:17:48Z</time>
      </trkpt>
      <trkpt lat="48.45701" lon="2.69205">
        <ele>101</ele>
        <time>2011-10-02T12:18:02Z</time>
      </trkpt>
      <trkpt lat="48.45704" lon="2.69201">
        <ele>101</ele>
        <time>2011-10-02T12:18:43Z</time>
      </trkpt>
      <trkpt lat="48.45709" lon="2.69194">
        <ele>102</ele>
        <time>2011-10-02T12:19:15Z</time>
      </trkpt>
      <trkpt lat="48.4571" lon="2.69195">
        <ele>102</ele>
        <time>2011-10-02T12:19:35Z</time>
      </trkpt>
      <trkpt lat="48.45706" lon="2.69199">
        <ele>101</ele>
        <time>2011-10-02T12:19:54Z</time>
      </trkpt>
      <trkpt lat="48.45703" lon="2.69193">
        <ele>101</ele>
        <time>2011-10-02T12:20:23Z</time>
      </trkpt>
      <trkpt lat="48.45701" lon="2.69191">
        <ele>101</ele>
        <time>2011-10-02T12:20:39Z</time>
      </trkpt>
      <trkpt lat="48.45705" lon="2.69189">
        <ele>102</ele>
        <time>2011-10-02T12:20:58Z</time>
      </trkpt>
      <trkpt lat="48.45716" lon="2.69183">
        <ele>102</ele>
        <time>2011-10-02T12:21:17Z</time>
      </trkpt>
      <trkpt lat="48.45715" lon="2.69186">
        <ele>102</ele>
        <time>2011-10-02T12:21:54Z</time>
      </trkpt>
      <trkpt lat="48.45713" lon="2.69187">
        <ele>102</ele>
        <time>2011-10-02T12:22:20Z</time>
      </trkpt>
      <trkpt lat="48.45709" lon="2.69187">
        <ele>102</ele>
        <time>2011-10-02T12:22:47Z</time>
      </trkpt>
      <trkpt lat="48.45705" lon="2.69184">
        <ele>102</ele>
        <time>2011-10-02T12:23:02Z</time>
      </trkpt>
      <trkpt lat="48.45706" lon="2.69181">
        <ele>102</ele>
        <time>2011-10-02T12:23:21Z</time>
      </trkpt>
      <trkpt lat="48.45707" lon="2.69177">
        <ele>102</ele>
        <time>2011-10-02T12:23:52Z</time>
      </trkpt>
      <trkpt lat="48.45711" lon="2.69186">
        <ele>102</ele>
        <time>2011-10-02T12:24:21Z</time>
      </trkpt>
      <trkpt lat="48.45707" lon="2.69185">
        <ele>102</ele>
        <time>2011-10-02T12:24:37Z</time>
      </trkpt>
      <trkpt lat="48.45706" lon="2.69184">
        <ele>102</ele>
        <time>2011-10-02T12:24:53Z</time>
      </trkpt>
      <trkpt lat="48.45706" lon="2.69187">
        <ele>102</ele>
        <time>2011-10-02T12:25:09Z</time>
      </trkpt>
      <trkpt lat="48.45709" lon="2.69187">
        <ele>102</ele>
        <time>2011-10-02T12:25:16Z</time>
      </trkpt>
      <trkpt lat="48.45714" lon="2.69186">
        <ele>102</ele>
        <time>2011-10-02T12:25:21Z</time>
      </trkpt>
      <trkpt lat="48.45725" lon="2.69178">
        <ele>102</ele>
        <time>2011-10-02T12:25:27Z</time>
      </trkpt>
      <trkpt lat="48.45741" lon="2.69165">
        <ele>103</ele>
        <time>2011-10-02T12:25:32Z</time>
      </trkpt>
      <trkpt lat="48.45755" lon="2.6915">
        <ele>102</ele>
        <time>2011-10-02T12:25:37Z</time>
      </trkpt>
      <trkpt lat="48.4578" lon="2.69125">
        <ele>101</ele>
        <time>2011-10-02T12:25:45Z</time>
      </trkpt>
      <trkpt lat="48.45801" lon="2.69105">
        <ele>100</ele>
        <time>2011-10-02T12:25:52Z</time>
      </trkpt>
      <trkpt lat="48.45803" lon="2.69104">
        <ele>100</ele>
        <time>2011-10-02T12:25:57Z</time>
      </trkpt>
      <trkpt lat="48.45802" lon="2.69104">
        <ele>100</ele>
        <time>2011-10-02T12:25:58Z</time>
      </trkpt>
      <trkpt lat="48.45797" lon="2.69109">
        <ele>100</ele>
        <time>2011-10-02T12:26:05Z</time>
      </trkpt>
      <trkpt lat="48.4579" lon="2.69112">
        <ele>100</ele>
        <time>2011-10-02T12:26:10Z</time>
      </trkpt>
      <trkpt lat="48.45789" lon="2.6911">
        <ele>100</ele>
        <time>2011-10-02T12:26:11Z</time>
      </trkpt>
      <trkpt lat="48.45786" lon="2.69097">
        <ele>100</ele>
        <time>2011-10-02T12:26:17Z</time>
      </trkpt>
      <trkpt lat="48.45781" lon="2.69073">
        <ele>98</ele>
        <time>2011-10-02T12:26:23Z</time>
      </trkpt>
      <trkpt lat="48.45771" lon="2.69042">
        <ele>98</ele>
        <time>2011-10-02T12:26:30Z</time>
      </trkpt>
      <trkpt lat="48.45759" lon="2.69023">
        <ele>98</ele>
        <time>2011-10-02T12:26:36Z</time>
      </trkpt>
      <trkpt lat="48.4575" lon="2.69009">
        <ele>98</ele>
        <time>2011-10-02T12:26:41Z</time>
      </trkpt>
      <trkpt lat="48.45757" lon="2.68991">
        <ele>97</ele>
        <time>2011-10-02T12:26:47Z</time>
      </trkpt>
      <trkpt lat="48.45767" lon="2.68985">
        <ele>97</ele>
        <time>2011-10-02T12:26:51Z</time>
      </trkpt>
      <trkpt lat="48.45768" lon="2.68982">
        <ele>97</ele>
        <time>2011-10-02T12:26:52Z</time>
      </trkpt>
      <trkpt lat="48.45776" lon="2.68964">
        <ele>97</ele>
        <time>2011-10-02T12:26:57Z</time>
      </trkpt>
      <trkpt lat="48.45785" lon="2.68957">
        <ele>97</ele>
        <time>2011-10-02T12:27:01Z</time>
      </trkpt>
      <trkpt lat="48.45794" lon="2.68938">
        <ele>97</ele>
        <time>2011-10-02T12:27:09Z</time>
      </trkpt>
      <trkpt lat="48.45798" lon="2.6893">
        <ele>97</ele>
        <time>2011-10-02T12:27:11Z</time>
      </trkpt>
      <trkpt lat="48.45805" lon="2.68928">
        <ele>97</ele>
        <time>2011-10-02T12:27:16Z</time>
      </trkpt>
      <trkpt lat="48.4581" lon="2.6893">
        <ele>97</ele>
        <time>2011-10-02T12:27:21Z</time>
      </trkpt>
      <trkpt lat="48.45815" lon="2.68933">
        <ele>97</ele>
        <time>2011-10-02T12:27:24Z</time>
      </trkpt>
      <trkpt lat="48.45827" lon="2.68929">
        <ele>97</ele>
        <time>2011-10-02T12:27:29Z</time>
      </trkpt>
      <trkpt lat="48.4583" lon="2.68925">
        <ele>97</ele>
        <time>2011-10-02T12:27:30Z</time>
      </trkpt>
      <trkpt lat="48.45844" lon="2.68919">
        <ele>96</ele>
        <time>2011-10-02T12:27:34Z</time>
      </trkpt>
      <trkpt lat="48.45856" lon="2.68918">
        <ele>95</ele>
        <time>2011-10-02T12:27:37Z</time>
      </trkpt>
      <trkpt lat="48.45878" lon="2.68919">
        <ele>93</ele>
        <time>2011-10-02T12:27:41Z</time>
      </trkpt>
      <trkpt lat="48.45905" lon="2.68917">
        <ele>91</ele>
        <time>2011-10-02T12:27:47Z</time>
      </trkpt>
      <trkpt lat="48.45929" lon="2.68917">
        <ele>91</ele>
        <time>2011-10-02T12:27:54Z</time>
      </trkpt>
      <trkpt lat="48.45939" lon="2.68917">
        <ele>91</ele>
        <time>2011-10-02T12:28:00Z</time>
      </trkpt>
      <trkpt lat="48.45952" lon="2.68918">
        <ele>91</ele>
        <time>2011-10-02T12:28:07Z</time>
      </trkpt>
      <trkpt lat="48.45966" lon="2.68918">
        <ele>92</ele>
        <time>2011-10-02T12:28:12Z</time>
      </trkpt>
      <trkpt lat="48.45967" lon="2.68907">
        <ele>92</ele>
        <time>2011-10-02T12:28:17Z</time>
      </trkpt>
      <trkpt lat="48.45965" lon="2.68904">
        <ele>92</ele>
        <time>2011-10-02T12:28:21Z</time>
      </trkpt>
      <trkpt lat="48.45962" lon="2.689">
        <ele>92</ele>
        <time>2011-10-02T12:28:40Z</time>
      </trkpt>
      <trkpt lat="48.45951" lon="2.68886">
        <ele>92</ele>
        <time>2011-10-02T12:28:46Z</time>
      </trkpt>
      <trkpt lat="48.45933" lon="2.68861">
        <ele>91</ele>
        <time>2011-10-02T12:28:54Z</time>
      </trkpt>
      <trkpt lat="48.45916" lon="2.68836">
        <ele>90</ele>
        <time>2011-10-02T12:29:01Z</time>
      </trkpt>
      <trkpt lat="48.45889" lon="2.68798">
        <ele>91</ele>
        <time>2011-10-02T12:29:11Z</time>
      </trkpt>
      <trkpt lat="48.4587" lon="2.68771">
        <ele>92</ele>
        <time>2011-10-02T12:29:18Z</time>
      </trkpt>
      <trkpt lat="48.4586" lon="2.68758">
        <ele>92</ele>
        <time>2011-10-02T12:29:23Z</time>
      </trkpt>
      <trkpt lat="48.45857" lon="2.68755">
        <ele>92</ele>
        <time>2011-10-02T12:29:28Z</time>
      </trkpt>
      <trkpt lat="48.45858" lon="2.68758">
        <ele>92</ele>
        <time>2011-10-02T12:29:45Z</time>
      </trkpt>
      <trkpt lat="48.45866" lon="2.68767">
        <ele>92</ele>
        <time>2011-10-02T12:29:50Z</time>
      </trkpt>
      <trkpt lat="48.4588" lon="2.68787">
        <ele>92</ele>
        <time>2011-10-02T12:29:55Z</time>
      </trkpt>
      <trkpt lat="48.45901" lon="2.68817">
        <ele>91</ele>
        <time>2011-10-02T12:30:02Z</time>
      </trkpt>
      <trkpt lat="48.45928" lon="2.68855">
        <ele>91</ele>
        <time>2011-10-02T12:30:10Z</time>
      </trkpt>
      <trkpt lat="48.45952" lon="2.68888">
        <ele>92</ele>
        <time>2011-10-02T12:30:17Z</time>
      </trkpt>
      <trkpt lat="48.45966" lon="2.68906">
        <ele>92</ele>
        <time>2011-10-02T12:30:22Z</time>
      </trkpt>
      <trkpt lat="48.4598" lon="2.68905">
        <ele>92</ele>
        <time>2011-10-02T12:30:26Z</time>
      </trkpt>
      <trkpt lat="48.45981" lon="2.68895">
        <ele>92</ele>
        <time>2011-10-02T12:30:28Z</time>
      </trkpt>
      <trkpt lat="48.45986" lon="2.68851">
        <ele>93</ele>
        <time>2011-10-02T12:30:35Z</time>
      </trkpt>
      <trkpt lat="48.45989" lon="2.68837">
        <ele>93</ele>
        <time>2011-10-02T12:30:37Z</time>
      </trkpt>
      <trkpt lat="48.45996" lon="2.6879">
        <ele>93</ele>
        <time>2011-10-02T12:30:44Z</time>
      </trkpt>
      <trkpt lat="48.45997" lon="2.68784">
        <ele>93</ele>
        <time>2011-10-02T12:30:45Z</time>
      </trkpt>
      <trkpt lat="48.46002" lon="2.68744">
        <ele>93</ele>
        <time>2011-10-02T12:30:51Z</time>
      </trkpt>
      <trkpt lat="48.46008" lon="2.68709">
        <ele>92</ele>
        <time>2011-10-02T12:30:57Z</time>
      </trkpt>
      <trkpt lat="48.46013" lon="2.68673">
        <ele>92</ele>
        <time>2011-10-02T12:31:02Z</time>
      </trkpt>
      <trkpt lat="48.46016" lon="2.68633">
        <ele>91</ele>
        <time>2011-10-02T12:31:08Z</time>
      </trkpt>
      <trkpt lat="48.46021" lon="2.68601">
        <ele>91</ele>
        <time>2011-10-02T12:31:13Z</time>
      </trkpt>
      <trkpt lat="48.46023" lon="2.68594">
        <ele>91</ele>
        <time>2011-10-02T12:31:14Z</time>
      </trkpt>
      <trkpt lat="48.46033" lon="2.68543">
        <ele>90</ele>
        <time>2011-10-02T12:31:21Z</time>
      </trkpt>
      <trkpt lat="48.46039" lon="2.68501">
        <ele>90</ele>
        <time>2011-10-02T12:31:27Z</time>
      </trkpt>
      <trkpt lat="48.4604" lon="2.68486">
        <ele>91</ele>
        <time>2011-10-02T12:31:29Z</time>
      </trkpt>
      <trkpt lat="48.46048" lon="2.68439">
        <ele>91</ele>
        <time>2011-10-02T12:31:36Z</time>
      </trkpt>
      <trkpt lat="48.46055" lon="2.68379">
        <ele>91</ele>
        <time>2011-10-02T12:31:44Z</time>
      </trkpt>
      <trkpt lat="48.46061" lon="2.68332">
        <ele>92</ele>
        <time>2011-10-02T12:31:51Z</time>
      </trkpt>
      <trkpt lat="48.46063" lon="2.68327">
        <ele>92</ele>
        <time>2011-10-02T12:31:52Z</time>
      </trkpt>
      <trkpt lat="48.46062" lon="2.68298">
        <ele>92</ele>
        <time>2011-10-02T12:31:59Z</time>
      </trkpt>
      <trkpt lat="48.46054" lon="2.68285">
        <ele>92</ele>
        <time>2011-10-02T12:32:04Z</time>
      </trkpt>
      <trkpt lat="48.46046" lon="2.68272">
        <ele>92</ele>
        <time>2011-10-02T12:32:09Z</time>
      </trkpt>
      <trkpt lat="48.46042" lon="2.6827">
        <ele>93</ele>
        <time>2011-10-02T12:32:13Z</time>
      </trkpt>
      <trkpt lat="48.46038" lon="2.68267">
        <ele>93</ele>
        <time>2011-10-02T12:32:23Z</time>
      </trkpt>
      <trkpt lat="48.46027" lon="2.68252">
        <ele>93</ele>
        <time>2011-10-02T12:32:28Z</time>
      </trkpt>
      <trkpt lat="48.46012" lon="2.68238">
        <ele>95</ele>
        <time>2011-10-02T12:32:33Z</time>
      </trkpt>
      <trkpt lat="48.46002" lon="2.68229">
        <ele>95</ele>
        <time>2011-10-02T12:32:37Z</time>
      </trkpt>
      <trkpt lat="48.45987" lon="2.68212">
        <ele>101</ele>
        <time>2011-10-02T12:32:43Z</time>
      </trkpt>
      <trkpt lat="48.45975" lon="2.68208">
        <ele>101</ele>
        <time>2011-10-02T12:32:47Z</time>
      </trkpt>
      <trkpt lat="48.45963" lon="2.68201">
        <ele>102</ele>
        <time>2011-10-02T12:32:53Z</time>
      </trkpt>
      <trkpt lat="48.45961" lon="2.68199">
        <ele>102</ele>
        <time>2011-10-02T12:32:55Z</time>
      </trkpt>
      <trkpt lat="48.45955" lon="2.68189">
        <ele>102</ele>
        <time>2011-10-02T12:33:00Z</time>
      </trkpt>
      <trkpt lat="48.45954" lon="2.68188">
        <ele>102</ele>
        <time>2011-10-02T12:33:01Z</time>
      </trkpt>
      <trkpt lat="48.45946" lon="2.6818">
        <ele>103</ele>
        <time>2011-10-02T12:33:07Z</time>
      </trkpt>
      <trkpt lat="48.45941" lon="2.68177">
        <ele>104</ele>
        <time>2011-10-02T12:33:10Z</time>
      </trkpt>
      <trkpt lat="48.45938" lon="2.6817">
        <ele>104</ele>
        <time>2011-10-02T12:33:16Z</time>
      </trkpt>
      <trkpt lat="48.45939" lon="2.68169">
        <ele>104</ele>
        <time>2011-10-02T12:33:28Z</time>
      </trkpt>
      <trkpt lat="48.45937" lon="2.68159">
        <ele>105</ele>
        <time>2011-10-02T12:33:34Z</time>
      </trkpt>
      <trkpt lat="48.45934" lon="2.68153">
        <ele>105</ele>
        <time>2011-10-02T12:33:38Z</time>
      </trkpt>
      <trkpt lat="48.45932" lon="2.68141">
        <ele>104</ele>
        <time>2011-10-02T12:33:43Z</time>
      </trkpt>
      <trkpt lat="48.45928" lon="2.68117">
        <ele>104</ele>
        <time>2011-10-02T12:33:49Z</time>
      </trkpt>
      <trkpt lat="48.45922" lon="2.68083">
        <ele>105</ele>
        <time>2011-10-02T12:33:55Z</time>
      </trkpt>
      <trkpt lat="48.45921" lon="2.68066">
        <ele>104</ele>
        <time>2011-10-02T12:33:59Z</time>
      </trkpt>
      <trkpt lat="48.45923" lon="2.6805">
        <ele>103</ele>
        <time>2011-10-02T12:34:04Z</time>
      </trkpt>
      <trkpt lat="48.45924" lon="2.68043">
        <ele>103</ele>
        <time>2011-10-02T12:34:07Z</time>
      </trkpt>
      <trkpt lat="48.45925" lon="2.68033">
        <ele>103</ele>
        <time>2011-10-02T12:34:12Z</time>
      </trkpt>
      <trkpt lat="48.45927" lon="2.68028">
        <ele>103</ele>
        <time>2011-10-02T12:34:19Z</time>
      </trkpt>
      <trkpt lat="48.45928" lon="2.68012">
        <ele>103</ele>
        <time>2011-10-02T12:34:25Z</time>
      </trkpt>
      <trkpt lat="48.45929" lon="2.68006">
        <ele>103</ele>
        <time>2011-10-02T12:34:27Z</time>
      </trkpt>
      <trkpt lat="48.45928" lon="2.67997">
        <ele>102</ele>
        <time>2011-10-02T12:34:30Z</time>
      </trkpt>
      <trkpt lat="48.45928" lon="2.67982">
        <ele>101</ele>
        <time>2011-10-02T12:34:34Z</time>
      </trkpt>
      <trkpt lat="48.45921" lon="2.67963">
        <ele>100</ele>
        <time>2011-10-02T12:34:38Z</time>
      </trkpt>
      <trkpt lat="48.45914" lon="2.67957">
        <ele>100</ele>
        <time>2011-10-02T12:34:40Z</time>
      </trkpt>
      <trkpt lat="48.45906" lon="2.67936">
        <ele>99</ele>
        <time>2011-10-02T12:34:45Z</time>
      </trkpt>
      <trkpt lat="48.45904" lon="2.67931">
        <ele>99</ele>
        <time>2011-10-02T12:34:49Z</time>
      </trkpt>
      <trkpt lat="48.45901" lon="2.67926">
        <ele>99</ele>
        <time>2011-10-02T12:35:05Z</time>
      </trkpt>
      <trkpt lat="48.459" lon="2.67926">
        <ele>99</ele>
        <time>2011-10-02T12:35:22Z</time>
      </trkpt>
      <trkpt lat="48.45906" lon="2.67933">
        <ele>99</ele>
        <time>2011-10-02T12:35:36Z</time>
      </trkpt>
      <trkpt lat="48.45899" lon="2.67924">
        <ele>99</ele>
        <time>2011-10-02T12:35:54Z</time>
      </trkpt>
      <trkpt lat="48.45894" lon="2.67903">
        <ele>98</ele>
        <time>2011-10-02T12:35:58Z</time>
      </trkpt>
      <trkpt lat="48.45889" lon="2.67877">
        <ele>97</ele>
        <time>2011-10-02T12:36:03Z</time>
      </trkpt>
      <trkpt lat="48.45884" lon="2.67856">
        <ele>97</ele>
        <time>2011-10-02T12:36:09Z</time>
      </trkpt>
      <trkpt lat="48.4588" lon="2.67839">
        <ele>97</ele>
        <time>2011-10-02T12:36:14Z</time>
      </trkpt>
      <trkpt lat="48.45874" lon="2.67823">
        <ele>99</ele>
        <time>2011-10-02T12:36:18Z</time>
      </trkpt>
      <trkpt lat="48.45872" lon="2.67806">
        <ele>99</ele>
        <time>2011-10-02T12:36:23Z</time>
      </trkpt>
      <trkpt lat="48.45867" lon="2.67791">
        <ele>100</ele>
        <time>2011-10-02T12:36:28Z</time>
      </trkpt>
      <trkpt lat="48.45866" lon="2.67784">
        <ele>100</ele>
        <time>2011-10-02T12:36:30Z</time>
      </trkpt>
      <trkpt lat="48.45859" lon="2.67769">
        <ele>101</ele>
        <time>2011-10-02T12:36:35Z</time>
      </trkpt>
      <trkpt lat="48.45853" lon="2.67757">
        <ele>101</ele>
        <time>2011-10-02T12:36:41Z</time>
      </trkpt>
      <trkpt lat="48.45851" lon="2.67749">
        <ele>103</ele>
        <time>2011-10-02T12:36:44Z</time>
      </trkpt>
      <trkpt lat="48.45856" lon="2.67738">
        <ele>103</ele>
        <time>2011-10-02T12:36:48Z</time>
      </trkpt>
      <trkpt lat="48.45871" lon="2.67725">
        <ele>102</ele>
        <time>2011-10-02T12:36:53Z</time>
      </trkpt>
      <trkpt lat="48.45879" lon="2.67712">
        <ele>102</ele>
        <time>2011-10-02T12:36:56Z</time>
      </trkpt>
      <trkpt lat="48.45881" lon="2.67703">
        <ele>102</ele>
        <time>2011-10-02T12:36:58Z</time>
      </trkpt>
      <trkpt lat="48.45873" lon="2.67688">
        <ele>103</ele>
        <time>2011-10-02T12:37:02Z</time>
      </trkpt>
      <trkpt lat="48.45863" lon="2.6767">
        <ele>103</ele>
        <time>2011-10-02T12:37:07Z</time>
      </trkpt>
      <trkpt lat="48.45857" lon="2.67648">
        <ele>103</ele>
        <time>2011-10-02T12:37:11Z</time>
      </trkpt>
      <trkpt lat="48.45857" lon="2.67642">
        <ele>103</ele>
        <time>2011-10-02T12:37:12Z</time>
      </trkpt>
      <trkpt lat="48.45859" lon="2.67611">
        <ele>103</ele>
        <time>2011-10-02T12:37:16Z</time>
      </trkpt>
      <trkpt lat="48.45866" lon="2.67574">
        <ele>102</ele>
        <time>2011-10-02T12:37:21Z</time>
      </trkpt>
      <trkpt lat="48.45875" lon="2.67548">
        <ele>102</ele>
        <time>2011-10-02T12:37:26Z</time>
      </trkpt>
      <trkpt lat="48.45878" lon="2.67526">
        <ele>102</ele>
        <time>2011-10-02T12:37:30Z</time>
      </trkpt>
      <trkpt lat="48.45887" lon="2.67504">
        <ele>102</ele>
        <time>2011-10-02T12:37:34Z</time>
      </trkpt>
      <trkpt lat="48.45889" lon="2.67495">
        <ele>101</ele>
        <time>2011-10-02T12:37:37Z</time>
      </trkpt>
      <trkpt lat="48.45894" lon="2.67487">
        <ele>101</ele>
        <time>2011-10-02T12:37:44Z</time>
      </trkpt>
      <trkpt lat="48.45902" lon="2.67478">
        <ele>101</ele>
        <time>2011-10-02T12:37:48Z</time>
      </trkpt>
      <trkpt lat="48.45905" lon="2.67475">
        <ele>101</ele>
        <time>2011-10-02T12:37:49Z</time>
      </trkpt>
      <trkpt lat="48.45917" lon="2.67456">
        <ele>100</ele>
        <time>2011-10-02T12:37:55Z</time>
      </trkpt>
      <trkpt lat="48.45922" lon="2.6745">
        <ele>100</ele>
        <time>2011-10-02T12:38:00Z</time>
      </trkpt>
      <trkpt lat="48.45929" lon="2.67443">
        <ele>100</ele>
        <time>2011-10-02T12:38:05Z</time>
      </trkpt>
      <trkpt lat="48.45938" lon="2.6743">
        <ele>100</ele>
        <time>2011-10-02T12:38:10Z</time>
      </trkpt>
      <trkpt lat="48.45949" lon="2.67419">
        <ele>100</ele>
        <time>2011-10-02T12:38:14Z</time>
      </trkpt>
      <trkpt lat="48.45954" lon="2.67399">
        <ele>101</ele>
        <time>2011-10-02T12:38:18Z</time>
      </trkpt>
      <trkpt lat="48.45966" lon="2.67379">
        <ele>101</ele>
        <time>2011-10-02T12:38:22Z</time>
      </trkpt>
      <trkpt lat="48.45971" lon="2.67375">
        <ele>101</ele>
        <time>2011-10-02T12:38:24Z</time>
      </trkpt>
      <trkpt lat="48.45974" lon="2.67365">
        <ele>101</ele>
        <time>2011-10-02T12:38:29Z</time>
      </trkpt>
      <trkpt lat="48.45971" lon="2.67346">
        <ele>102</ele>
        <time>2011-10-02T12:38:36Z</time>
      </trkpt>
      <trkpt lat="48.45972" lon="2.67337">
        <ele>102</ele>
        <time>2011-10-02T12:38:41Z</time>
      </trkpt>
      <trkpt lat="48.45973" lon="2.67333">
        <ele>103</ele>
        <time>2011-10-02T12:38:43Z</time>
      </trkpt>
      <trkpt lat="48.45975" lon="2.67313">
        <ele>103</ele>
        <time>2011-10-02T12:38:49Z</time>
      </trkpt>
      <trkpt lat="48.45982" lon="2.67307">
        <ele>103</ele>
        <time>2011-10-02T12:38:53Z</time>
      </trkpt>
      <trkpt lat="48.45987" lon="2.67308">
        <ele>103</ele>
        <time>2011-10-02T12:38:55Z</time>
      </trkpt>
      <trkpt lat="48.46004" lon="2.67309">
        <ele>103</ele>
        <time>2011-10-02T12:39:00Z</time>
      </trkpt>
      <trkpt lat="48.46006" lon="2.67309">
        <ele>103</ele>
        <time>2011-10-02T12:39:04Z</time>
      </trkpt>
      <trkpt lat="48.46012" lon="2.67305">
        <ele>103</ele>
        <time>2011-10-02T12:39:14Z</time>
      </trkpt>
      <trkpt lat="48.46014" lon="2.67305">
        <ele>103</ele>
        <time>2011-10-02T12:39:20Z</time>
      </trkpt>
      <trkpt lat="48.46019" lon="2.67301">
        <ele>103</ele>
        <time>2011-10-02T12:39:34Z</time>
      </trkpt>
      <trkpt lat="48.46017" lon="2.67303">
        <ele>103</ele>
        <time>2011-10-02T12:39:42Z</time>
      </trkpt>
      <trkpt lat="48.46015" lon="2.67306">
        <ele>103</ele>
        <time>2011-10-02T12:40:05Z</time>
      </trkpt>
      <trkpt lat="48.46018" lon="2.67311">
        <ele>103</ele>
        <time>2011-10-02T12:40:29Z</time>
      </trkpt>
      <trkpt lat="48.46021" lon="2.67311">
        <ele>103</ele>
        <time>2011-10-02T12:40:33Z</time>
      </trkpt>
      <trkpt lat="48.4603" lon="2.67314">
        <ele>103</ele>
        <time>2011-10-02T12:40:39Z</time>
      </trkpt>
      <trkpt lat="48.4603" lon="2.67316">
        <ele>103</ele>
        <time>2011-10-02T12:40:40Z</time>
      </trkpt>
      <trkpt lat="48.46036" lon="2.67325">
        <ele>104</ele>
        <time>2011-10-02T12:40:45Z</time>
      </trkpt>
      <trkpt lat="48.46046" lon="2.67338">
        <ele>103</ele>
        <time>2011-10-02T12:40:51Z</time>
      </trkpt>
      <trkpt lat="48.46049" lon="2.67343">
        <ele>103</ele>
        <time>2011-10-02T12:40:55Z</time>
      </trkpt>
      <trkpt lat="48.46051" lon="2.67351">
        <ele>103</ele>
        <time>2011-10-02T12:41:05Z</time>
      </trkpt>
      <trkpt lat="48.46053" lon="2.67352">
        <ele>103</ele>
        <time>2011-10-02T12:41:07Z</time>
      </trkpt>
      <trkpt lat="48.46057" lon="2.67353">
        <ele>103</ele>
        <time>2011-10-02T12:41:13Z</time>
      </trkpt>
      <trkpt lat="48.46059" lon="2.6735">
        <ele>103</ele>
        <time>2011-10-02T12:41:20Z</time>
      </trkpt>
      <trkpt lat="48.46061" lon="2.67349">
        <ele>103</ele>
        <time>2011-10-02T12:41:22Z</time>
      </trkpt>
      <trkpt lat="48.46065" lon="2.67341">
        <ele>104</ele>
        <time>2011-10-02T12:41:26Z</time>
      </trkpt>
      <trkpt lat="48.46067" lon="2.67323">
        <ele>104</ele>
        <time>2011-10-02T12:41:32Z</time>
      </trkpt>
      <trkpt lat="48.46067" lon="2.67304">
        <ele>104</ele>
        <time>2011-10-02T12:41:40Z</time>
      </trkpt>
      <trkpt lat="48.46063" lon="2.67295">
        <ele>104</ele>
        <time>2011-10-02T12:41:49Z</time>
      </trkpt>
      <trkpt lat="48.46061" lon="2.67292">
        <ele>104</ele>
        <time>2011-10-02T12:41:56Z</time>
      </trkpt>
      <trkpt lat="48.46059" lon="2.67288">
        <ele>104</ele>
        <time>2011-10-02T12:42:03Z</time>
      </trkpt>
      <trkpt lat="48.46059" lon="2.67287">
        <ele>104</ele>
        <time>2011-10-02T12:42:08Z</time>
      </trkpt>
      <trkpt lat="48.46059" lon="2.67286">
        <ele>104</ele>
        <time>2011-10-02T12:42:09Z</time>
      </trkpt>
      <trkpt lat="48.46052" lon="2.67276">
        <ele>103</ele>
        <time>2011-10-02T12:42:15Z</time>
      </trkpt>
      <trkpt lat="48.46049" lon="2.67265">
        <ele>103</ele>
        <time>2011-10-02T12:42:18Z</time>
      </trkpt>
      <trkpt lat="48.46043" lon="2.67259">
        <ele>103</ele>
        <time>2011-10-02T12:42:22Z</time>
      </trkpt>
      <trkpt lat="48.46035" lon="2.67266">
        <ele>103</ele>
        <time>2011-10-02T12:42:27Z</time>
      </trkpt>
      <trkpt lat="48.46028" lon="2.67268">
        <ele>103</ele>
        <time>2011-10-02T12:42:31Z</time>
      </trkpt>
      <trkpt lat="48.46016" lon="2.67268">
        <ele>103</ele>
        <time>2011-10-02T12:42:37Z</time>
      </trkpt>
      <trkpt lat="48.4601" lon="2.67263">
        <ele>103</ele>
        <time>2011-10-02T12:42:41Z</time>
      </trkpt>
      <trkpt lat="48.46007" lon="2.67261">
        <ele>103</ele>
        <time>2011-10-02T12:42:47Z</time>
      </trkpt>
      <trkpt lat="48.46003" lon="2.67258">
        <ele>103</ele>
        <time>2011-10-02T12:42:53Z</time>
      </trkpt>
      <trkpt lat="48.45997" lon="2.67254">
        <ele>103</ele>
        <time>2011-10-02T12:42:57Z</time>
      </trkpt>
      <trkpt lat="48.45993" lon="2.67251">
        <ele>103</ele>
        <time>2011-10-02T12:43:00Z</time>
      </trkpt>
      <trkpt lat="48.45982" lon="2.67237">
        <ele>103</ele>
        <time>2011-10-02T12:43:06Z</time>
      </trkpt>
      <trkpt lat="48.45977" lon="2.67228">
        <ele>103</ele>
        <time>2011-10-02T12:43:09Z</time>
      </trkpt>
      <trkpt lat="48.45968" lon="2.67219">
        <ele>103</ele>
        <time>2011-10-02T12:43:15Z</time>
      </trkpt>
      <trkpt lat="48.45967" lon="2.67214">
        <ele>103</ele>
        <time>2011-10-02T12:43:17Z</time>
      </trkpt>
      <trkpt lat="48.45973" lon="2.672">
        <ele>103</ele>
        <time>2011-10-02T12:43:23Z</time>
      </trkpt>
      <trkpt lat="48.45972" lon="2.67194">
        <ele>103</ele>
        <time>2011-10-02T12:43:27Z</time>
      </trkpt>
      <trkpt lat="48.45971" lon="2.67192">
        <ele>103</ele>
        <time>2011-10-02T12:43:44Z</time>
      </trkpt>
      <trkpt lat="48.45972" lon="2.67187">
        <ele>103</ele>
        <time>2011-10-02T12:44:12Z</time>
      </trkpt>
      <trkpt lat="48.45971" lon="2.67177">
        <ele>103</ele>
        <time>2011-10-02T12:44:25Z</time>
      </trkpt>
      <trkpt lat="48.4597" lon="2.67164">
        <ele>103</ele>
        <time>2011-10-02T12:44:30Z</time>
      </trkpt>
      <trkpt lat="48.45972" lon="2.67146">
        <ele>104</ele>
        <time>2011-10-02T12:44:35Z</time>
      </trkpt>
      <trkpt lat="48.45976" lon="2.67129">
        <ele>104</ele>
        <time>2011-10-02T12:44:39Z</time>
      </trkpt>
      <trkpt lat="48.45973" lon="2.67118">
        <ele>104</ele>
        <time>2011-10-02T12:44:42Z</time>
      </trkpt>
      <trkpt lat="48.45972" lon="2.67108">
        <ele>104</ele>
        <time>2011-10-02T12:44:45Z</time>
      </trkpt>
      <trkpt lat="48.45963" lon="2.67107">
        <ele>104</ele>
        <time>2011-10-02T12:44:50Z</time>
      </trkpt>
      <trkpt lat="48.45963" lon="2.67107">
        <ele>104</ele>
        <time>2011-10-02T12:44:56Z</time>
      </trkpt>
      <trkpt lat="48.45959" lon="2.67103">
        <ele>104</ele>
        <time>2011-10-02T12:45:04Z</time>
      </trkpt>
      <trkpt lat="48.45956" lon="2.67101">
        <ele>104</ele>
        <time>2011-10-02T12:45:06Z</time>
      </trkpt>
      <trkpt lat="48.45946" lon="2.67097">
        <ele>104</ele>
        <time>2011-10-02T12:45:12Z</time>
      </trkpt>
      <trkpt lat="48.45944" lon="2.67094">
        <ele>104</ele>
        <time>2011-10-02T12:45:14Z</time>
      </trkpt>
      <trkpt lat="48.45932" lon="2.67086">
        <ele>105</ele>
        <time>2011-10-02T12:45:19Z</time>
      </trkpt>
      <trkpt lat="48.4592" lon="2.67082">
        <ele>105</ele>
        <time>2011-10-02T12:45:24Z</time>
      </trkpt>
      <trkpt lat="48.45913" lon="2.67071">
        <ele>106</ele>
        <time>2011-10-02T12:45:28Z</time>
      </trkpt>
      <trkpt lat="48.45908" lon="2.67065">
        <ele>106</ele>
        <time>2011-10-02T12:45:30Z</time>
      </trkpt>
      <trkpt lat="48.45893" lon="2.67042">
        <ele>106</ele>
        <time>2011-10-02T12:45:34Z</time>
      </trkpt>
      <trkpt lat="48.45881" lon="2.67016">
        <ele>106</ele>
        <time>2011-10-02T12:45:38Z</time>
      </trkpt>
      <trkpt lat="48.45875" lon="2.67">
        <ele>107</ele>
        <time>2011-10-02T12:45:40Z</time>
      </trkpt>
      <trkpt lat="48.45869" lon="2.66969">
        <ele>107</ele>
        <time>2011-10-02T12:45:45Z</time>
      </trkpt>
      <trkpt lat="48.45868" lon="2.66964">
        <ele>107</ele>
        <time>2011-10-02T12:45:46Z</time>
      </trkpt>
      <trkpt lat="48.45866" lon="2.66949">
        <ele>107</ele>
        <time>2011-10-02T12:45:49Z</time>
      </trkpt>
      <trkpt lat="48.45863" lon="2.66938">
        <ele>107</ele>
        <time>2011-10-02T12:45:54Z</time>
      </trkpt>
      <trkpt lat="48.45855" lon="2.66932">
        <ele>107</ele>
        <time>2011-10-02T12:46:17Z</time>
      </trkpt>
      <trkpt lat="48.45865" lon="2.66933">
        <ele>107</ele>
        <time>2011-10-02T12:47:04Z</time>
      </trkpt>
      <trkpt lat="48.45869" lon="2.66935">
        <ele>107</ele>
        <time>2011-10-02T12:47:21Z</time>
      </trkpt>
      <trkpt lat="48.4587" lon="2.6694">
        <ele>107</ele>
        <time>2011-10-02T12:47:44Z</time>
      </trkpt>
      <trkpt lat="48.45867" lon="2.66927">
        <ele>107</ele>
        <time>2011-10-02T12:47:55Z</time>
      </trkpt>
      <trkpt lat="48.45869" lon="2.66913">
        <ele>107</ele>
        <time>2011-10-02T12:47:59Z</time>
      </trkpt>
      <trkpt lat="48.45874" lon="2.66893">
        <ele>107</ele>
        <time>2011-10-02T12:48:04Z</time>
      </trkpt>
      <trkpt lat="48.45879" lon="2.66871">
        <ele>107</ele>
        <time>2011-10-02T12:48:09Z</time>
      </trkpt>
      <trkpt lat="48.45885" lon="2.66854">
        <ele>107</ele>
        <time>2011-10-02T12:48:14Z</time>
      </trkpt>
      <trkpt lat="48.45885" lon="2.66851">
        <ele>107</ele>
        <time>2011-10-02T12:48:15Z</time>
      </trkpt>
      <trkpt lat="48.45887" lon="2.66834">
        <ele>106</ele>
        <time>2011-10-02T12:48:20Z</time>
      </trkpt>
      <trkpt lat="48.45894" lon="2.66818">
        <ele>107</ele>
        <time>2011-10-02T12:48:24Z</time>
      </trkpt>
      <trkpt lat="48.45902" lon="2.66806">
        <ele>107</ele>
        <time>2011-10-02T12:48:28Z</time>
      </trkpt>
      <trkpt lat="48.45911" lon="2.66792">
        <ele>107</ele>
        <time>2011-10-02T12:48:32Z</time>
      </trkpt>
      <trkpt lat="48.45915" lon="2.66786">
        <ele>107</ele>
        <time>2011-10-02T12:48:35Z</time>
      </trkpt>
      <trkpt lat="48.45919" lon="2.66761">
        <ele>106</ele>
        <time>2011-10-02T12:48:41Z</time>
      </trkpt>
      <trkpt lat="48.45922" lon="2.66741">
        <ele>106</ele>
        <time>2011-10-02T12:48:46Z</time>
      </trkpt>
      <trkpt lat="48.45923" lon="2.66735">
        <ele>105</ele>
        <time>2011-10-02T12:48:50Z</time>
      </trkpt>
      <trkpt lat="48.45922" lon="2.66722">
        <ele>105</ele>
        <time>2011-10-02T12:49:06Z</time>
      </trkpt>
      <trkpt lat="48.45925" lon="2.667">
        <ele>105</ele>
        <time>2011-10-02T12:49:10Z</time>
      </trkpt>
      <trkpt lat="48.45926" lon="2.66681">
        <ele>105</ele>
        <time>2011-10-02T12:49:14Z</time>
      </trkpt>
      <trkpt lat="48.45927" lon="2.66673">
        <ele>106</ele>
        <time>2011-10-02T12:49:18Z</time>
      </trkpt>
      <trkpt lat="48.45928" lon="2.66662">
        <ele>106</ele>
        <time>2011-10-02T12:49:24Z</time>
      </trkpt>
      <trkpt lat="48.45929" lon="2.66655">
        <ele>105</ele>
        <time>2011-10-02T12:49:26Z</time>
      </trkpt>
      <trkpt lat="48.45931" lon="2.66638">
        <ele>105</ele>
        <time>2011-10-02T12:49:31Z</time>
      </trkpt>
      <trkpt lat="48.45932" lon="2.66635">
        <ele>104</ele>
        <time>2011-10-02T12:49:32Z</time>
      </trkpt>
      <trkpt lat="48.45933" lon="2.66628">
        <ele>104</ele>
        <time>2011-10-02T12:49:34Z</time>
      </trkpt>
      <trkpt lat="48.45939" lon="2.66612">
        <ele>104</ele>
        <time>2011-10-02T12:49:39Z</time>
      </trkpt>
      <trkpt lat="48.4594" lon="2.66609">
        <ele>104</ele>
        <time>2011-10-02T12:49:40Z</time>
      </trkpt>
      <trkpt lat="48.45939" lon="2.66589">
        <ele>104</ele>
        <time>2011-10-02T12:49:45Z</time>
      </trkpt>
      <trkpt lat="48.45933" lon="2.66562">
        <ele>104</ele>
        <time>2011-10-02T12:49:50Z</time>
      </trkpt>
      <trkpt lat="48.45938" lon="2.66539">
        <ele>103</ele>
        <time>2011-10-02T12:49:55Z</time>
      </trkpt>
      <trkpt lat="48.45941" lon="2.66524">
        <ele>103</ele>
        <time>2011-10-02T12:49:58Z</time>
      </trkpt>
      <trkpt lat="48.45939" lon="2.66494">
        <ele>103</ele>
        <time>2011-10-02T12:50:03Z</time>
      </trkpt>
      <trkpt lat="48.45949" lon="2.6647">
        <ele>102</ele>
        <time>2011-10-02T12:50:08Z</time>
      </trkpt>
      <trkpt lat="48.45954" lon="2.66462">
        <ele>102</ele>
        <time>2011-10-02T12:50:10Z</time>
      </trkpt>
      <trkpt lat="48.4596" lon="2.66456">
        <ele>102</ele>
        <time>2011-10-02T12:50:12Z</time>
      </trkpt>
      <trkpt lat="48.45975" lon="2.66443">
        <ele>102</ele>
        <time>2011-10-02T12:50:16Z</time>
      </trkpt>
      <trkpt lat="48.45978" lon="2.66439">
        <ele>102</ele>
        <time>2011-10-02T12:50:19Z</time>
      </trkpt>
      <trkpt lat="48.45988" lon="2.66434">
        <ele>102</ele>
        <time>2011-10-02T12:50:45Z</time>
      </trkpt>
      <trkpt lat="48.45983" lon="2.66422">
        <ele>102</ele>
        <time>2011-10-02T12:50:51Z</time>
      </trkpt>
      <trkpt lat="48.45977" lon="2.66401">
        <ele>102</ele>
        <time>2011-10-02T12:50:57Z</time>
      </trkpt>
      <trkpt lat="48.45972" lon="2.66368">
        <ele>102</ele>
        <time>2011-10-02T12:51:04Z</time>
      </trkpt>
      <trkpt lat="48.45971" lon="2.66341">
        <ele>102</ele>
        <time>2011-10-02T12:51:10Z</time>
      </trkpt>
      <trkpt lat="48.45968" lon="2.66309">
        <ele>102</ele>
        <time>2011-10-02T12:51:16Z</time>
      </trkpt>
      <trkpt lat="48.45964" lon="2.66275">
        <ele>102</ele>
        <time>2011-10-02T12:51:22Z</time>
      </trkpt>
      <trkpt lat="48.45961" lon="2.66228">
        <ele>102</ele>
        <time>2011-10-02T12:51:30Z</time>
      </trkpt>
      <trkpt lat="48.45965" lon="2.66183">
        <ele>102</ele>
        <time>2011-10-02T12:51:37Z</time>
      </trkpt>
      <trkpt lat="48.45971" lon="2.66143">
        <ele>101</ele>
        <time>2011-10-02T12:51:44Z</time>
      </trkpt>
      <trkpt lat="48.45959" lon="2.66131">
        <ele>101</ele>
        <time>2011-10-02T12:51:49Z</time>
      </trkpt>
      <trkpt lat="48.45937" lon="2.66116">
        <ele>101</ele>
        <time>2011-10-02T12:51:56Z</time>
      </trkpt>
      <trkpt lat="48.45918" lon="2.66103">
        <ele>100</ele>
        <time>2011-10-02T12:52:02Z</time>
      </trkpt>
      <trkpt lat="48.45902" lon="2.66091">
        <ele>100</ele>
        <time>2011-10-02T12:52:08Z</time>
      </trkpt>
      <trkpt lat="48.45881" lon="2.66078">
        <ele>101</ele>
        <time>2011-10-02T12:52:16Z</time>
      </trkpt>
      <trkpt lat="48.45868" lon="2.66071">
        <ele>102</ele>
        <time>2011-10-02T12:52:23Z</time>
      </trkpt>
      <trkpt lat="48.45855" lon="2.66068">
        <ele>102</ele>
        <time>2011-10-02T12:52:30Z</time>
      </trkpt>
      <trkpt lat="48.45842" lon="2.66066">
        <ele>102</ele>
        <time>2011-10-02T12:52:38Z</time>
      </trkpt>
      <trkpt lat="48.45831" lon="2.66063">
        <ele>106</ele>
        <time>2011-10-02T12:52:44Z</time>
      </trkpt>
      <trkpt lat="48.45818" lon="2.6606">
        <ele>107</ele>
        <time>2011-10-02T12:52:49Z</time>
      </trkpt>
      <trkpt lat="48.45796" lon="2.66054">
        <ele>108</ele>
        <time>2011-10-02T12:52:57Z</time>
      </trkpt>
      <trkpt lat="48.45779" lon="2.66048">
        <ele>109</ele>
        <time>2011-10-02T12:53:05Z</time>
      </trkpt>
      <trkpt lat="48.45767" lon="2.66046">
        <ele>110</ele>
        <time>2011-10-02T12:53:12Z</time>
      </trkpt>
      <trkpt lat="48.45754" lon="2.66042">
        <ele>110</ele>
        <time>2011-10-02T12:53:19Z</time>
      </trkpt>
      <trkpt lat="48.45752" lon="2.66042">
        <ele>110</ele>
        <time>2011-10-02T12:53:20Z</time>
      </trkpt>
      <trkpt lat="48.4574" lon="2.66039">
        <ele>118</ele>
        <time>2011-10-02T12:53:27Z</time>
      </trkpt>
      <trkpt lat="48.45733" lon="2.66042">
        <ele>119</ele>
        <time>2011-10-02T12:53:32Z</time>
      </trkpt>
      <trkpt lat="48.45723" lon="2.66047">
        <ele>120</ele>
        <time>2011-10-02T12:53:38Z</time>
      </trkpt>
      <trkpt lat="48.45716" lon="2.66053">
        <ele>120</ele>
        <time>2011-10-02T12:53:44Z</time>
      </trkpt>
      <trkpt lat="48.45708" lon="2.66059">
        <ele>121</ele>
        <time>2011-10-02T12:53:51Z</time>
      </trkpt>
      <trkpt lat="48.45699" lon="2.66065">
        <ele>122</ele>
        <time>2011-10-02T12:53:58Z</time>
      </trkpt>
      <trkpt lat="48.45693" lon="2.66068">
        <ele>122</ele>
        <time>2011-10-02T12:54:03Z</time>
      </trkpt>
      <trkpt lat="48.45688" lon="2.66069">
        <ele>123</ele>
        <time>2011-10-02T12:54:11Z</time>
      </trkpt>
      <trkpt lat="48.45686" lon="2.66069">
        <ele>123</ele>
        <time>2011-10-02T12:54:17Z</time>
      </trkpt>
      <trkpt lat="48.4568" lon="2.6607">
        <ele>124</ele>
        <time>2011-10-02T12:54:27Z</time>
      </trkpt>
      <trkpt lat="48.45677" lon="2.66072">
        <ele>124</ele>
        <time>2011-10-02T12:54:33Z</time>
      </trkpt>
      <trkpt lat="48.45672" lon="2.66072">
        <ele>125</ele>
        <time>2011-10-02T12:54:42Z</time>
      </trkpt>
      <trkpt lat="48.45668" lon="2.66073">
        <ele>125</ele>
        <time>2011-10-02T12:54:52Z</time>
      </trkpt>
      <trkpt lat="48.45663" lon="2.6607">
        <ele>129</ele>
        <time>2011-10-02T12:55:01Z</time>
      </trkpt>
      <trkpt lat="48.45658" lon="2.66065">
        <ele>129</ele>
        <time>2011-10-02T12:55:08Z</time>
      </trkpt>
      <trkpt lat="48.45655" lon="2.66065">
        <ele>130</ele>
        <time>2011-10-02T12:55:16Z</time>
      </trkpt>
      <trkpt lat="48.45655" lon="2.66066">
        <ele>129</ele>
        <time>2011-10-02T12:55:41Z</time>
      </trkpt>
      <trkpt lat="48.45656" lon="2.66063">
        <ele>130</ele>
        <time>2011-10-02T12:55:43Z</time>
      </trkpt>
      <trkpt lat="48.45662" lon="2.66042">
        <ele>130</ele>
        <time>2011-10-02T12:55:51Z</time>
      </trkpt>
      <trkpt lat="48.45664" lon="2.66036">
        <ele>131</ele>
        <time>2011-10-02T12:55:53Z</time>
      </trkpt>
      <trkpt lat="48.45659" lon="2.66026">
        <ele>131</ele>
        <time>2011-10-02T12:55:58Z</time>
      </trkpt>
      <trkpt lat="48.45654" lon="2.66025">
        <ele>131</ele>
        <time>2011-10-02T12:56:00Z</time>
      </trkpt>
      <trkpt lat="48.45637" lon="2.6602">
        <ele>131</ele>
        <time>2011-10-02T12:56:07Z</time>
      </trkpt>
      <trkpt lat="48.45624" lon="2.66018">
        <ele>132</ele>
        <time>2011-10-02T12:56:13Z</time>
      </trkpt>
      <trkpt lat="48.45615" lon="2.66015">
        <ele>132</ele>
        <time>2011-10-02T12:56:19Z</time>
      </trkpt>
      <trkpt lat="48.45602" lon="2.66014">
        <ele>132</ele>
        <time>2011-10-02T12:56:25Z</time>
      </trkpt>
      <trkpt lat="48.45589" lon="2.66011">
        <ele>133</ele>
        <time>2011-10-02T12:56:30Z</time>
      </trkpt>
      <trkpt lat="48.45575" lon="2.66009">
        <ele>134</ele>
        <time>2011-10-02T12:56:35Z</time>
      </trkpt>
      <trkpt lat="48.45554" lon="2.66007">
        <ele>135</ele>
        <time>2011-10-02T12:56:42Z</time>
      </trkpt>
      <trkpt lat="48.45535" lon="2.66003">
        <ele>135</ele>
        <time>2011-10-02T12:56:48Z</time>
      </trkpt>
      <trkpt lat="48.45511" lon="2.65998">
        <ele>136</ele>
        <time>2011-10-02T12:56:55Z</time>
      </trkpt>
      <trkpt lat="48.45487" lon="2.65993">
        <ele>136</ele>
        <time>2011-10-02T12:57:02Z</time>
      </trkpt>
      <trkpt lat="48.4547" lon="2.6599">
        <ele>137</ele>
        <time>2011-10-02T12:57:07Z</time>
      </trkpt>
      <trkpt lat="48.45441" lon="2.65984">
        <ele>137</ele>
        <time>2011-10-02T12:57:15Z</time>
      </trkpt>
      <trkpt lat="48.45423" lon="2.65982">
        <ele>137</ele>
        <time>2011-10-02T12:57:20Z</time>
      </trkpt>
      <trkpt lat="48.45402" lon="2.65978">
        <ele>138</ele>
        <time>2011-10-02T12:57:26Z</time>
      </trkpt>
      <trkpt lat="48.45383" lon="2.65977">
        <ele>138</ele>
        <time>2011-10-02T12:57:31Z</time>
      </trkpt>
      <trkpt lat="48.45357" lon="2.65971">
        <ele>138</ele>
        <time>2011-10-02T12:57:37Z</time>
      </trkpt>
      <trkpt lat="48.45323" lon="2.65965">
        <ele>138</ele>
        <time>2011-10-02T12:57:45Z</time>
      </trkpt>
      <trkpt lat="48.45296" lon="2.6596">
        <ele>139</ele>
        <time>2011-10-02T12:57:52Z</time>
      </trkpt>
      <trkpt lat="48.45272" lon="2.65957">
        <ele>139</ele>
        <time>2011-10-02T12:57:58Z</time>
      </trkpt>
      <trkpt lat="48.45244" lon="2.65951">
        <ele>143</ele>
        <time>2011-10-02T12:58:05Z</time>
      </trkpt>
      <trkpt lat="48.45215" lon="2.65946">
        <ele>144</ele>
        <time>2011-10-02T12:58:12Z</time>
      </trkpt>
      <trkpt lat="48.45185" lon="2.65942">
        <ele>145</ele>
        <time>2011-10-02T12:58:20Z</time>
      </trkpt>
      <trkpt lat="48.45166" lon="2.65939">
        <ele>148</ele>
        <time>2011-10-02T12:58:25Z</time>
      </trkpt>
      <trkpt lat="48.45149" lon="2.65936">
        <ele>148</ele>
        <time>2011-10-02T12:58:30Z</time>
      </trkpt>
      <trkpt lat="48.45135" lon="2.65934">
        <ele>148</ele>
        <time>2011-10-02T12:58:34Z</time>
      </trkpt>
      <trkpt lat="48.45114" lon="2.65931">
        <ele>149</ele>
        <time>2011-10-02T12:58:39Z</time>
      </trkpt>
      <trkpt lat="48.45088" lon="2.65927">
        <ele>149</ele>
        <time>2011-10-02T12:58:45Z</time>
      </trkpt>
      <trkpt lat="48.4508" lon="2.65925">
        <ele>150</ele>
        <time>2011-10-02T12:58:47Z</time>
      </trkpt>
      <trkpt lat="48.45044" lon="2.65917">
        <ele>150</ele>
        <time>2011-10-02T12:58:55Z</time>
      </trkpt>
      <trkpt lat="48.45018" lon="2.65912">
        <ele>151</ele>
        <time>2011-10-02T12:59:01Z</time>
      </trkpt>
      <trkpt lat="48.44991" lon="2.65908">
        <ele>150</ele>
        <time>2011-10-02T12:59:07Z</time>
      </trkpt>
      <trkpt lat="48.44961" lon="2.65904">
        <ele>149</ele>
        <time>2011-10-02T12:59:14Z</time>
      </trkpt>
      <trkpt lat="48.44939" lon="2.659">
        <ele>149</ele>
        <time>2011-10-02T12:59:19Z</time>
      </trkpt>
      <trkpt lat="48.44918" lon="2.65898">
        <ele>148</ele>
        <time>2011-10-02T12:59:24Z</time>
      </trkpt>
      <trkpt lat="48.44892" lon="2.65894">
        <ele>145</ele>
        <time>2011-10-02T12:59:30Z</time>
      </trkpt>
      <trkpt lat="48.44863" lon="2.65888">
        <ele>144</ele>
        <time>2011-10-02T12:59:36Z</time>
      </trkpt>
      <trkpt lat="48.4484" lon="2.65884">
        <ele>144</ele>
        <time>2011-10-02T12:59:41Z</time>
      </trkpt>
      <trkpt lat="48.44812" lon="2.65879">
        <ele>140</ele>
        <time>2011-10-02T12:59:47Z</time>
      </trkpt>
      <trkpt lat="48.44794" lon="2.65877">
        <ele>140</ele>
        <time>2011-10-02T12:59:51Z</time>
      </trkpt>
      <trkpt lat="48.44789" lon="2.65861">
        <ele>140</ele>
        <time>2011-10-02T12:59:55Z</time>
      </trkpt>
      <trkpt lat="48.44793" lon="2.65845">
        <ele>140</ele>
        <time>2011-10-02T12:59:58Z</time>
      </trkpt>
      <trkpt lat="48.44806" lon="2.65795">
        <ele>139</ele>
        <time>2011-10-02T13:00:07Z</time>
      </trkpt>
      <trkpt lat="48.44816" lon="2.65758">
        <ele>139</ele>
        <time>2011-10-02T13:00:13Z</time>
      </trkpt>
      <trkpt lat="48.44825" lon="2.6572">
        <ele>137</ele>
        <time>2011-10-02T13:00:19Z</time>
      </trkpt>
      <trkpt lat="48.44842" lon="2.65667">
        <ele>139</ele>
        <time>2011-10-02T13:00:27Z</time>
      </trkpt>
      <trkpt lat="48.44847" lon="2.65645">
        <ele>140</ele>
        <time>2011-10-02T13:00:30Z</time>
      </trkpt>
      <trkpt lat="48.44859" lon="2.65601">
        <ele>140</ele>
        <time>2011-10-02T13:00:37Z</time>
      </trkpt>
      <trkpt lat="48.44861" lon="2.65596">
        <ele>140</ele>
        <time>2011-10-02T13:00:38Z</time>
      </trkpt>
      <trkpt lat="48.44868" lon="2.65571">
        <ele>140</ele>
        <time>2011-10-02T13:00:42Z</time>
      </trkpt>
      <trkpt lat="48.44874" lon="2.65545">
        <ele>140</ele>
        <time>2011-10-02T13:00:46Z</time>
      </trkpt>
      <trkpt lat="48.44877" lon="2.65528">
        <ele>139</ele>
        <time>2011-10-02T13:00:51Z</time>
      </trkpt>
      <trkpt lat="48.44864" lon="2.65524">
        <ele>139</ele>
        <time>2011-10-02T13:01:10Z</time>
      </trkpt>
      <trkpt lat="48.44863" lon="2.6552">
        <ele>139</ele>
        <time>2011-10-02T13:01:22Z</time>
      </trkpt>
      <trkpt lat="48.44863" lon="2.65517">
        <ele>138</ele>
        <time>2011-10-02T13:01:32Z</time>
      </trkpt>
      <trkpt lat="48.44865" lon="2.65515">
        <ele>139</ele>
        <time>2011-10-02T13:01:44Z</time>
      </trkpt>
      <trkpt lat="48.44876" lon="2.6552">
        <ele>139</ele>
        <time>2011-10-02T13:02:19Z</time>
      </trkpt>
      <trkpt lat="48.44879" lon="2.65525">
        <ele>139</ele>
        <time>2011-10-02T13:02:35Z</time>
      </trkpt>
      <trkpt lat="48.44871" lon="2.65526">
        <ele>139</ele>
        <time>2011-10-02T13:03:19Z</time>
      </trkpt>
      <trkpt lat="48.44869" lon="2.65524">
        <ele>139</ele>
        <time>2011-10-02T13:03:25Z</time>
      </trkpt>
      <trkpt lat="48.44868" lon="2.65524">
        <ele>139</ele>
        <time>2011-10-02T13:03:27Z</time>
      </trkpt>
      <trkpt lat="48.44866" lon="2.65522">
        <ele>139</ele>
        <time>2011-10-02T13:03:29Z</time>
      </trkpt>
      <trkpt lat="48.44863" lon="2.65515">
        <ele>138</ele>
        <time>2011-10-02T13:03:31Z</time>
      </trkpt>
      <trkpt lat="48.44856" lon="2.65502">
        <ele>138</ele>
        <time>2011-10-02T13:03:36Z</time>
      </trkpt>
      <trkpt lat="48.44852" lon="2.65503">
        <ele>137</ele>
        <time>2011-10-02T13:03:40Z</time>
      </trkpt>
      <trkpt lat="48.44849" lon="2.65501">
        <ele>137</ele>
        <time>2011-10-02T13:03:44Z</time>
      </trkpt>
      <trkpt lat="48.44849" lon="2.65502">
        <ele>137</ele>
        <time>2011-10-02T13:03:59Z</time>
      </trkpt>
      <trkpt lat="48.44848" lon="2.65502">
        <ele>137</ele>
        <time>2011-10-02T13:04:01Z</time>
      </trkpt>
      <trkpt lat="48.44838" lon="2.65496">
        <ele>136</ele>
        <time>2011-10-02T13:04:06Z</time>
      </trkpt>
      <trkpt lat="48.44826" lon="2.65479">
        <ele>133</ele>
        <time>2011-10-02T13:04:11Z</time>
      </trkpt>
      <trkpt lat="48.44823" lon="2.65475">
        <ele>132</ele>
        <time>2011-10-02T13:04:12Z</time>
      </trkpt>
      <trkpt lat="48.44811" lon="2.65475">
        <ele>132</ele>
        <time>2011-10-02T13:04:16Z</time>
      </trkpt>
      <trkpt lat="48.44804" lon="2.65478">
        <ele>131</ele>
        <time>2011-10-02T13:04:18Z</time>
      </trkpt>
      <trkpt lat="48.44785" lon="2.6548">
        <ele>130</ele>
        <time>2011-10-02T13:04:23Z</time>
      </trkpt>
      <trkpt lat="48.44773" lon="2.65489">
        <ele>128</ele>
        <time>2011-10-02T13:04:26Z</time>
      </trkpt>
      <trkpt lat="48.44757" lon="2.65475">
        <ele>128</ele>
        <time>2011-10-02T13:04:31Z</time>
      </trkpt>
      <trkpt lat="48.44737" lon="2.65446">
        <ele>124</ele>
        <time>2011-10-02T13:04:38Z</time>
      </trkpt>
      <trkpt lat="48.44734" lon="2.65437">
        <ele>124</ele>
        <time>2011-10-02T13:04:43Z</time>
      </trkpt>
      <trkpt lat="48.44727" lon="2.65434">
        <ele>124</ele>
        <time>2011-10-02T13:05:12Z</time>
      </trkpt>
      <trkpt lat="48.44726" lon="2.65434">
        <ele>124</ele>
        <time>2011-10-02T13:05:22Z</time>
      </trkpt>
      <trkpt lat="48.44726" lon="2.65432">
        <ele>124</ele>
        <time>2011-10-02T13:05:25Z</time>
      </trkpt>
      <trkpt lat="48.44729" lon="2.65409">
        <ele>126</ele>
        <time>2011-10-02T13:05:33Z</time>
      </trkpt>
      <trkpt lat="48.4473" lon="2.65393">
        <ele>126</ele>
        <time>2011-10-02T13:05:39Z</time>
      </trkpt>
      <trkpt lat="48.4473" lon="2.65378">
        <ele>126</ele>
        <time>2011-10-02T13:05:44Z</time>
      </trkpt>
      <trkpt lat="48.44732" lon="2.65363">
        <ele>127</ele>
        <time>2011-10-02T13:05:49Z</time>
      </trkpt>
      <trkpt lat="48.44733" lon="2.65358">
        <ele>127</ele>
        <time>2011-10-02T13:05:51Z</time>
      </trkpt>
      <trkpt lat="48.44735" lon="2.65346">
        <ele>128</ele>
        <time>2011-10-02T13:05:56Z</time>
      </trkpt>
      <trkpt lat="48.44736" lon="2.65339">
        <ele>129</ele>
        <time>2011-10-02T13:06:00Z</time>
      </trkpt>
      <trkpt lat="48.44734" lon="2.65321">
        <ele>131</ele>
        <time>2011-10-02T13:06:07Z</time>
      </trkpt>
      <trkpt lat="48.44735" lon="2.65309">
        <ele>132</ele>
        <time>2011-10-02T13:06:12Z</time>
      </trkpt>
      <trkpt lat="48.44734" lon="2.6529">
        <ele>132</ele>
        <time>2011-10-02T13:06:20Z</time>
      </trkpt>
      <trkpt lat="48.44731" lon="2.65282">
        <ele>133</ele>
        <time>2011-10-02T13:06:26Z</time>
      </trkpt>
      <trkpt lat="48.4473" lon="2.65276">
        <ele>133</ele>
        <time>2011-10-02T13:06:30Z</time>
      </trkpt>
      <trkpt lat="48.44729" lon="2.65272">
        <ele>133</ele>
        <time>2011-10-02T13:06:35Z</time>
      </trkpt>
      <trkpt lat="48.4473" lon="2.65268">
        <ele>133</ele>
        <time>2011-10-02T13:06:42Z</time>
      </trkpt>
      <trkpt lat="48.4473" lon="2.65266">
        <ele>133</ele>
        <time>2011-10-02T13:06:48Z</time>
      </trkpt>
      <trkpt lat="48.44729" lon="2.65262">
        <ele>133</ele>
        <time>2011-10-02T13:07:34Z</time>
      </trkpt>
      <trkpt lat="48.44721" lon="2.65251">
        <ele>133</ele>
        <time>2011-10-02T13:07:40Z</time>
      </trkpt>
      <trkpt lat="48.44715" lon="2.65239">
        <ele>136</ele>
        <time>2011-10-02T13:07:45Z</time>
      </trkpt>
      <trkpt lat="48.44713" lon="2.65232">
        <ele>136</ele>
        <time>2011-10-02T13:07:47Z</time>
      </trkpt>
      <trkpt lat="48.447" lon="2.65225">
        <ele>135</ele>
        <time>2011-10-02T13:07:52Z</time>
      </trkpt>
      <trkpt lat="48.44696" lon="2.65225">
        <ele>135</ele>
        <time>2011-10-02T13:07:53Z</time>
      </trkpt>
      <trkpt lat="48.44681" lon="2.6522">
        <ele>135</ele>
        <time>2011-10-02T13:07:57Z</time>
      </trkpt>
      <trkpt lat="48.44677" lon="2.6522">
        <ele>135</ele>
        <time>2011-10-02T13:07:58Z</time>
      </trkpt>
      <trkpt lat="48.44664" lon="2.65217">
        <ele>131</ele>
        <time>2011-10-02T13:08:02Z</time>
      </trkpt>
      <trkpt lat="48.44656" lon="2.65206">
        <ele>131</ele>
        <time>2011-10-02T13:08:06Z</time>
      </trkpt>
      <trkpt lat="48.44652" lon="2.65198">
        <ele>131</ele>
        <time>2011-10-02T13:08:08Z</time>
      </trkpt>
      <trkpt lat="48.44644" lon="2.65175">
        <ele>132</ele>
        <time>2011-10-02T13:08:13Z</time>
      </trkpt>
      <trkpt lat="48.44643" lon="2.65158">
        <ele>132</ele>
        <time>2011-10-02T13:08:17Z</time>
      </trkpt>
      <trkpt lat="48.44642" lon="2.65148">
        <ele>131</ele>
        <time>2011-10-02T13:08:20Z</time>
      </trkpt>
      <trkpt lat="48.44638" lon="2.65142">
        <ele>131</ele>
        <time>2011-10-02T13:08:26Z</time>
      </trkpt>
      <trkpt lat="48.44641" lon="2.65139">
        <ele>131</ele>
        <time>2011-10-02T13:08:54Z</time>
      </trkpt>
      <trkpt lat="48.44641" lon="2.65139">
        <ele>131</ele>
        <time>2011-10-02T13:08:55Z</time>
      </trkpt>
      <trkpt lat="48.44636" lon="2.65137">
        <ele>131</ele>
        <time>2011-10-02T13:09:00Z</time>
      </trkpt>
      <trkpt lat="48.44635" lon="2.65121">
        <ele>130</ele>
        <time>2011-10-02T13:09:05Z</time>
      </trkpt>
      <trkpt lat="48.44629" lon="2.65118">
        <ele>130</ele>
        <time>2011-10-02T13:09:10Z</time>
      </trkpt>
      <trkpt lat="48.44627" lon="2.65117">
        <ele>130</ele>
        <time>2011-10-02T13:09:19Z</time>
      </trkpt>
      <trkpt lat="48.44628" lon="2.6511">
        <ele>130</ele>
        <time>2011-10-02T13:09:24Z</time>
      </trkpt>
      <trkpt lat="48.44629" lon="2.65109">
        <ele>130</ele>
        <time>2011-10-02T13:09:26Z</time>
      </trkpt>
      <trkpt lat="48.44632" lon="2.65101">
        <ele>130</ele>
        <time>2011-10-02T13:09:30Z</time>
      </trkpt>
      <trkpt lat="48.44639" lon="2.65089">
        <ele>130</ele>
        <time>2011-10-02T13:09:34Z</time>
      </trkpt>
      <trkpt lat="48.44638" lon="2.65079">
        <ele>129</ele>
        <time>2011-10-02T13:09:39Z</time>
      </trkpt>
      <trkpt lat="48.44634" lon="2.65076">
        <ele>129</ele>
        <time>2011-10-02T13:09:52Z</time>
      </trkpt>
      <trkpt lat="48.4463" lon="2.6507">
        <ele>128</ele>
        <time>2011-10-02T13:10:04Z</time>
      </trkpt>
      <trkpt lat="48.4463" lon="2.65066">
        <ele>128</ele>
        <time>2011-10-02T13:10:11Z</time>
      </trkpt>
      <trkpt lat="48.4463" lon="2.65064">
        <ele>128</ele>
        <time>2011-10-02T13:10:13Z</time>
      </trkpt>
      <trkpt lat="48.44629" lon="2.6506">
        <ele>128</ele>
        <time>2011-10-02T13:10:18Z</time>
      </trkpt>
      <trkpt lat="48.44627" lon="2.65053">
        <ele>128</ele>
        <time>2011-10-02T13:10:25Z</time>
      </trkpt>
      <trkpt lat="48.44626" lon="2.65051">
        <ele>128</ele>
        <time>2011-10-02T13:10:26Z</time>
      </trkpt>
      <trkpt lat="48.4462" lon="2.65037">
        <ele>128</ele>
        <time>2011-10-02T13:10:31Z</time>
      </trkpt>
      <trkpt lat="48.44616" lon="2.65035">
        <ele>127</ele>
        <time>2011-10-02T13:10:34Z</time>
      </trkpt>
      <trkpt lat="48.44616" lon="2.65038">
        <ele>127</ele>
        <time>2011-10-02T13:10:39Z</time>
      </trkpt>
      <trkpt lat="48.44616" lon="2.65039">
        <ele>127</ele>
        <time>2011-10-02T13:10:47Z</time>
      </trkpt>
      <trkpt lat="48.44618" lon="2.65036">
        <ele>128</ele>
        <time>2011-10-02T13:10:55Z</time>
      </trkpt>
      <trkpt lat="48.44615" lon="2.65032">
        <ele>127</ele>
        <time>2011-10-02T13:11:01Z</time>
      </trkpt>
      <trkpt lat="48.44616" lon="2.65031">
        <ele>127</ele>
        <time>2011-10-02T13:11:14Z</time>
      </trkpt>
      <trkpt lat="48.44615" lon="2.65031">
        <ele>127</ele>
        <time>2011-10-02T13:11:46Z</time>
      </trkpt>
      <trkpt lat="48.44612" lon="2.65033">
        <ele>127</ele>
        <time>2011-10-02T13:11:53Z</time>
      </trkpt>
      <trkpt lat="48.44611" lon="2.65032">
        <ele>127</ele>
        <time>2011-10-02T13:11:58Z</time>
      </trkpt>
      <trkpt lat="48.44608" lon="2.65031">
        <ele>127</ele>
        <time>2011-10-02T13:12:06Z</time>
      </trkpt>
      <trkpt lat="48.44607" lon="2.6503">
        <ele>127</ele>
        <time>2011-10-02T13:12:13Z</time>
      </trkpt>
      <trkpt lat="48.44607" lon="2.6503">
        <ele>127</ele>
        <time>2011-10-02T13:12:14Z</time>
      </trkpt>
      <trkpt lat="48.44605" lon="2.65028">
        <ele>127</ele>
        <time>2011-10-02T13:12:20Z</time>
      </trkpt>
      <trkpt lat="48.44606" lon="2.65027">
        <ele>127</ele>
        <time>2011-10-02T13:12:41Z</time>
      </trkpt>
      <trkpt lat="48.44601" lon="2.65021">
        <ele>126</ele>
        <time>2011-10-02T13:12:46Z</time>
      </trkpt>
      <trkpt lat="48.446" lon="2.6502">
        <ele>126</ele>
        <time>2011-10-02T13:12:49Z</time>
      </trkpt>
      <trkpt lat="48.44596" lon="2.65007">
        <ele>125</ele>
        <time>2011-10-02T13:12:54Z</time>
      </trkpt>
      <trkpt lat="48.44595" lon="2.64992">
        <ele>126</ele>
        <time>2011-10-02T13:12:59Z</time>
      </trkpt>
      <trkpt lat="48.44594" lon="2.64987">
        <ele>126</ele>
        <time>2011-10-02T13:13:01Z</time>
      </trkpt>
      <trkpt lat="48.44592" lon="2.6497">
        <ele>128</ele>
        <time>2011-10-02T13:13:08Z</time>
      </trkpt>
      <trkpt lat="48.4459" lon="2.64968">
        <ele>128</ele>
        <time>2011-10-02T13:13:13Z</time>
      </trkpt>
      <trkpt lat="48.4459" lon="2.64967">
        <ele>128</ele>
        <time>2011-10-02T13:13:24Z</time>
      </trkpt>
      <trkpt lat="48.44574" lon="2.64952">
        <ele>122</ele>
        <time>2011-10-02T13:14:21Z</time>
      </trkpt>
      <trkpt lat="48.44578" lon="2.64949">
        <ele>122</ele>
        <time>2011-10-02T13:14:27Z</time>
      </trkpt>
      <trkpt lat="48.44578" lon="2.64949">
        <ele>122</ele>
        <time>2011-10-02T13:14:33Z</time>
      </trkpt>
      <trkpt lat="48.44576" lon="2.64948">
        <ele>122</ele>
        <time>2011-10-02T13:14:39Z</time>
      </trkpt>
      <trkpt lat="48.44574" lon="2.64947">
        <ele>122</ele>
        <time>2011-10-02T13:14:45Z</time>
      </trkpt>
      <trkpt lat="48.4457" lon="2.64947">
        <ele>122</ele>
        <time>2011-10-02T13:14:52Z</time>
      </trkpt>
      <trkpt lat="48.44568" lon="2.6494">
        <ele>122</ele>
        <time>2011-10-02T13:14:58Z</time>
      </trkpt>
      <trkpt lat="48.44568" lon="2.64931">
        <ele>123</ele>
        <time>2011-10-02T13:15:06Z</time>
      </trkpt>
      <trkpt lat="48.44568" lon="2.64928">
        <ele>123</ele>
        <time>2011-10-02T13:15:08Z</time>
      </trkpt>
      <trkpt lat="48.44572" lon="2.64919">
        <ele>125</ele>
        <time>2011-10-02T13:15:16Z</time>
      </trkpt>
      <trkpt lat="48.44577" lon="2.64914">
        <ele>127</ele>
        <time>2011-10-02T13:15:23Z</time>
      </trkpt>
      <trkpt lat="48.44577" lon="2.64914">
        <ele>127</ele>
        <time>2011-10-02T13:15:24Z</time>
      </trkpt>
      <trkpt lat="48.4458" lon="2.64902">
        <ele>126</ele>
        <time>2011-10-02T13:15:30Z</time>
      </trkpt>
      <trkpt lat="48.44581" lon="2.64899">
        <ele>126</ele>
        <time>2011-10-02T13:15:36Z</time>
      </trkpt>
      <trkpt lat="48.44581" lon="2.64895">
        <ele>125</ele>
        <time>2011-10-02T13:15:43Z</time>
      </trkpt>
      <trkpt lat="48.44582" lon="2.64884">
        <ele>125</ele>
        <time>2011-10-02T13:15:50Z</time>
      </trkpt>
      <trkpt lat="48.44583" lon="2.64879">
        <ele>125</ele>
        <time>2011-10-02T13:15:56Z</time>
      </trkpt>
      <trkpt lat="48.44584" lon="2.64874">
        <ele>130</ele>
        <time>2011-10-02T13:16:00Z</time>
      </trkpt>
      <trkpt lat="48.44584" lon="2.64873">
        <ele>130</ele>
        <time>2011-10-02T13:16:05Z</time>
      </trkpt>
      <trkpt lat="48.44584" lon="2.64869">
        <ele>130</ele>
        <time>2011-10-02T13:16:15Z</time>
      </trkpt>
      <trkpt lat="48.44584" lon="2.64865">
        <ele>130</ele>
        <time>2011-10-02T13:16:23Z</time>
      </trkpt>
      <trkpt lat="48.44585" lon="2.64861">
        <ele>130</ele>
        <time>2011-10-02T13:16:29Z</time>
      </trkpt>
      <trkpt lat="48.44579" lon="2.64859">
        <ele>126</ele>
        <time>2011-10-02T13:16:37Z</time>
      </trkpt>
      <trkpt lat="48.44577" lon="2.64857">
        <ele>126</ele>
        <time>2011-10-02T13:16:39Z</time>
      </trkpt>
      <trkpt lat="48.44578" lon="2.64842">
        <ele>127</ele>
        <time>2011-10-02T13:16:45Z</time>
      </trkpt>
      <trkpt lat="48.44579" lon="2.6483">
        <ele>128</ele>
        <time>2011-10-02T13:16:50Z</time>
      </trkpt>
      <trkpt lat="48.44575" lon="2.64816">
        <ele>126</ele>
        <time>2011-10-02T13:16:56Z</time>
      </trkpt>
      <trkpt lat="48.44573" lon="2.64793">
        <ele>124</ele>
        <time>2011-10-02T13:17:02Z</time>
      </trkpt>
      <trkpt lat="48.44573" lon="2.64783">
        <ele>123</ele>
        <time>2011-10-02T13:17:05Z</time>
      </trkpt>
      <trkpt lat="48.44575" lon="2.64766">
        <ele>124</ele>
        <time>2011-10-02T13:17:10Z</time>
      </trkpt>
      <trkpt lat="48.44578" lon="2.64766">
        <ele>124</ele>
        <time>2011-10-02T13:17:17Z</time>
      </trkpt>
      <trkpt lat="48.44577" lon="2.64755">
        <ele>125</ele>
        <time>2011-10-02T13:17:33Z</time>
      </trkpt>
      <trkpt lat="48.44582" lon="2.64747">
        <ele>125</ele>
        <time>2011-10-02T13:17:37Z</time>
      </trkpt>
      <trkpt lat="48.44582" lon="2.6474">
        <ele>123</ele>
        <time>2011-10-02T13:17:42Z</time>
      </trkpt>
      <trkpt lat="48.44578" lon="2.64727">
        <ele>122</ele>
        <time>2011-10-02T13:17:46Z</time>
      </trkpt>
      <trkpt lat="48.44589" lon="2.64692">
        <ele>122</ele>
        <time>2011-10-02T13:17:53Z</time>
      </trkpt>
      <trkpt lat="48.44592" lon="2.64689">
        <ele>122</ele>
        <time>2011-10-02T13:17:57Z</time>
      </trkpt>
      <trkpt lat="48.44599" lon="2.64691">
        <ele>122</ele>
        <time>2011-10-02T13:18:01Z</time>
      </trkpt>
      <trkpt lat="48.446" lon="2.64695">
        <ele>122</ele>
        <time>2011-10-02T13:18:07Z</time>
      </trkpt>
      <trkpt lat="48.44602" lon="2.64691">
        <ele>122</ele>
        <time>2011-10-02T13:18:12Z</time>
      </trkpt>
      <trkpt lat="48.44602" lon="2.64687">
        <ele>122</ele>
        <time>2011-10-02T13:18:18Z</time>
      </trkpt>
      <trkpt lat="48.44604" lon="2.64686">
        <ele>122</ele>
        <time>2011-10-02T13:18:23Z</time>
      </trkpt>
      <trkpt lat="48.44606" lon="2.64685">
        <ele>122</ele>
        <time>2011-10-02T13:18:31Z</time>
      </trkpt>
      <trkpt lat="48.44605" lon="2.64685">
        <ele>122</ele>
        <time>2011-10-02T13:18:36Z</time>
      </trkpt>
      <trkpt lat="48.44605" lon="2.64677">
        <ele>122</ele>
        <time>2011-10-02T13:18:43Z</time>
      </trkpt>
      <trkpt lat="48.44603" lon="2.64673">
        <ele>122</ele>
        <time>2011-10-02T13:18:53Z</time>
      </trkpt>
      <trkpt lat="48.44603" lon="2.64673">
        <ele>122</ele>
        <time>2011-10-02T13:19:00Z</time>
      </trkpt>
      <trkpt lat="48.44603" lon="2.64673">
        <ele>122</ele>
        <time>2011-10-02T13:19:06Z</time>
      </trkpt>
      <trkpt lat="48.44606" lon="2.64674">
        <ele>122</ele>
        <time>2011-10-02T13:19:15Z</time>
      </trkpt>
      <trkpt lat="48.44609" lon="2.64674">
        <ele>122</ele>
        <time>2011-10-02T13:19:23Z</time>
      </trkpt>
      <trkpt lat="48.44612" lon="2.64676">
        <ele>121</ele>
        <time>2011-10-02T13:19:29Z</time>
      </trkpt>
      <trkpt lat="48.44614" lon="2.64678">
        <ele>121</ele>
        <time>2011-10-02T13:19:35Z</time>
      </trkpt>
      <trkpt lat="48.44614" lon="2.64674">
        <ele>121</ele>
        <time>2011-10-02T13:19:39Z</time>
      </trkpt>
      <trkpt lat="48.44614" lon="2.64664">
        <ele>118</ele>
        <time>2011-10-02T13:19:46Z</time>
      </trkpt>
      <trkpt lat="48.44617" lon="2.64655">
        <ele>118</ele>
        <time>2011-10-02T13:19:50Z</time>
      </trkpt>
      <trkpt lat="48.44625" lon="2.64652">
        <ele>118</ele>
        <time>2011-10-02T13:19:54Z</time>
      </trkpt>
      <trkpt lat="48.44625" lon="2.6465">
        <ele>118</ele>
        <time>2011-10-02T13:19:55Z</time>
      </trkpt>
      <trkpt lat="48.44628" lon="2.64647">
        <ele>118</ele>
        <time>2011-10-02T13:19:57Z</time>
      </trkpt>
      <trkpt lat="48.44636" lon="2.6465">
        <ele>117</ele>
        <time>2011-10-02T13:20:01Z</time>
      </trkpt>
      <trkpt lat="48.44651" lon="2.64648">
        <ele>117</ele>
        <time>2011-10-02T13:20:06Z</time>
      </trkpt>
      <trkpt lat="48.44656" lon="2.64636">
        <ele>117</ele>
        <time>2011-10-02T13:20:11Z</time>
      </trkpt>
      <trkpt lat="48.44662" lon="2.64624">
        <ele>116</ele>
        <time>2011-10-02T13:20:18Z</time>
      </trkpt>
      <trkpt lat="48.44665" lon="2.64615">
        <ele>116</ele>
        <time>2011-10-02T13:20:22Z</time>
      </trkpt>
      <trkpt lat="48.4467" lon="2.64601">
        <ele>116</ele>
        <time>2011-10-02T13:20:29Z</time>
      </trkpt>
      <trkpt lat="48.44671" lon="2.64599">
        <ele>116</ele>
        <time>2011-10-02T13:20:30Z</time>
      </trkpt>
      <trkpt lat="48.44675" lon="2.64592">
        <ele>115</ele>
        <time>2011-10-02T13:20:35Z</time>
      </trkpt>
      <trkpt lat="48.44675" lon="2.6459">
        <ele>115</ele>
        <time>2011-10-02T13:20:36Z</time>
      </trkpt>
      <trkpt lat="48.4468" lon="2.64576">
        <ele>113</ele>
        <time>2011-10-02T13:20:42Z</time>
      </trkpt>
      <trkpt lat="48.44687" lon="2.64571">
        <ele>113</ele>
        <time>2011-10-02T13:20:45Z</time>
      </trkpt>
      <trkpt lat="48.44698" lon="2.64566">
        <ele>113</ele>
        <time>2011-10-02T13:20:50Z</time>
      </trkpt>
      <trkpt lat="48.44708" lon="2.64558">
        <ele>113</ele>
        <time>2011-10-02T13:20:54Z</time>
      </trkpt>
      <trkpt lat="48.44728" lon="2.64545">
        <ele>114</ele>
        <time>2011-10-02T13:21:00Z</time>
      </trkpt>
      <trkpt lat="48.44743" lon="2.64533">
        <ele>113</ele>
        <time>2011-10-02T13:21:04Z</time>
      </trkpt>
      <trkpt lat="48.44753" lon="2.64524">
        <ele>118</ele>
        <time>2011-10-02T13:21:08Z</time>
      </trkpt>
      <trkpt lat="48.44756" lon="2.64521">
        <ele>117</ele>
        <time>2011-10-02T13:21:15Z</time>
      </trkpt>
      <trkpt lat="48.44757" lon="2.64518">
        <ele>117</ele>
        <time>2011-10-02T13:21:44Z</time>
      </trkpt>
      <trkpt lat="48.44746" lon="2.64512">
        <ele>113</ele>
        <time>2011-10-02T13:21:49Z</time>
      </trkpt>
      <trkpt lat="48.4473" lon="2.64501">
        <ele>113</ele>
        <time>2011-10-02T13:21:54Z</time>
      </trkpt>
      <trkpt lat="48.44713" lon="2.64485">
        <ele>110</ele>
        <time>2011-10-02T13:21:58Z</time>
      </trkpt>
      <trkpt lat="48.44691" lon="2.64467">
        <ele>109</ele>
        <time>2011-10-02T13:22:02Z</time>
      </trkpt>
      <trkpt lat="48.4467" lon="2.64465">
        <ele>108</ele>
        <time>2011-10-02T13:22:06Z</time>
      </trkpt>
      <trkpt lat="48.44647" lon="2.64456">
        <ele>105</ele>
        <time>2011-10-02T13:22:11Z</time>
      </trkpt>
      <trkpt lat="48.44642" lon="2.64435">
        <ele>105</ele>
        <time>2011-10-02T13:22:14Z</time>
      </trkpt>
      <trkpt lat="48.44649" lon="2.64409">
        <ele>104</ele>
        <time>2011-10-02T13:22:18Z</time>
      </trkpt>
      <trkpt lat="48.4465" lon="2.64404">
        <ele>104</ele>
        <time>2011-10-02T13:22:19Z</time>
      </trkpt>
      <trkpt lat="48.4465" lon="2.64393">
        <ele>104</ele>
        <time>2011-10-02T13:22:21Z</time>
      </trkpt>
      <trkpt lat="48.44639" lon="2.64377">
        <ele>104</ele>
        <time>2011-10-02T13:22:25Z</time>
      </trkpt>
      <trkpt lat="48.44619" lon="2.64369">
        <ele>104</ele>
        <time>2011-10-02T13:22:30Z</time>
      </trkpt>
      <trkpt lat="48.44601" lon="2.64372">
        <ele>103</ele>
        <time>2011-10-02T13:22:34Z</time>
      </trkpt>
      <trkpt lat="48.44597" lon="2.64378">
        <ele>103</ele>
        <time>2011-10-02T13:22:39Z</time>
      </trkpt>
      <trkpt lat="48.44597" lon="2.64366">
        <ele>103</ele>
        <time>2011-10-02T13:22:44Z</time>
      </trkpt>
      <trkpt lat="48.44597" lon="2.64363">
        <ele>103</ele>
        <time>2011-10-02T13:22:45Z</time>
      </trkpt>
      <trkpt lat="48.44592" lon="2.64353">
        <ele>103</ele>
        <time>2011-10-02T13:22:49Z</time>
      </trkpt>
      <trkpt lat="48.44593" lon="2.64344">
        <ele>103</ele>
        <time>2011-10-02T13:22:55Z</time>
      </trkpt>
      <trkpt lat="48.44596" lon="2.64337">
        <ele>103</ele>
        <time>2011-10-02T13:23:01Z</time>
      </trkpt>
      <trkpt lat="48.44597" lon="2.64332">
        <ele>104</ele>
        <time>2011-10-02T13:23:06Z</time>
      </trkpt>
      <trkpt lat="48.446" lon="2.64323">
        <ele>104</ele>
        <time>2011-10-02T13:23:13Z</time>
      </trkpt>
      <trkpt lat="48.44602" lon="2.64322">
        <ele>104</ele>
        <time>2011-10-02T13:23:19Z</time>
      </trkpt>
      <trkpt lat="48.44604" lon="2.64322">
        <ele>104</ele>
        <time>2011-10-02T13:23:22Z</time>
      </trkpt>
      <trkpt lat="48.44609" lon="2.64326">
        <ele>105</ele>
        <time>2011-10-02T13:23:27Z</time>
      </trkpt>
      <trkpt lat="48.44616" lon="2.64319">
        <ele>105</ele>
        <time>2011-10-02T13:23:33Z</time>
      </trkpt>
      <trkpt lat="48.44616" lon="2.64311">
        <ele>105</ele>
        <time>2011-10-02T13:23:37Z</time>
      </trkpt>
      <trkpt lat="48.44615" lon="2.64307">
        <ele>105</ele>
        <time>2011-10-02T13:23:39Z</time>
      </trkpt>
      <trkpt lat="48.44617" lon="2.643">
        <ele>105</ele>
        <time>2011-10-02T13:23:44Z</time>
      </trkpt>
      <trkpt lat="48.44613" lon="2.64291">
        <ele>105</ele>
        <time>2011-10-02T13:23:50Z</time>
      </trkpt>
      <trkpt lat="48.44615" lon="2.6429">
        <ele>105</ele>
        <time>2011-10-02T13:23:55Z</time>
      </trkpt>
      <trkpt lat="48.44617" lon="2.64287">
        <ele>105</ele>
        <time>2011-10-02T13:24:01Z</time>
      </trkpt>
      <trkpt lat="48.44615" lon="2.64282">
        <ele>105</ele>
        <time>2011-10-02T13:24:10Z</time>
      </trkpt>
      <trkpt lat="48.44613" lon="2.64282">
        <ele>105</ele>
        <time>2011-10-02T13:24:17Z</time>
      </trkpt>
      <trkpt lat="48.44612" lon="2.64279">
        <ele>105</ele>
        <time>2011-10-02T13:24:24Z</time>
      </trkpt>
      <trkpt lat="48.44613" lon="2.64275">
        <ele>105</ele>
        <time>2011-10-02T13:24:33Z</time>
      </trkpt>
      <trkpt lat="48.44614" lon="2.64271">
        <ele>105</ele>
        <time>2011-10-02T13:24:39Z</time>
      </trkpt>
      <trkpt lat="48.44614" lon="2.64269">
        <ele>105</ele>
        <time>2011-10-02T13:24:42Z</time>
      </trkpt>
      <trkpt lat="48.44615" lon="2.64264">
        <ele>105</ele>
        <time>2011-10-02T13:24:48Z</time>
      </trkpt>
      <trkpt lat="48.44617" lon="2.64263">
        <ele>106</ele>
        <time>2011-10-02T13:24:53Z</time>
      </trkpt>
      <trkpt lat="48.44622" lon="2.64252">
        <ele>106</ele>
        <time>2011-10-02T13:24:59Z</time>
      </trkpt>
      <trkpt lat="48.44623" lon="2.64247">
        <ele>106</ele>
        <time>2011-10-02T13:25:01Z</time>
      </trkpt>
      <trkpt lat="48.44621" lon="2.64231">
        <ele>106</ele>
        <time>2011-10-02T13:25:06Z</time>
      </trkpt>
      <trkpt lat="48.44618" lon="2.64223">
        <ele>105</ele>
        <time>2011-10-02T13:25:09Z</time>
      </trkpt>
      <trkpt lat="48.44617" lon="2.64212">
        <ele>105</ele>
        <time>2011-10-02T13:25:12Z</time>
      </trkpt>
      <trkpt lat="48.44619" lon="2.64194">
        <ele>105</ele>
        <time>2011-10-02T13:25:17Z</time>
      </trkpt>
      <trkpt lat="48.44618" lon="2.64191">
        <ele>105</ele>
        <time>2011-10-02T13:25:18Z</time>
      </trkpt>
      <trkpt lat="48.44617" lon="2.64177">
        <ele>105</ele>
        <time>2011-10-02T13:25:22Z</time>
      </trkpt>
      <trkpt lat="48.44619" lon="2.64154">
        <ele>103</ele>
        <time>2011-10-02T13:25:28Z</time>
      </trkpt>
      <trkpt lat="48.44619" lon="2.64146">
        <ele>103</ele>
        <time>2011-10-02T13:25:33Z</time>
      </trkpt>
      <trkpt lat="48.44616" lon="2.64141">
        <ele>103</ele>
        <time>2011-10-02T13:25:40Z</time>
      </trkpt>
      <trkpt lat="48.44614" lon="2.64139">
        <ele>103</ele>
        <time>2011-10-02T13:25:46Z</time>
      </trkpt>
      <trkpt lat="48.44613" lon="2.64139">
        <ele>103</ele>
        <time>2011-10-02T13:25:49Z</time>
      </trkpt>
      <trkpt lat="48.44609" lon="2.64135">
        <ele>103</ele>
        <time>2011-10-02T13:25:52Z</time>
      </trkpt>
      <trkpt lat="48.44609" lon="2.64117">
        <ele>102</ele>
        <time>2011-10-02T13:25:57Z</time>
      </trkpt>
      <trkpt lat="48.44606" lon="2.6411">
        <ele>102</ele>
        <time>2011-10-02T13:26:02Z</time>
      </trkpt>
      <trkpt lat="48.44606" lon="2.64111">
        <ele>102</ele>
        <time>2011-10-02T13:26:11Z</time>
      </trkpt>
      <trkpt lat="48.44608" lon="2.64109">
        <ele>102</ele>
        <time>2011-10-02T13:26:16Z</time>
      </trkpt>
      <trkpt lat="48.4461" lon="2.64104">
        <ele>102</ele>
        <time>2011-10-02T13:26:22Z</time>
      </trkpt>
      <trkpt lat="48.4461" lon="2.64103">
        <ele>102</ele>
        <time>2011-10-02T13:26:28Z</time>
      </trkpt>
      <trkpt lat="48.44607" lon="2.64101">
        <ele>102</ele>
        <time>2011-10-02T13:26:47Z</time>
      </trkpt>
      <trkpt lat="48.44608" lon="2.64099">
        <ele>102</ele>
        <time>2011-10-02T13:26:59Z</time>
      </trkpt>
      <trkpt lat="48.44611" lon="2.64093">
        <ele>102</ele>
        <time>2011-10-02T13:27:05Z</time>
      </trkpt>
      <trkpt lat="48.44614" lon="2.64086">
        <ele>102</ele>
        <time>2011-10-02T13:27:12Z</time>
      </trkpt>
      <trkpt lat="48.44617" lon="2.64081">
        <ele>100</ele>
        <time>2011-10-02T13:27:17Z</time>
      </trkpt>
      <trkpt lat="48.44621" lon="2.64075">
        <ele>100</ele>
        <time>2011-10-02T13:27:24Z</time>
      </trkpt>
      <trkpt lat="48.44623" lon="2.64076">
        <ele>100</ele>
        <time>2011-10-02T13:27:26Z</time>
      </trkpt>
      <trkpt lat="48.44628" lon="2.64075">
        <ele>100</ele>
        <time>2011-10-02T13:27:31Z</time>
      </trkpt>
      <trkpt lat="48.44628" lon="2.64076">
        <ele>100</ele>
        <time>2011-10-02T13:27:34Z</time>
      </trkpt>
      <trkpt lat="48.44626" lon="2.64071">
        <ele>100</ele>
        <time>2011-10-02T13:27:39Z</time>
      </trkpt>
      <trkpt lat="48.44625" lon="2.64071">
        <ele>100</ele>
        <time>2011-10-02T13:27:48Z</time>
      </trkpt>
      <trkpt lat="48.44629" lon="2.64069">
        <ele>100</ele>
        <time>2011-10-02T13:28:01Z</time>
      </trkpt>
      <trkpt lat="48.44633" lon="2.64069">
        <ele>100</ele>
        <time>2011-10-02T13:28:25Z</time>
      </trkpt>
      <trkpt lat="48.44633" lon="2.64071">
        <ele>100</ele>
        <time>2011-10-02T13:28:32Z</time>
      </trkpt>
      <trkpt lat="48.44637" lon="2.64072">
        <ele>100</ele>
        <time>2011-10-02T13:28:38Z</time>
      </trkpt>
      <trkpt lat="48.44638" lon="2.6406">
        <ele>100</ele>
        <time>2011-10-02T13:28:43Z</time>
      </trkpt>
      <trkpt lat="48.44639" lon="2.64058">
        <ele>100</ele>
        <time>2011-10-02T13:28:44Z</time>
      </trkpt>
      <trkpt lat="48.44641" lon="2.6404">
        <ele>99</ele>
        <time>2011-10-02T13:28:50Z</time>
      </trkpt>
      <trkpt lat="48.44646" lon="2.64025">
        <ele>99</ele>
        <time>2011-10-02T13:28:54Z</time>
      </trkpt>
      <trkpt lat="48.44647" lon="2.64022">
        <ele>99</ele>
        <time>2011-10-02T13:28:55Z</time>
      </trkpt>
      <trkpt lat="48.44646" lon="2.64">
        <ele>99</ele>
        <time>2011-10-02T13:29:01Z</time>
      </trkpt>
      <trkpt lat="48.44645" lon="2.63997">
        <ele>97</ele>
        <time>2011-10-02T13:29:02Z</time>
      </trkpt>
      <trkpt lat="48.44652" lon="2.63995">
        <ele>97</ele>
        <time>2011-10-02T13:29:06Z</time>
      </trkpt>
      <trkpt lat="48.44663" lon="2.63996">
        <ele>98</ele>
        <time>2011-10-02T13:29:13Z</time>
      </trkpt>
      <trkpt lat="48.44666" lon="2.63994">
        <ele>97</ele>
        <time>2011-10-02T13:29:15Z</time>
      </trkpt>
      <trkpt lat="48.44668" lon="2.6398">
        <ele>97</ele>
        <time>2011-10-02T13:29:20Z</time>
      </trkpt>
      <trkpt lat="48.44668" lon="2.63967">
        <ele>97</ele>
        <time>2011-10-02T13:29:24Z</time>
      </trkpt>
      <trkpt lat="48.44664" lon="2.63958">
        <ele>96</ele>
        <time>2011-10-02T13:29:28Z</time>
      </trkpt>
      <trkpt lat="48.44665" lon="2.63951">
        <ele>96</ele>
        <time>2011-10-02T13:29:30Z</time>
      </trkpt>
      <trkpt lat="48.44671" lon="2.63937">
        <ele>96</ele>
        <time>2011-10-02T13:29:40Z</time>
      </trkpt>
      <trkpt lat="48.44672" lon="2.63936">
        <ele>96</ele>
        <time>2011-10-02T13:29:41Z</time>
      </trkpt>
      <trkpt lat="48.44675" lon="2.63924">
        <ele>96</ele>
        <time>2011-10-02T13:29:49Z</time>
      </trkpt>
      <trkpt lat="48.44676" lon="2.63926">
        <ele>96</ele>
        <time>2011-10-02T13:29:54Z</time>
      </trkpt>
      <trkpt lat="48.44678" lon="2.63937">
        <ele>96</ele>
        <time>2011-10-02T13:30:01Z</time>
      </trkpt>
      <trkpt lat="48.44682" lon="2.63934">
        <ele>96</ele>
        <time>2011-10-02T13:30:07Z</time>
      </trkpt>
      <trkpt lat="48.44686" lon="2.63929">
        <ele>96</ele>
        <time>2011-10-02T13:30:14Z</time>
      </trkpt>
      <trkpt lat="48.44688" lon="2.63927">
        <ele>96</ele>
        <time>2011-10-02T13:30:17Z</time>
      </trkpt>
      <trkpt lat="48.44688" lon="2.6392">
        <ele>96</ele>
        <time>2011-10-02T13:30:24Z</time>
      </trkpt>
      <trkpt lat="48.44686" lon="2.63915">
        <ele>95</ele>
        <time>2011-10-02T13:30:35Z</time>
      </trkpt>
      <trkpt lat="48.44682" lon="2.63905">
        <ele>95</ele>
        <time>2011-10-02T13:30:41Z</time>
      </trkpt>
      <trkpt lat="48.44677" lon="2.63895">
        <ele>95</ele>
        <time>2011-10-02T13:30:46Z</time>
      </trkpt>
      <trkpt lat="48.44676" lon="2.63892">
        <ele>94</ele>
        <time>2011-10-02T13:30:48Z</time>
      </trkpt>
      <trkpt lat="48.4467" lon="2.63892">
        <ele>95</ele>
        <time>2011-10-02T13:30:53Z</time>
      </trkpt>
      <trkpt lat="48.44656" lon="2.6389">
        <ele>94</ele>
        <time>2011-10-02T13:30:59Z</time>
      </trkpt>
      <trkpt lat="48.4465" lon="2.63883">
        <ele>94</ele>
        <time>2011-10-02T13:31:04Z</time>
      </trkpt>
      <trkpt lat="48.44646" lon="2.63866">
        <ele>94</ele>
        <time>2011-10-02T13:31:08Z</time>
      </trkpt>
      <trkpt lat="48.44645" lon="2.63862">
        <ele>94</ele>
        <time>2011-10-02T13:31:09Z</time>
      </trkpt>
      <trkpt lat="48.44639" lon="2.63852">
        <ele>94</ele>
        <time>2011-10-02T13:31:13Z</time>
      </trkpt>
      <trkpt lat="48.44635" lon="2.63837">
        <ele>94</ele>
        <time>2011-10-02T13:31:17Z</time>
      </trkpt>
      <trkpt lat="48.44632" lon="2.63827">
        <ele>92</ele>
        <time>2011-10-02T13:31:20Z</time>
      </trkpt>
      <trkpt lat="48.44624" lon="2.6381">
        <ele>92</ele>
        <time>2011-10-02T13:31:25Z</time>
      </trkpt>
      <trkpt lat="48.44619" lon="2.63793">
        <ele>92</ele>
        <time>2011-10-02T13:31:29Z</time>
      </trkpt>
      <trkpt lat="48.44618" lon="2.63779">
        <ele>91</ele>
        <time>2011-10-02T13:31:33Z</time>
      </trkpt>
      <trkpt lat="48.44616" lon="2.63772">
        <ele>91</ele>
        <time>2011-10-02T13:31:36Z</time>
      </trkpt>
      <trkpt lat="48.44607" lon="2.63776">
        <ele>91</ele>
        <time>2011-10-02T13:31:41Z</time>
      </trkpt>
      <trkpt lat="48.44602" lon="2.63775">
        <ele>91</ele>
        <time>2011-10-02T13:31:43Z</time>
      </trkpt>
      <trkpt lat="48.44598" lon="2.6376">
        <ele>90</ele>
        <time>2011-10-02T13:31:48Z</time>
      </trkpt>
      <trkpt lat="48.44591" lon="2.6375">
        <ele>89</ele>
        <time>2011-10-02T13:31:52Z</time>
      </trkpt>
      <trkpt lat="48.44582" lon="2.63743">
        <ele>88</ele>
        <time>2011-10-02T13:31:55Z</time>
      </trkpt>
      <trkpt lat="48.44575" lon="2.63748">
        <ele>89</ele>
        <time>2011-10-02T13:31:59Z</time>
      </trkpt>
      <trkpt lat="48.44571" lon="2.63748">
        <ele>89</ele>
        <time>2011-10-02T13:32:05Z</time>
      </trkpt>
      <trkpt lat="48.44542" lon="2.6373">
        <ele>90</ele>
        <time>2011-10-02T13:32:08Z</time>
      </trkpt>
      <trkpt lat="48.44531" lon="2.63734">
        <ele>90</ele>
        <time>2011-10-02T13:32:11Z</time>
      </trkpt>
      <trkpt lat="48.44528" lon="2.63746">
        <ele>90</ele>
        <time>2011-10-02T13:32:15Z</time>
      </trkpt>
      <trkpt lat="48.44521" lon="2.63745">
        <ele>91</ele>
        <time>2011-10-02T13:32:19Z</time>
      </trkpt>
      <trkpt lat="48.44513" lon="2.63734">
        <ele>91</ele>
        <time>2011-10-02T13:32:24Z</time>
      </trkpt>
      <trkpt lat="48.44518" lon="2.63718">
        <ele>90</ele>
        <time>2011-10-02T13:32:29Z</time>
      </trkpt>
      <trkpt lat="48.44529" lon="2.6368">
        <ele>90</ele>
        <time>2011-10-02T13:32:37Z</time>
      </trkpt>
      <trkpt lat="48.44525" lon="2.6366">
        <ele>90</ele>
        <time>2011-10-02T13:32:41Z</time>
      </trkpt>
      <trkpt lat="48.44515" lon="2.6364">
        <ele>89</ele>
        <time>2011-10-02T13:32:46Z</time>
      </trkpt>
      <trkpt lat="48.44509" lon="2.63628">
        <ele>89</ele>
        <time>2011-10-02T13:32:50Z</time>
      </trkpt>
      <trkpt lat="48.44508" lon="2.63627">
        <ele>89</ele>
        <time>2011-10-02T13:33:08Z</time>
      </trkpt>
      <trkpt lat="48.44515" lon="2.63644">
        <ele>89</ele>
        <time>2011-10-02T13:33:14Z</time>
      </trkpt>
      <trkpt lat="48.44525" lon="2.63661">
        <ele>90</ele>
        <time>2011-10-02T13:33:19Z</time>
      </trkpt>
      <trkpt lat="48.44531" lon="2.63679">
        <ele>90</ele>
        <time>2011-10-02T13:33:24Z</time>
      </trkpt>
      <trkpt lat="48.44532" lon="2.63683">
        <ele>90</ele>
        <time>2011-10-02T13:33:25Z</time>
      </trkpt>
      <trkpt lat="48.44528" lon="2.63701">
        <ele>90</ele>
        <time>2011-10-02T13:33:29Z</time>
      </trkpt>
      <trkpt lat="48.44518" lon="2.63728">
        <ele>90</ele>
        <time>2011-10-02T13:33:36Z</time>
      </trkpt>
      <trkpt lat="48.44513" lon="2.63739">
        <ele>91</ele>
        <time>2011-10-02T13:33:41Z</time>
      </trkpt>
      <trkpt lat="48.44509" lon="2.6374">
        <ele>91</ele>
        <time>2011-10-02T13:33:50Z</time>
      </trkpt>
      <trkpt lat="48.44504" lon="2.63742">
        <ele>91</ele>
        <time>2011-10-02T13:34:14Z</time>
      </trkpt>
      <trkpt lat="48.44506" lon="2.63743">
        <ele>91</ele>
        <time>2011-10-02T13:34:37Z</time>
      </trkpt>
      <trkpt lat="48.44508" lon="2.63741">
        <ele>91</ele>
        <time>2011-10-02T13:34:54Z</time>
      </trkpt>
      <trkpt lat="48.44497" lon="2.63733">
        <ele>92</ele>
        <time>2011-10-02T13:35:44Z</time>
      </trkpt>
      <trkpt lat="48.44498" lon="2.63732">
        <ele>92</ele>
        <time>2011-10-02T13:35:52Z</time>
      </trkpt>
      <trkpt lat="48.44501" lon="2.63733">
        <ele>91</ele>
        <time>2011-10-02T13:36:12Z</time>
      </trkpt>
      <trkpt lat="48.44509" lon="2.63722">
        <ele>91</ele>
        <time>2011-10-02T13:36:17Z</time>
      </trkpt>
      <trkpt lat="48.44518" lon="2.63698">
        <ele>90</ele>
        <time>2011-10-02T13:36:23Z</time>
      </trkpt>
      <trkpt lat="48.44521" lon="2.63677">
        <ele>90</ele>
        <time>2011-10-02T13:36:29Z</time>
      </trkpt>
      <trkpt lat="48.4452" lon="2.63663">
        <ele>90</ele>
        <time>2011-10-02T13:36:33Z</time>
      </trkpt>
      <trkpt lat="48.44514" lon="2.63648">
        <ele>90</ele>
        <time>2011-10-02T13:36:37Z</time>
      </trkpt>
      <trkpt lat="48.44499" lon="2.63609">
        <ele>91</ele>
        <time>2011-10-02T13:36:45Z</time>
      </trkpt>
      <trkpt lat="48.44488" lon="2.63577">
        <ele>90</ele>
        <time>2011-10-02T13:36:51Z</time>
      </trkpt>
      <trkpt lat="48.44474" lon="2.63538">
        <ele>91</ele>
        <time>2011-10-02T13:36:58Z</time>
      </trkpt>
      <trkpt lat="48.44463" lon="2.63507">
        <ele>91</ele>
        <time>2011-10-02T13:37:04Z</time>
      </trkpt>
      <trkpt lat="48.4445" lon="2.63476">
        <ele>91</ele>
        <time>2011-10-02T13:37:10Z</time>
      </trkpt>
      <trkpt lat="48.4444" lon="2.63446">
        <ele>91</ele>
        <time>2011-10-02T13:37:16Z</time>
      </trkpt>
      <trkpt lat="48.44431" lon="2.63414">
        <ele>91</ele>
        <time>2011-10-02T13:37:22Z</time>
      </trkpt>
      <trkpt lat="48.44425" lon="2.63391">
        <ele>90</ele>
        <time>2011-10-02T13:37:26Z</time>
      </trkpt>
      <trkpt lat="48.44421" lon="2.63373">
        <ele>90</ele>
        <time>2011-10-02T13:37:29Z</time>
      </trkpt>
      <trkpt lat="48.44411" lon="2.63341">
        <ele>92</ele>
        <time>2011-10-02T13:37:34Z</time>
      </trkpt>
      <trkpt lat="48.44404" lon="2.63305">
        <ele>92</ele>
        <time>2011-10-02T13:37:40Z</time>
      </trkpt>
      <trkpt lat="48.44398" lon="2.6327">
        <ele>91</ele>
        <time>2011-10-02T13:37:46Z</time>
      </trkpt>
      <trkpt lat="48.44389" lon="2.6324">
        <ele>91</ele>
        <time>2011-10-02T13:37:51Z</time>
      </trkpt>
      <trkpt lat="48.44385" lon="2.63221">
        <ele>91</ele>
        <time>2011-10-02T13:37:54Z</time>
      </trkpt>
      <trkpt lat="48.4438" lon="2.63202">
        <ele>91</ele>
        <time>2011-10-02T13:37:57Z</time>
      </trkpt>
      <trkpt lat="48.4436" lon="2.63146">
        <ele>91</ele>
        <time>2011-10-02T13:38:06Z</time>
      </trkpt>
      <trkpt lat="48.44349" lon="2.63111">
        <ele>91</ele>
        <time>2011-10-02T13:38:12Z</time>
      </trkpt>
      <trkpt lat="48.44344" lon="2.63099">
        <ele>91</ele>
        <time>2011-10-02T13:38:14Z</time>
      </trkpt>
      <trkpt lat="48.44328" lon="2.63058">
        <ele>92</ele>
        <time>2011-10-02T13:38:21Z</time>
      </trkpt>
      <trkpt lat="48.44316" lon="2.63034">
        <ele>92</ele>
        <time>2011-10-02T13:38:26Z</time>
      </trkpt>
      <trkpt lat="48.44301" lon="2.63012">
        <ele>92</ele>
        <time>2011-10-02T13:38:31Z</time>
      </trkpt>
      <trkpt lat="48.44279" lon="2.62976">
        <ele>91</ele>
        <time>2011-10-02T13:38:38Z</time>
      </trkpt>
      <trkpt lat="48.44258" lon="2.62937">
        <ele>90</ele>
        <time>2011-10-02T13:38:45Z</time>
      </trkpt>
      <trkpt lat="48.44255" lon="2.6293">
        <ele>90</ele>
        <time>2011-10-02T13:38:46Z</time>
      </trkpt>
      <trkpt lat="48.44237" lon="2.62875">
        <ele>91</ele>
        <time>2011-10-02T13:38:54Z</time>
      </trkpt>
      <trkpt lat="48.44227" lon="2.62839">
        <ele>90</ele>
        <time>2011-10-02T13:38:59Z</time>
      </trkpt>
      <trkpt lat="48.44224" lon="2.62825">
        <ele>88</ele>
        <time>2011-10-02T13:39:01Z</time>
      </trkpt>
      <trkpt lat="48.44212" lon="2.62781">
        <ele>88</ele>
        <time>2011-10-02T13:39:08Z</time>
      </trkpt>
      <trkpt lat="48.44211" lon="2.62775">
        <ele>88</ele>
        <time>2011-10-02T13:39:09Z</time>
      </trkpt>
      <trkpt lat="48.44198" lon="2.6274">
        <ele>88</ele>
        <time>2011-10-02T13:39:15Z</time>
      </trkpt>
      <trkpt lat="48.44183" lon="2.62698">
        <ele>88</ele>
        <time>2011-10-02T13:39:22Z</time>
      </trkpt>
      <trkpt lat="48.44173" lon="2.62664">
        <ele>89</ele>
        <time>2011-10-02T13:39:28Z</time>
      </trkpt>
      <trkpt lat="48.44162" lon="2.62629">
        <ele>91</ele>
        <time>2011-10-02T13:39:35Z</time>
      </trkpt>
      <trkpt lat="48.44151" lon="2.626">
        <ele>91</ele>
        <time>2011-10-02T13:39:41Z</time>
      </trkpt>
      <trkpt lat="48.44143" lon="2.62578">
        <ele>92</ele>
        <time>2011-10-02T13:39:46Z</time>
      </trkpt>
      <trkpt lat="48.44132" lon="2.62547">
        <ele>92</ele>
        <time>2011-10-02T13:39:52Z</time>
      </trkpt>
      <trkpt lat="48.44113" lon="2.62499">
        <ele>92</ele>
        <time>2011-10-02T13:40:00Z</time>
      </trkpt>
      <trkpt lat="48.44102" lon="2.62463">
        <ele>92</ele>
        <time>2011-10-02T13:40:06Z</time>
      </trkpt>
      <trkpt lat="48.44098" lon="2.62424">
        <ele>92</ele>
        <time>2011-10-02T13:40:12Z</time>
      </trkpt>
      <trkpt lat="48.441" lon="2.62397">
        <ele>93</ele>
        <time>2011-10-02T13:40:16Z</time>
      </trkpt>
      <trkpt lat="48.44104" lon="2.62364">
        <ele>93</ele>
        <time>2011-10-02T13:40:22Z</time>
      </trkpt>
      <trkpt lat="48.44106" lon="2.62348">
        <ele>94</ele>
        <time>2011-10-02T13:40:26Z</time>
      </trkpt>
      <trkpt lat="48.44106" lon="2.6234">
        <ele>94</ele>
        <time>2011-10-02T13:40:28Z</time>
      </trkpt>
      <trkpt lat="48.4411" lon="2.62314">
        <ele>95</ele>
        <time>2011-10-02T13:40:34Z</time>
      </trkpt>
      <trkpt lat="48.44112" lon="2.62305">
        <ele>95</ele>
        <time>2011-10-02T13:40:36Z</time>
      </trkpt>
      <trkpt lat="48.44121" lon="2.62286">
        <ele>95</ele>
        <time>2011-10-02T13:40:42Z</time>
      </trkpt>
      <trkpt lat="48.44121" lon="2.62276">
        <ele>95</ele>
        <time>2011-10-02T13:40:50Z</time>
      </trkpt>
      <trkpt lat="48.44127" lon="2.62275">
        <ele>95</ele>
        <time>2011-10-02T13:41:03Z</time>
      </trkpt>
      <trkpt lat="48.44124" lon="2.62273">
        <ele>95</ele>
        <time>2011-10-02T13:41:05Z</time>
      </trkpt>
    </trkseg>
  </trk>
</gpx>